     2              OBSERVATION DATA    G (GPS)             RINEX VERSION / TYPE
ASRINEXO V2.4.4 UX USGS 23-NOV-94 11:46                     PGM / RUN BY / DATE
HI'S ARE VERT TO BASE OF ANTENNA                            COMMENT
bear Bear_Ridge_2_1957_1981_NGS                             MARKER NAME
MHM USGS                                                    OBSERVER / AGENCY
827 ASHTECH Z-XII3 1C01                                     REC # / TYPE / VERS
*104 ASH700228A NONE                                        ANT # / TYPE
 -2736969.0000 -4013076.0000  4120634.0000                  APPROX POSITION XYZ
        1.1215        0.0000        0.0000                  ANTENNA: DELTA H/E/N
     1     1                                                WAVELENGTH FACT L1/2
     5    C1    L1    L2    P1    P2                        # / TYPES OF OBSERV
    30                                                      INTERVAL
  1994     4    26    22    39   30.000000                  TIME OF FIRST OBS
                                                            END OF HEADER
 94  4 26 22 39 30.0000000  0  2  4  9
  21381195.121      -73029.15659    -52596.94459  21381197.7794   21381203.2664
  20855918.362        4899.08359      3497.08359  20855919.7974   20855924.7484
 94  4 26 22 40  0.0000000  0  7 24  4  5  2  7  9 12
  22591378.235     -240898.24759   -178755.62759  22591379.9684   22591387.7684
  21374986.082     -105664.48449    -78027.02349  21374987.8714   21374993.1954
  22780830.604     -141628.74759    -97542.90959  22780832.9274   22780838.3864
  23502477.086      278338.04959    200240.69459  23502478.1044   23502484.1514
  21997118.831      270502.90959    176915.42559  21997119.3924   21997125.6874
  20856308.319        6951.76649      5096.57549  20856310.2284   20856315.4024
  21100501.863      -96967.90319    -68097.23719  21100503.483    21100509.562
 94  4 26 22 40 30.0000000  0  7 24  4  5  2  7  9 12
  22576064.256     -321377.00349   -241466.24249  22576065.7434   22576072.9564
  21368742.898     -138470.58949   -103590.17949  21368745.2494   21368750.1874
  22769180.153     -202849.72749   -145247.53049  22769182.5774   22769188.3484
  23520569.220      373422.28149    274332.23049  23520571.6964   23520577.5074
  22014389.389      361268.54149    247641.88949  22014391.3754   22014398.0784
  20856668.896        8846.28449      6572.82549  20856670.8154   20856675.8094
  21094630.710     -127821.928 9    -92139.317 9  21094632.167    21094638.341
 94  4 26 22 41  0.0000000  0  7 24  4  5  2  7  9 12
  22560691.217     -402160.50049   -304414.33549  22560693.0494   22560700.5544
  21362488.867     -171335.82749   -129199.40549  21362491.0224   21362495.8024
  22757438.391     -264559.40549   -193332.95649  22757439.2144   22757445.2094
  23538590.132      468123.38349    348125.24049  23538592.8954   23538598.2334
  22031586.335      451625.91549    318050.22049  22031586.3494   22031592.3464
  20857023.608       10707.97449      8023.50249  20857025.4024   20857030.3514
  21088727.164     -158843.441 9   -116311.905 9  21088728.892    21088735.288
 94  4 26 22 41 30.0000000  0  7 24  4  5  2  7  9 12
  22545269.380     -483204.33049   -367565.29449  22545270.8564   22545278.8244
  21356233.400     -204209.18949   -154814.95649  21356235.1544   21356239.6164
  22745610.393     -326706.54749   -241759.26049  22745612.9354   22745618.9574
  23556544.803      562470.64049    421642.52449  23556546.2374   23556553.2854
  22048703.878      541590.71349    388152.65149  22048705.7214   22048711.7314
  20857380.573       12585.52049      9486.53149  20857382.3414   20857387.5694
  21082798.006     -189997.273 9   -140587.601 9  21082800.448    21082807.045
 94  4 26 22 42  0.0000000  0  7 24  4  5  2  7  9 12
  22529818.563     -564396.49849   -430831.84049  22529819.9994   22529827.8504
  21350002.361     -236945.94049   -180324.06649  21350005.2614   21350010.0604
  22733726.027     -389164.13949   -290427.47349  22733728.1304   22733734.4474
  23574454.222      656581.94349    494975.93949  23574454.9724   23574463.6514
  22065769.660      631269.88749    458032.51349  22065771.1154   22065777.1974
  20857766.214       14612.00749     11065.61749  20857768.0044   20857773.2294
  21076868.633     -221160.924 9   -164870.953 9  21076870.426    21076876.644
 94  4 26 22 42 30.0000000  0  7 24  4  5  2  7  9 12
  22514334.979     -645759.83349   -494231.76249  22514336.6244   22514344.7684
  21343794.375     -269575.01749   -205749.27749  21343796.2314   21343801.4984
  22721781.132     -451942.43249   -339345.58849  22721782.0484   22721788.2014
  23592314.648      750434.49149    568107.72349  23592315.4634   23592324.1714
  22082778.057      720647.31949    527677.24449  22082779.0284   22082785.6654
  20858178.252       16772.44749     12749.07949  20858179.7284   20858184.7864
  21070932.269     -252352.785 9   -189176.288 9  21070934.554    21070940.893
 94  4 26 22 43  0.0000000  0  7 24  4  5  2  7  9 12
  22498824.936     -727267.78149   -557744.36049  22498826.4284   22498833.9474
  21337609.770     -302073.61949   -231072.80749  21337612.0004   21337617.2454
  22709779.678     -515008.74049   -388488.12749  22709781.0294   22709787.3144
  23610133.537      844074.93149    641074.23149  23610134.3074   23610142.7284
  22099734.481      809769.48749    597123.08149  22099738.1424   22099745.1494
  20858623.395       19116.16649     14575.35749  20858625.1984   20858630.7314
  21064998.991     -283536.233 9   -213475.066 9  21065000.541    21065007.122
 94  4 26 22 43 30.0000000  0  7 24  4  5  2  7  9 12
  22483288.163     -808911.49149   -621362.75749  22483290.3344   22483296.3804
  21331453.258     -334428.93149   -256284.68949  21331455.4464   21331460.2824
  22697721.355     -578371.27549   -437861.49349  22697723.4374   22697729.7024
  23627909.899      937498.64249    713871.86849  23627912.1704   23627920.8944
  22116654.687      898666.44949    666393.42749  22116655.3924   22116661.7094
  20859104.478       21642.21449     16543.71649  20859106.2344   20859111.0224
  21059068.244     -314703.183 9   -237760.984 9  21059069.837    21059076.293
 94  4 26 22 44  0.0000000  0  7 24  4  5  2  7  9 12
  22467733.549     -890656.77049   -685060.30549  22467735.0514   22467742.1554
  21325327.925     -366618.17649   -281367.17849  21325329.5354   21325334.5574
  22685615.166     -641990.59249   -487434.95149  22685617.0394   22685623.2964
  23645652.571     1030745.41449    786531.60849  23645656.4784   23645664.7444
  22133537.198      987390.90749    735529.34549  22133539.2774   22133544.8444
  20859623.834       24369.66849     18669.01649  20859625.2644   20859629.9414
  21053147.634     -345814.439 9   -262003.505 9  21053149.438    21053155.688
 94  4 26 22 44 30.0000000  0  7 24  4  5  2  7  9 12
  22452166.997     -972457.35149   -748800.94049  22452169.1144   22452175.6504
  21319240.394     -398602.90249   -306290.30149  21319242.7254   21319248.3984
  22673469.090     -705822.49849   -537174.06449  22673470.3024   22673476.1564
  23663375.208     1123858.91749    859087.51349  23663376.5934   23663383.1204
  22150399.644     1075995.99249    804572.24449  22150400.5424   22150405.9834
  20860187.274       27334.20049     20979.04449  20860189.0334   20860194.0544
  21047245.753     -376827.561 9   -286169.558 9  21047247.707    21047253.802
 94  4 26 22 45  0.0000000  0  7 24  4  5  2  7  9 12
  22436596.904    -1054278.89749   -812557.91249  22436598.8674   22436605.1314
  21313203.269     -430328.09849   -331011.19549  21313205.5914   21313211.4064
  22661286.130     -769839.17249   -587057.14249  22661287.7054   22661294.5174
  23681077.347     1216874.06949    931566.79049  23681077.5414   23681083.4314
  22167242.037     1164509.52849    873543.81149  22167243.8844   22167249.8844
  20860802.788       30566.35849     23497.61849  20860804.3564   20860809.2104
  21041370.116     -407704.944 9   -310229.841 9  21041372.021    21041378.253
 94  4 26 22 45 30.0000000  0  7 24  4  5  2  7  9 12
  22421031.351    -1136075.00549   -876295.06149  22421033.3364   22421040.0204
  21307223.943     -461747.39449   -355493.72949  21307226.5784   21307232.5374
  22649075.999     -834003.71149   -637055.43349  22649078.0124   22649084.2594
  23698765.034     1309813.22449   1003986.83349  23698762.4034   23698769.7704
  22184070.537     1252946.43449    942455.66949  22184072.4594   22184078.8624
  20861474.647       34097.98949     26249.54749  20861476.3334   20861481.1084
  21035527.651     -438405.916 9   -334152.667 9  21035529.798    21035536.244
 94  4 26 22 46  0.0000000  0  7 24  4  5  2  7  9 12
  22405474.574    -1217826.31649   -939997.30949  22405476.5884   22405483.0664
  21301307.878     -492838.56549   -379720.57849  21301310.3784   21301316.0234
  22636842.316     -898294.52049   -687152.11549  22636843.5654   22636850.1054
  23716441.404     1402714.36249   1076377.25049  23716440.4514   23716448.3004
  22200884.800     1341304.88649   1011306.39349  22200886.7564   22200893.0764
  20862211.520       37971.43249     29267.81549  20862213.2954   20862218.5814
  21029725.399     -468899.722 9   -357914.061 9  21029727.073    21029733.295
 94  4 26 22 46 30.0000000  0  7 24  4  5  2  7  9 12
  22389931.095    -1299508.21849  -1003645.47049  22389932.9354   22389939.3664
  21295461.675     -523563.91949   -403662.38249  21295463.6144   21295468.3674
  22624586.511     -962699.05949   -737337.42949  22624588.0484   22624594.5194
  23734114.703     1495611.14749   1148764.25049  23734116.0104   23734125.9024
  22217687.534     1429597.71449   1080105.98349  22217688.3134   22217694.7284
  20863024.612       42242.14949     32595.64849  20863026.1894   20863031.0304
  21023967.962     -499155.218 9   -381489.750 9  21023969.686    21023975.866
 94  4 26 22 47  0.0000000  0  7 24  4  5  2  7  9 12
  22374405.234    -1381094.84749  -1067219.41149  22374407.5234   22374413.7834
  21289685.157     -553921.33549   -427317.48649  21289687.2094   21289691.9624
  22612311.195    -1027204.06949   -787601.03449  22612312.9804   22612319.2264
  23751793.067     1588530.76549   1221169.03449  23751797.8744   23751808.7984
  22234480.404     1517850.25049   1148874.17749  22234482.3714   22234488.4404
  20863916.666       46929.91549     36248.46049  20863918.2904   20863922.9104
  21018259.559     -529148.827 9   -404861.376 9  21018261.848    21018268.622
 94  4 26 22 47 30.0000000  0  7 24  4  5  2  7  9 12
  22358902.724    -1462561.27349  -1130699.68349  22358904.7854   22358911.2504
  21283979.292     -583905.66949   -450681.86849  21283981.5214   21283986.2324
  22600023.606    -1091782.23149   -837921.64549  22600024.6614   22600030.1844
  23769487.662     1681490.27449   1293604.94349  23769489.9414   23769498.2594
  22251274.787     1606094.98049   1217636.28449  22251274.9514   22251280.8004
  20864891.173       52054.72849     40241.82849  20864893.2104   20864898.3184
  21012606.555     -558858.685 9   -428011.902 9  21012608.337    21012614.760
 94  4 26 22 48  0.0000000  0  7 24  4  5  2  7  9 12
  22343425.330    -1543891.84249  -1194074.07349  22343427.7614   22343434.7574
  21278346.849     -613501.55149   -473743.55849  21278349.2044   21278354.2754
  22587725.425    -1156408.69149   -888279.89249  22587726.6984   22587732.3064
  23787187.672     1774507.23349   1366085.60449  23787190.3484   23787198.6574
  22268069.375     1694365.36349   1286418.37849  22268072.0534   22268078.2524
  20865952.387       57626.15649     44583.20549  20865953.7184   20865958.8784
  21007009.377     -588271.435 9   -450930.912 9  21007011.249    21007017.450
 94  4 26 22 48 30.0000000  0  7 24  4  5  2  7  9 12
  22327980.133    -1625060.58949  -1257322.37749  22327982.1624   22327988.7714
  21272791.392     -642693.96849   -496490.86149  21272793.5144   21272798.5494
  22575423.898    -1221050.40249   -938650.02049  22575425.0924   22575431.3574
  23804902.953     1867594.26249   1438620.86549  23804903.7934   23804913.7154
  22284878.348     1782690.57249   1355243.20049  22284879.6854   22284885.8994
  20867092.927       63623.98749     49256.85049  20867094.6224   20867100.0194
  21001471.459     -617376.091 9   -473609.850 9  21001472.940    21001479.191
 94  4 26 22 49  0.0000000  0  7 24  4  5  2  7  9 12
  22312571.502    -1706033.49849  -1320418.09449  22312573.2554   22312580.6604
  21267316.632     -671462.87749   -518908.15549  21267319.2834   21267324.6364
  22563125.287    -1285675.32449   -989007.06149  22563127.5444   22563133.7544
  23822632.527     1960753.07149   1511212.04549  23822632.1994   23822641.9184
  22301700.160     1871084.99649   1424121.94849  22301700.9184   22301707.0224
  20868312.030       70029.54349     54248.19949  20868313.7424   20868319.0334
  20995994.515     -646155.875 9   -496035.645 9  20995996.263    20996002.648
 94  4 26 22 49 30.0000000  0  7 24  4  5  2  7  9 12
  22297203.166    -1786792.88449  -1383347.42949  22297205.4294   22297212.5084
  21261927.828     -699781.42849   -540974.53249  21261930.3434   21261935.9874
  22550835.371    -1350261.53549  -1039333.94549  22550837.0384   22550843.0324
  23840376.668     2053991.93849   1583865.61249  23840375.8284   23840384.1104
  22318530.732     1959532.56649   1493042.11349  22318532.0374   22318538.1484
  20869610.950       76854.51149     59566.35749  20869612.5704   20869617.6594
  20990582.858     -674596.285 9   -518196.988 9  20990584.179    20990590.486
 94  4 26 22 50  0.0000000  0  7 24  4  5  2  7  9 12
  22281876.737    -1867334.32549  -1446106.94449  22281878.6844   22281885.5054
  21256627.046     -727639.33649   -562681.94649  21256628.9854   21256634.8504
  22538551.063    -1414815.37049  -1089635.60949  22538552.9464   22538558.6814
  23858136.355     2147326.81949   1656594.01649  23858136.1314   23858144.5554
  22335370.212     2048024.27049   1561996.66349  22335371.3914   22335377.2824
  20870991.882       84112.23249     65221.71949  20870993.5994   20870998.8174
  20985235.879     -702688.628 9   -540087.103 9  20985238.206    20985244.978
 94  4 26 22 50 30.0000000  0  7 24  4  5  2  7  9 12
  22266593.225    -1947651.81549  -1508691.94749  22266594.9674   22266601.7984
  21251415.372     -755027.88549   -584023.64549  21251417.2424   21251422.6444
  22526272.650    -1479341.78949  -1139915.91049  22526274.0994   22526279.9264
  23875915.177     2240756.40849   1729396.22949  23875916.1264   23875923.1914
  22352213.981     2136541.25849   1630970.91749  22352215.4964   22352221.4354
  20872458.136       91817.21649     71225.60549  20872459.8754   20872464.5834
  20979957.373     -730425.909 9   -561700.557 9  20979959.825    20979967.148
 94  4 26 22 51  0.0000000  0  7 24  4  5  2  7  9 12
  22251351.771    -2027743.90049  -1571101.30249  22251353.9554   22251360.1954
  21246292.994     -781940.70149   -604994.62549  21246295.5454   21246300.7834
  22513998.286    -1543845.42849  -1190178.44249  22513999.4424   22514005.3864
  23893709.355     2334268.19159   1802262.48759  23893710.1764   23893719.9284
  22369062.314     2225073.75849   1699957.26149  22369062.9354   22369068.5484
  20874016.737      100005.88749     77606.39449  20874018.2484   20874023.1484
  20974750.014     -757797.713 9   -583029.231 9  20974751.391    20974757.931
 94  4 26 22 51 30.0000000  0  7 24  4  5  2  7  9 12
  22236153.528    -2107609.71849  -1633334.33949  22236155.3514   22236161.9764
  21241262.981     -808374.68149   -625592.48049  21241265.1574   21241271.0864
  22501728.310    -1608319.13149  -1240417.65449  22501730.2434   22501735.8034
  23911522.660     2427883.01659   1875209.02859  23911524.5044   23911533.9714
  22385914.736     2313638.19149   1768968.48549  22385915.7984   22385921.7064
  20875673.545      108713.24149     84391.33949  20875675.2614   20875680.6344
  20969612.707     -784792.598 9   -604064.190 9  20969614.470    20969620.959
 94  4 26 22 52  0.0000000  0  7 24  4  5  2  7  9 12
  22220998.932    -2187242.70049  -1695385.93749  22221001.2634   22221008.9204
  21236327.128     -834314.74349   -645805.46649  21236329.4944   21236335.2274
  22489466.718    -1672754.77449  -1290627.20849  22489468.9744   22489474.3494
  23929357.518     2521598.31959   1948233.87559  23929357.2104   23929367.1214
  22402777.610     2402261.86849   1838025.87349  22402780.1854   22402786.1564
  20877432.284      117955.11249     91592.79249  20877433.9614   20877439.0764
  20964549.459     -811401.016 9   -624798.012 9  20964551.079    20964557.868
 94  4 26 22 52 30.0000000  0  7 24  4  5  2  7  9 12
  22205891.540    -2266632.39849  -1757247.96749  22205893.9864   22205901.6204
  21231485.465     -859755.83349   -665629.64949  21231487.7694   21231494.0814
  22477216.187    -1737135.59649  -1340794.04649  22477217.6054   22477223.3284
  23947207.421     2615407.43659   2021331.80259  23947208.7964   23947215.9724
  22419656.069     2490948.14049   1907132.03149  22419656.3054   22419662.9094
  20879290.387      127722.17949     99203.49849  20879292.3944   20879297.5614
  20959558.682     -837625.787 9   -645232.885 9  20959560.604    20959567.205
 94  4 26 22 53  0.0000000  0  7 24  4  5  2  7  9 12
  22190834.367    -2345767.28049  -1818911.44749  22190835.9554   22190842.5874
  21226738.514     -884701.80449   -685068.02649  21226740.7254   21226746.4464
  22464977.164    -1801453.75049  -1390912.04549  22464978.5284   22464983.9004
  23965080.272     2709327.39659   2094516.15359  23965081.1544   23965087.2314
  22436548.406     2579720.00449   1976304.89049  22436549.3414   22436556.0274
  20881249.693      138017.78449    107226.04849  20881251.4484   20881256.9354
  20954641.221     -863464.571 9   -665366.979 9  20954643.298    20954650.059
 94  4 26 22 53 30.0000000  0  7 24  4  5  2  7  9 12
  22175824.334    -2424640.92549  -1880371.36649  22175826.4544   22175833.2544
  21222087.766     -909142.74649   -704112.87749  21222090.3304   21222095.3634
  22452748.719    -1865712.23349  -1440983.55849  22452750.1794   22452755.9904
  23982976.662     2803377.59259   2167801.97559  23982978.1274   23982985.2384
  22453459.817     2668594.14749   2045557.44449  22453461.5764   22453468.0234
  20883309.318      148838.35249    115657.65949  20883311.0184   20883316.1914
  20949799.300     -888914.410 9   -685198.008 9  20949800.815    20949807.291
 94  4 26 22 54  0.0000000  0  7 24  4  5  2  7  9 12
  22160866.361    -2503243.54649  -1941620.09949  22160868.6304   22160875.3004
  21217536.610     -933060.31149   -722749.91449  21217538.7574   21217543.9474
  22440531.436    -1929911.81749  -1491009.16049  22440533.2924   22440539.0334
  24000898.790     2897558.81759   2241189.87159  24000899.8934   24000909.6644
  22470390.745     2757561.65749   2114882.76549  22470391.3304   22470398.1074
  20885467.316      160180.40549    124495.62249  20885468.8964   20885474.0694
  20945030.852     -913972.217 9   -704723.556 9  20945032.382    20945039.089
 94  4 26 22 54 30.0000000  0  7 24  4  5  2  7  9 12
  22145963.651    -2581564.01349  -2002648.96149  22145965.1794   22145971.4584
  21213084.872     -956451.01349   -740976.38549  21213087.3894   21213092.8824
  22428326.069    -1994052.00349  -1540988.50149  22428328.0504   22428333.7924
  24018845.571     2991885.37349   2314691.00749  24018849.8344   24018861.2744
  22487337.608     2846624.21249   2184282.14649  22487339.4994   22487345.9564
  20887726.527      172052.64449    133746.71749  20887728.1784   20887733.3854
  20940338.444     -938628.558 9   -723936.283 9  20940340.425    20940346.780
 94  4 26 22 55  0.0000000  0  7 24  4  5  2  7  9 12
  22131110.915    -2659611.53049  -2063465.14049  22131113.0084   22131119.6734
  21208734.666     -979316.70349   -758793.77749  21208736.4204   21208741.2964
  22416129.097    -2058151.21149  -1590935.89749  22416130.3734   22416136.1394
  24036822.705     3086345.15049   2388295.94149  24036825.2824   24036835.7364
  22504302.774     2935779.35949   2253753.66349  22504305.3604   22504311.8914
  20890089.584      184469.25749    143422.00449  20890091.0864   20890096.4534
  20935724.996     -962874.939 9   -742829.552 9  20935726.729    20935733.031
 94  4 26 22 55 30.0000000  0  7 24  4  5  2  7  9 12
  22116309.322    -2737394.38549  -2124075.08249  22116311.3794   22116318.2074
  21204484.275    -1001650.33449   -776196.57649  21204486.2894   21204491.3514
  22403939.640    -2122206.33049  -1640848.93349  22403941.1464   22403946.7674
  24054821.810     3180922.96849   2461992.84849  24054822.8284   24054833.0614
  22521284.880     3025009.72749   2323283.80049  22521285.8204   22521292.0814
  20892553.533      197419.62249    153513.19649  20892555.2474   20892560.7694
  20931189.177     -986705.586 9   -761398.875 9  20931191.621    20931198.333
 94  4 26 22 56  0.0000000  0  7 24  4  5  2  7  9 12
  22101556.414    -2814918.95149  -2184483.76949  22101558.5684   22101565.8044
  21200331.631    -1023469.05549   -793198.14249  21200334.2184   21200339.7114
  22391758.118    -2186219.23149  -1690729.08049  22391759.5834   22391765.3804
  24072839.132     3275599.11049   2535766.38649  24072840.0394   24072848.5304
  22538274.403     3114291.12149   2392853.69249  22538275.6604   22538281.1674
  20895116.965      210890.49649    164009.98749  20895118.6554   20895123.6794
  20926733.745    -1010124.602 9   -779647.449 9  20926735.306    20926741.658
 94  4 26 22 56 30.0000000  0  7 24  4  5  2  7  9 12
  22086830.872    -2892298.21749  -2244779.22949  22086833.3734   22086840.8964
  21196253.086    -1044906.91349   -809902.92449  21196254.9654   21196260.2694
  22379563.222    -2250298.17349  -1740660.69149  22379565.6704   22379571.4614
  24090851.718     3370248.81149   2609519.30849  24090851.5664   24090859.1844
  22555253.642     3203521.81449   2462384.07649  22555255.0534   22555261.0234
  20897757.627      224764.43349    174820.85349  20897759.3014   20897764.2404
  20922334.357    -1033242.625 9   -797661.477 9  20922336.105    20922342.426
 94  4 26 22 57  0.0000000  0  7 24  4  5  2  7  9 12
  22072188.341    -2969250.14249  -2304741.68549  22072190.0904   22072197.4484
  21192297.990    -1065688.68849   -826096.47849  21192300.3454   21192305.4224
  22367413.379    -2314151.04349  -1790416.13349  22367414.7974   22367421.0904
  24108910.388     3465148.62849   2683467.14649  24108910.6374   24108918.1434
  22572273.576     3292963.23249   2532078.68049  22572275.5174   22572281.8174
  20900523.328      239301.16049    186148.16249  20900525.1674   20900530.8434
  20918044.580    -1055782.256 9   -815224.807 9  20918046.548    20918053.463
 94  4 26 22 57 30.0000000  0  7 24  4  5  2  7  9 12
  22057608.611    -3045868.60349  -2364444.32049  22057610.4244   22057617.3104
  21188447.162    -1085930.48149   -841869.27449  21188448.5004   21188453.6794
  22355288.685    -2377868.14649  -1840065.79049  22355289.9154   22355295.8634
  24126998.191     3560197.86049   2757531.37749  24126997.0894   24127006.4514
  22589311.763     3382498.03949   2601846.02549  22589313.5434   22589320.0414
  20903393.213      254379.67649    197897.64849  20903394.8144   20903399.7624
  20913844.031    -1077859.123 9   -832427.557 9  20913845.721    20913852.111
 94  4 26 22 58  0.0000000  0  7 24  4  5  2  7  9 12
  22043034.587    -3122451.80249  -2424119.47849  22043036.7624   22043044.2934
  21184638.075    -1105942.47249   -857463.00649  21184640.1214   21184645.8854
  22343130.803    -2441757.16649  -1889849.42349  22343132.3204   22343137.9694
  24145056.823     3655104.27749   2831484.31749  24145056.7684   24145067.1244
  22606311.490     3471826.20349   2671452.36049  22606311.9274   22606318.4614
  20906308.742      269701.00049    209836.34349  20906310.1394   20906315.2014
  20909672.624    -1099779.670 9   -849508.492 9  20909674.526    20909680.572
 94  4 26 22 58 30.0000000  0  7 24  4  5  2  7  9 12
  22028497.384    -3198847.56749  -2483648.58449  22028499.1614   22028506.1324
  21180903.156    -1125568.59249   -872756.05949  21180905.3624   21180910.8184
  22330969.241    -2505665.06649  -1939647.76249  22330970.9874   22330976.4254
  24163118.757     3750029.07649   2905451.57549  24163120.2184   24163130.1774
  22623299.060     3561095.25849   2741012.63949  22623299.5814   22623305.4294
  20909298.328      285414.98649    222081.00349  20909300.0424   20909305.7504
  20905559.174    -1121395.558 9   -866352.035 9  20905561.300    20905567.361
 94  4 26 22 59  0.0000000  0  7 24  4  5  2  7  9 12
  22014016.295    -3274943.92749  -2542944.39749  22014018.6464   22014025.1514
  21177263.719    -1144688.60549   -887654.76049  21177266.6334   21177271.9284
  22318824.663    -2569483.78149  -1989376.60649  22318826.7724   22318832.3054
  24181209.259     3845095.55049   2979529.21449  24181210.9244   24181220.4704
  22640292.025     3650403.63049   2810603.55549  22640294.4124   22640300.8404
  20912385.798      301636.37749    234721.03849  20912387.2404   20912392.7064
  20901526.138    -1142594.697 9   -882870.841 9  20901527.427    20901533.402
 94  4 26 22 59 30.0000000  0  7 24  4  5  2  7  9 12
  21999598.770    -3350709.62449  -2601982.55049  21999600.8324   21999607.8974
  21173731.985    -1163252.38149   -902120.02249  21173733.9924   21173739.6344
  22306703.505    -2633184.12449  -2039013.20049  22306704.7824   22306710.2624
  24199341.903     3940346.45449   3053750.57449  24199337.8804   24199346.7334
  22657307.651     3739817.17849   2880276.43749  22657309.0264   22657315.6834
  20915579.210      318421.50149    247800.35049  20915581.1844   20915586.6454
  20897578.529    -1163330.762 9   -899028.806 9  20897580.631    20897587.486
 94  4 26 23  0  0.0000000  0  7 24  4  5  2  7  9 12
  21985242.097    -3426153.07849  -2660769.60149  21985244.2894   21985251.2484
  21170309.917    -1181235.93649   -916133.16349  21170312.0944   21170317.4414
  22294602.593    -2696778.23749  -2088567.02549  22294603.4634   22294608.7154
  24217500.463     4035782.35949   3128116.09849  24217500.4584   24217506.6624
  22674343.870     3829343.95249   2950037.54549  22674344.8484   22674351.7154
  20918882.229      335776.93249    261324.05149  20918883.6874   20918888.9264
  20893723.231    -1183592.993 9   -914817.551 9  20893725.030    20893731.846
 94  4 26 23  0 30.0000000  0  7 24  4  5  2  7  9 12
  21970952.006    -3501250.18849  -2719286.76649  21970953.8184   21970960.8354
  21167003.325    -1198613.70849   -929674.25449  21167005.4524   21167010.1314
  22282525.108    -2760242.03849  -2138019.31649  22282526.5054   22282531.7084
  24235694.024     4131404.43949   3202626.68749  24235695.1254   24235702.2234
  22691405.415     3919003.88249   3019902.40849  22691407.2184   22691413.3764
  20922296.212      353717.45349    275303.67249  20922297.7134   20922302.8264
  20889961.640    -1203362.776 9   -930222.563 9  20889963.292    20889969.819
 94  4 26 23  1  0.0000000  0  7 24  4  5  2  7  9 12
  21956728.514    -3575997.21149  -2777531.13549  21956730.3604   21956736.7404
  21163813.954    -1215374.11049   -942734.28249  21163816.1394   21163820.8024
  22270473.219    -2823573.23149  -2187368.27549  22270474.9084   22270480.3984
  24253921.182     4227202.76649   3277274.60749  24253924.5354   24253932.1564
  22708497.212     4008810.20649   3089881.34349  22708497.6764   22708502.7364
  20925822.987      372248.91049    289743.76449  20925824.3844   20925829.8484
  20886293.792    -1222636.044 9   -945240.681 9  20886295.656    20886302.005
 94  4 26 23  1 30.0000000  0  7 24  4  5  2  7  9 12
  21942577.985    -3650362.43949  -2835478.01349  21942579.4254   21942584.9624
  21160747.991    -1231486.38949   -955289.27249  21160749.8904   21160754.9154
  22258452.621    -2886738.14349  -2236587.65249  22258454.6814   22258460.5344
  24272192.571     4323195.37749   3352073.94749  24272191.5304   24272199.4444
  22725616.894     4098789.22849   3159994.84649  22725619.1974   22725625.3524
  20929467.308      391401.40249    304667.77549  20929468.7714   20929474.3354
  20882725.944    -1241386.870 9   -959851.704 9  20882727.571    20882733.830
 94  4 26 23  2  0.0000000  0  7 24  4  5  2  7  9 12
  21928504.520    -3724314.51749  -2893102.95949  21928506.5444   21928512.4964
  21157803.334    -1246955.29349   -967342.92449  21157805.7434   21157811.3584
  22246469.926    -2949712.48749  -2285658.52649  22246471.6764   22246477.1614
  24290498.789     4419390.65849   3427031.23449  24290497.5304   24290504.4844
  22742771.645     4188929.49849   3230234.00449  22742772.5274   22742779.1624
  20933231.860      411183.54449    320082.42649  20933233.6364   20933238.4494
  20879258.135    -1259607.338 9   -974049.465 9  20879260.031    20879266.589
 94  4 26 23  2 30.0000000  0  7 24  4  5  2  7  9 12
  21914509.678    -3797854.31849  -2950406.63149  21914511.6794   21914518.7134
  21154978.041    -1261804.92449   -978914.03349  21154980.0784   21154985.3554
  22234522.523    -3012497.62449  -2334581.97949  22234523.8154   22234529.3764
  24308837.874     4515783.57849   3502142.51249  24308839.3974   24308847.8054
  22759952.289     4279213.00049   3300584.76849  22759953.0764   22759959.8374
  20937113.589      431585.44349    335980.01049  20937115.3384   20937120.4964
  20875889.116    -1277309.069 9   -987843.016 9  20875891.309    20875898.237
 94  4 26 23  3  0.0000000  0  7 24  4  5  2  7  9 12
  21900594.581    -3870980.68849  -3007388.15349  21900596.3704   21900602.6814
  21152268.167    -1276044.54849   -990009.82249  21152270.5084   21152275.9254
  22222607.463    -3075111.88549  -2383372.28549  22222608.5954   22222614.1864
  24327219.074     4612379.13949   3577411.67549  24327220.3904   24327228.5394
  22777155.361     4369628.50749   3371038.39949  22777158.2784   22777164.7844
  20941114.484      452608.93549    352361.94149  20941116.2684   20941121.4494
  20872620.207    -1294489.766 9  -1001230.569 9  20872622.148    20872628.822
 94  4 26 23  3 30.0000000  0  7 24  4  5  2  7  9 12
  21886755.959    -3943704.53749  -3064056.03949  21886757.3914   21886763.7884
  21149671.304    -1289693.75749  -1000645.54749  21149673.3334   21149678.9124
  22210722.280    -3137564.92849  -2432036.97049  22210724.0294   22210729.6634
  24345636.966     4709175.74149   3652837.50449  24345640.1074   24345648.7684
  22794384.474     4460153.43349   3441577.29249  22794384.6024   22794390.9004
  20945230.988      474240.21949    369217.48449  20945232.7314   20945237.6884
  20869448.869    -1311154.701 9  -1014216.224 9  20869450.858    20869457.612
 94  4 26 23  4  0.0000000  0  7 24  4  5  2  7  9 12
  21872991.949    -4016027.84549  -3120411.81449  21872994.3004   21873000.9404
  21147185.515    -1302754.68249  -1010822.86849  21147187.7754   21147193.2574
  22198868.253    -3199856.46549  -2480575.80849  22198870.3844   22198875.9854
  24364099.784     4806186.11549   3728429.91749  24364102.1274   24364110.7414
  22811629.600     4550785.95349   3512200.01949  22811631.3574   22811637.3614
  20949460.992      496467.93749    386537.77649  20949462.5924   20949467.8194
  20866376.859    -1327296.816 9  -1026794.485 9  20866379.169    20866385.865
 94  4 26 23  4 30.0000000  0  7 24  4  5  2  7  9 12
  21859307.020    -4087941.87149  -3176448.65449  21859309.3224   21859316.0904
  21144818.659    -1315193.55649  -1020515.47149  21144820.8834   21144825.8914
  22187045.845    -3261984.98149  -2528987.61049  22187047.9404   22187053.6474
  24382605.792     4903422.61749   3804198.51949  24382605.7764   24382613.9374
  22828903.690     4641553.11349   3582927.66649  22828904.1304   22828909.6704
  20953806.153      519300.50049    404329.38249  20953807.6154   20953812.6244
  20863409.118    -1342898.052 9  -1038951.282 9  20863410.645    20863417.043
 94  4 26 23  5  0.0000000  0  7 24  4  5  2  7  9 12
  21845703.020    -4159432.30849  -3232155.42649  21845705.3054   21845711.9984
  21142572.775    -1326995.22549  -1029711.55749  21142575.1534   21142579.9224
  22175260.323    -3323918.53049  -2577247.48749  22175262.1674   22175268.1744
  24401153.119     5000892.98749   3880149.35849  24401154.3554   24401162.9634
  22846206.045     4732478.66349   3653778.72049  22846206.5854   22846211.6454
  20958269.153      542756.26949    422606.60549  20958270.8094   20958275.8254
  20860546.979    -1357937.075 9  -1050669.996 9  20860548.582    20860555.065
 94  4 26 23  5 30.0000000  0  7 24  4  5  2  7  9 12
  21832179.314    -4230506.47949  -3287537.83849  21832180.3254   21832186.8314
  21140448.743    -1338155.92249  -1038408.18249  21140451.2274   21140456.1564
  22163516.590    -3385631.16649  -2625335.23049  22163518.4374   22163524.3054
  24419746.860     5098602.78549   3956286.75249  24419747.3964   24419756.3234
  22863539.866     4823574.05249   3724762.11549  22863541.4794   22863546.7694
  20962849.545      566830.61049    441365.82349  20962851.6304   20962857.0704
  20857791.947    -1372412.004 9  -1061949.160 9  20857794.022    20857800.523
 94  4 26 23  6  0.0000000  0  7 24  4  5  2  7  9 12
  21818737.093    -4301140.28149  -3342577.10249  21818739.0964   21818745.4844
  21138449.584    -1348661.15249  -1046594.04749  21138451.6844   21138457.2224
  22151816.822    -3447113.63549  -2673243.62649  22151818.5384   22151824.3744
  24438382.281     5196544.76949   4032605.08349  24438384.9444   24438394.3004
  22880911.312     4914851.66549   3795887.50949  22880911.7544   22880916.7164
  20967551.627      591535.37749    460616.28549  20967553.4094   20967558.3644
  20855145.607    -1386320.257 9  -1072786.758 9  20855147.550    20855154.133
 94  4 26 23  6 30.0000000  0  7 24  4  5  2  7  9 12
  21805381.008    -4371324.46549  -3397266.01249  21805382.8364   21805389.5364
  21136575.531    -1358505.83449  -1054265.19849  21136578.1344   21136583.8174
  22140163.002    -3508359.77149  -2720967.86449  22140164.0154   22140169.4244
  24457056.363     5294699.33549   4109089.06749  24457062.0764   24457071.8084
  22898314.659     5006314.29349   3867157.06649  22898316.5424   22898321.6174
  20972375.874      616886.50549    480370.41049  20972377.4994   20972382.8624
  20852606.693    -1399662.167 9  -1083183.052 9  20852608.516    20852615.199
 94  4 26 23  7  0.0000000  0  7 24  4  5  2  7  9 12
  21792085.674    -4441195.62349  -3451710.99949  21792087.3844   21792093.3724
  21134800.572    -1367839.18049  -1061537.90349  21134802.3384   21134807.4584
  22128529.896    -3569496.72549  -2768607.02849  22128530.7684   22128535.4234
  24475753.443     5392929.81549   4185632.22149  24475754.3514   24475764.5454
  22915727.673     5097813.45949   3938455.10249  22915728.7754   22915733.4584
  20977297.483      642748.75849    500522.80149  20977298.8954   20977304.4284
  20850148.302    -1412579.851 9  -1093248.773 9  20850150.441    20850156.789
 94  4 26 23  7 30.0000000  0  7 24  4  5  2  7  9 12
  21778900.493    -4510480.23049  -3505698.95249  21778902.7894   21778909.5224
  21133172.517    -1376390.42849  -1068201.17449  21133175.2174   21133180.9434
  22116963.779    -3630273.14749  -2815965.25949  22116965.2374   22116970.2914
  24494510.035     5491503.00349   4262442.43749  24494513.2684   24494521.7524
  22933193.070     5189594.78649   4009972.99649  22933193.3294   22933199.1204
  20982365.971      669382.59849    521276.43649  20982367.2384   20982372.4654
  20847820.803    -1424813.971 9  -1102781.844 9  20847822.549    20847828.621
 94  4 26 23  8  0.0000000  0  7 24  4  5  2  7  9 12
  21765805.295    -4579298.17449  -3559323.27749  21765807.4724   21765813.6754
  21131669.272    -1384292.43049  -1074358.54349  21131671.3154   21131677.2594
  22105438.222    -3690838.27149  -2863158.84149  22105439.6674   22105445.1794
  24513306.681     5590279.38549   4339410.95649  24513309.8394   24513319.3304
  22950682.621     5281511.91049   4081596.71249  22950683.8124   22950690.4774
  20987555.980      696659.16449    542530.89849  20987557.7104   20987562.9194
  20845598.108    -1436493.114 9  -1111882.471 9  20845599.933    20845606.310
 94  4 26 23  8 30.0000000  0  7 24  4  5  2  7  9 12
  21752770.868    -4647795.63849  -3612697.86549  21752772.6194   21752779.4144
  21130261.620    -1391689.86149  -1080122.73649  21130263.8104   21130269.1734
  22093926.145    -3751335.38449  -2910299.41949  22093927.4734   22093932.8184
  24532121.378     5689135.12849   4416441.31249  24532121.2364   24532131.9144
  22968173.628     5373426.29849   4153218.29849  22968175.0704   22968181.0914
  20992842.075      724438.56449    564177.18849  20992843.8414   20992849.0684
  20843456.647    -1447745.221 9  -1120650.336 9  20843458.564    20843465.016
 94  4 26 23  9  0.0000000  0  7 24  4  5  2  7  9 12
  21739758.930    -4716173.52049  -3665979.28249  21739760.9344   21739767.1114
  21128911.917    -1398781.12949  -1085648.38149  21128914.1384   21128919.6294
  22082387.048    -3811971.43149  -2957548.26449  22082388.7784   22082393.9134
  24550909.243     5787882.22449   4493386.97049  24550911.4064   24550922.2364
  22985624.690     5465135.27149   4224679.81249  22985626.3724   22985633.0534
  20998183.254      752505.98149    586047.88749  20998184.9164   20998190.0894
  20841360.212    -1458763.969 9  -1129236.363 9  20841361.984    20841368.356
 94  4 26 23  9 30.0000000  0  7 24  4  5  2  7  9 12
  21726782.637    -4784363.08249  -3719113.96049  21726784.8614   21726791.5854
  21127635.800    -1405490.52049  -1090876.45049  21127637.5204   21127642.9814
  22070833.375    -3872684.79949  -3004857.36549  22070835.2584   22070840.3974
  24569694.153     5886579.23649   4570293.62549  24569693.4954   24569700.7654
  23003051.676     5556712.05449   4296038.31949  23003053.0944   23003059.3144
  21003591.172      780922.93349    608190.94949  21003592.6234   21003597.7484
  20839322.579    -1469472.036 9  -1137580.304 9  20839324.378    20839330.728
 94  4 26 23 10  0.0000000  0  7 24  4  5  2  7  9 12
  21713860.892    -4852265.99949  -3772025.26249  21713863.2714   21713870.1754
  21126450.815    -1411714.46349  -1095726.23249  21126453.0884   21126458.3284
  22059286.604    -3933365.36849  -3052140.90049  22059288.1164   22059293.5024
  24588482.290     5985329.69849   4647241.98549  24588485.3654   24588493.0764
  23020479.071     5648287.05049   4367395.43749  23020479.3504   23020485.0764
  21009085.129      809794.27649    630688.09849  21009086.8704   21009091.5834
  20837364.887    -1479758.716 9  -1145595.889 9  20837366.673    20837373.158
 94  4 26 23 10 30.0000000  0  7 24  4  5  2  7  9 12
  21700994.077    -4919881.19549  -3824712.38249  21700995.9284   21701003.5904
  21125360.577    -1417441.91449  -1100189.15349  21125363.0094   21125368.2994
  22047750.152    -3993992.95749  -3099383.15649  22047751.0424   22047756.8174
  24607284.266     6084140.91449   4724237.65649  24607290.8374   24607294.8704
  23037907.692     5739875.09649   4438762.71949  23037908.4054   23037914.1094
  21014665.655      839120.12649    653539.40749  21014667.4574   21014672.4324
  20835488.030    -1489618.530 9  -1153278.854 9  20835490.283    20835496.837
 94  4 26 23 11  0.0000000  0  7 24  4  5  2  7  9 12
  21688183.339    -4987203.23849  -3877171.05549  21688185.5244   21688192.7514
  21124365.944    -1422671.99149  -1104264.51549  21124367.9974   21124373.1414
  22036226.284    -4054552.02449  -3146572.01349  22036227.5104   22036233.1224
  24626101.020     6183006.29749   4801275.59049  24626105.4544   24626109.2624
  23055338.334     5831473.18149   4510137.81949  23055338.8024   23055344.5704
  21020331.812      868895.97749    676741.35649  21020333.4774   21020338.8484
  20833693.156    -1499052.977 9  -1160630.367 9  20833695.087    20833701.657
 94  4 26 23 11 30.0000000  0  7 24  4  5  2  7  9 12
  21675428.350    -5054233.57649  -3929402.44049  21675430.0084   21675436.9694
  21123461.393    -1427421.52449  -1107965.42449  21123463.8344   21123469.7404
  22024714.893    -4115041.26949  -3193706.46249  22024716.6014   22024722.2864
  24644929.812     6281927.79749   4878357.22049  24644928.2844   24644936.8814
  23072765.741     5923074.89849   4581515.75949  23072769.2634   23072776.0634
  21026086.001      899135.46849    700304.58349  21026087.6934   21026092.8944
  20831977.701    -1508069.617 9  -1167656.312 9  20831979.511    20831986.085
 94  4 26 23 12  0.0000000  0  6 24  4  5  7  9 12
  21662729.567    -5120968.10549  -3981403.32649  21662731.2774   21662737.6234
  21122647.578    -1431701.86049  -1111300.71449  21122649.7884   21122654.7504
  22013216.432    -4175463.15549  -3240788.43349  22013218.2294   22013224.4534
  23090196.775     6014667.74249   4652886.78749  23090198.8444   23090206.1974
  21031930.237      929847.71949    724236.21249  21031932.0354   21031937.0384
  20830339.553    -1516674.320 9  -1174361.270 9  20830341.717    20830348.494
 94  4 26 23 12 30.0000000  0  6 24  4  5  7  9 12
  21650088.688    -5187393.24149  -4033163.12049  21650090.9604   21650097.4044
  21121922.097    -1435513.77349  -1114271.01549  21121924.4884   21121928.8184
  22001729.537    -4235823.83449  -3287822.71149  22001731.7224   22001738.1624
  23107618.989     6106221.52449   4724227.36849  23107621.0104   23107627.8544
  21037863.049      961023.62549    748529.12549  21037864.6064   21037869.8414
  20828779.594    -1524874.736 9  -1180751.195 9  20828781.258    20828788.076
 94  4 26 23 13  0.0000000  0  6 24  4  5  7  9 12
  21637506.792    -5253512.69749  -4084684.72149  21637508.5944   21637514.7834
  21121283.984    -1438864.58149  -1116882.02249  21121286.2954   21121291.5114
  21990252.317    -4296144.10049  -3334825.49749  21990253.7804   21990259.5454
  23125031.149     6197718.81149   4795523.93549  23125032.4894   23125039.1674
  21043883.338      992659.85749    773180.72549  21043884.9494   21043890.4264
  20827293.214    -1532684.769 9  -1186836.928 9  20827295.068    20827301.853
 94  4 26 23 13 30.0000000  0  6 24  4  5  7  9 12
  21624977.890    -5319345.82449  -4135983.20349  21624980.3684   21624987.0114
  21120735.010    -1441750.98449  -1119131.14449  21120737.4514   21120742.7404
  21978779.308    -4356440.58749  -3381809.74749  21978780.3424   21978785.6114
  23142428.806     6289150.73249   4866769.56349  23142431.4734   23142438.7164
  21049990.109     1024751.36749    798187.08349  21049991.7894   21049997.1514
  20825879.385    -1540113.797 9  -1192625.777 9  20825881.352    20825888.027
 94  4 26 23 14  0.0000000  0  6 24  4  5  7  9 12
  21612511.139    -5384866.10049  -4187037.90549  21612512.8164   21612519.1124
  21120282.894    -1444128.98849  -1120984.11349  21120284.7714   21120289.7384
  21967313.846    -4416688.11349  -3428755.84549  21967315.2354   21967320.1864
  23159819.980     6380540.68249   4937982.49049  23159822.2354   23159829.5064
  21056184.113     1057302.81449    823551.83849  21056185.7914   21056191.1884
  20824543.549    -1547134.781 9  -1198096.665 9  20824545.467    20824551.859
 94  4 26 23 14 30.0000000  0  6 24  4  5  7  9 12
  21600104.041    -5450067.09249  -4237843.82349  21600105.6814   21600111.9454
  21119930.075    -1445980.98649  -1122427.21149  21119932.3484   21119937.1264
  21955861.048    -4476871.55649  -3475652.01249  21955862.2974   21955867.5434
  23177208.589     6471907.19849   5009177.15449  23177208.9014   23177215.8834
  21062466.742     1090315.70049    849276.15749  21062468.3344   21062473.4174
  20823288.849    -1553730.501 9  -1203236.184 9  20823290.542    20823296.860
 94  4 26 23 15  0.0000000  0  6 24  4  5  7  9 12
  21587747.088    -5515002.90849  -4288443.10649  21587748.8234   21587755.1404
  21119668.209    -1447357.56949  -1123499.85649  21119670.3424   21119675.4864
  21944413.518    -4537029.55449  -3522528.34549  21944414.8134   21944420.4244
  23194582.896     6563217.17949   5080327.76049  23194584.7214   23194591.4094
  21068829.555     1123754.87049    875332.64549  21068831.4334   21068836.7534
  20822108.484    -1559931.580 9  -1208068.188 9  20822110.510    20822117.150
 94  4 26 23 15 30.0000000  0  6 24  4  5  7  9 12
  21575439.468    -5579678.47649  -4338839.60449  21575441.1624   21575447.0444
  21119491.081    -1448285.86349  -1124223.16849  21119493.4624   21119499.1684
  21932970.319    -4597160.42149  -3569383.54149  21932972.1944   21932977.8154
  23211945.255     6654455.54849   5151422.56549  23211947.1054   23211953.1184
  21075271.082     1157602.33949    901707.28049  21075272.4084   21075277.4884
  20821002.670    -1565743.895 9  -1212597.258 9  20821004.312    20821010.851
 94  4 26 23 16  0.0000000  0  6 24  4  5  7  9 12
  21563187.088    -5644063.44349  -4389009.65249  21563188.9794   21563194.9984
  21119400.383    -1448766.34049  -1124597.53849  21119402.1554   21119407.1724
  21921535.559    -4657251.55949  -3616207.78349  21921536.9964   21921542.8084
  23229296.417     6745625.13049   5222463.76949  23229296.0704   23229302.3904
  21081790.108     1191861.18749    928402.47549  21081791.7854   21081796.8404
  20819972.134    -1571155.996 9  -1216814.472 9  20819974.238    20819980.813
 94  4 26 23 16 30.0000000  0  6 24  4  5  7  9 12
  21550990.446    -5708158.64549  -4438953.90649  21550992.0714   21550997.9334
  21119391.076    -1448812.64049  -1124633.59649  21119393.4424   21119398.5684
  21910108.270    -4717300.54249  -3662999.17549  21910110.0054   21910116.1374
  23246625.398     6836712.73849   5293441.09649  23246629.0134   23246636.4994
  21088387.489     1226531.30349    955418.14449  21088389.1024   21088394.3094
  20819017.917    -1576172.320 9  -1220723.289 9  20819019.663    20819026.128
 94  4 26 23 17  0.0000000  0  6 24  4  5  7  9 12
  21538849.364    -5771958.37949  -4488667.93349  21538851.5084   21538857.5504
  21119464.982    -1448422.96649  -1124329.92749  21119467.2204   21119472.8844
  21898690.874    -4777299.88249  -3709751.87049  21898692.4644   21898698.1524
  23263944.915     6927711.57649   5364349.25349  23263946.1534   23263951.8954
  21095064.745     1261620.83349    982760.62749  21095066.4554   21095072.0174
  20818138.086    -1580796.389 9  -1224326.452 9  20818139.788    20818146.276
 94  4 26 23 17 30.0000000  0  7 24  4  5  7  9 12 20
  21526766.676    -5835454.89449  -4538145.68449  21526768.2774   21526774.2374
  21119625.569    -1447581.81549  -1123674.45749  21119627.4654   21119632.5844
  21887285.074    -4837242.70849  -3756460.53649  21887286.2664   21887291.1544
  23281245.910     7018626.63449   5435192.12549  23281246.9384   23281252.2904
  21101821.357     1297126.40349   1010427.29749  21101823.0264   21101828.3414
  20817332.860    -1585027.801 9  -1227623.654 9  20817334.578    20817341.303
  24814691.870    -3206255.78559  -2485848.67459  24814693.1904   24814699.8774
 94  4 26 23 18  0.0000000  0  7 24  4  5  7  9 12 20
  21514737.509    -5898667.71549  -4587402.39349  21514739.2444   21514745.0064
  21119873.674    -1446277.06649  -1122657.74849  21119875.9534   21119880.3954
  21875886.460    -4897136.52149  -3803131.01949  21875888.3344   21875893.5874
  23298528.070     7109454.61549   5505967.15349  23298530.1544   23298537.0384
  21108657.979     1333051.41349   1038420.81249  21108659.3944   21108664.8634
  20816602.487    -1588866.203 9  -1230614.612 9  20816604.102    20816610.806
  24797730.539    -3295391.41149  -2555304.94249  24797731.8554   24797737.0774
 94  4 26 23 18 30.0000000  0  7 24  4  5  7  9 12 20
  21502760.323    -5961608.11849  -4636446.82849  21502761.9864   21502768.0854
  21120212.112    -1444502.60049  -1121275.02849  21120213.5204   21120218.5484
  21864498.668    -4956980.70949  -3849762.83449  21864500.2374   21864505.7264
  23315797.592     7200208.55349   5576684.47949  23315800.3564   23315805.9184
  21115576.060     1369410.79349   1066752.78549  21115578.0234   21115583.7814
  20815948.426    -1592305.826 9  -1233294.832 9  20815949.920    20815956.027
  24780739.862    -3384674.50049  -2624876.12849  24780741.1324   24780747.2924
 94  4 26 23 19  0.0000000  0  7 24  4  5  7  9 12 20
  21490832.077    -6024288.04349  -4685288.29149  21490834.0034   21490840.3954
  21120636.748    -1442268.47449  -1119534.12749  21120638.7784   21120643.9694
  21853116.727    -5016791.84849  -3896368.89049  21853118.6254   21853124.1384
  23333057.278     7290896.70349   5647350.54549  23333057.6614   23333063.8984
  21122577.472     1406201.12249   1095420.56349  21122579.2714   21122584.4884
  20815368.231    -1595349.809 9  -1235666.755 9  20815370.439    20815376.955
  24763721.016    -3474108.37849  -2694564.80949  24763722.3094   24763728.3974
 94  4 26 23 19 30.0000000  0  7 24  4  5  7  9 12 20
  21478954.177    -6086707.97549  -4733927.15449  21478956.1624   21478962.6064
  21121149.017    -1439576.10549  -1117436.15149  21121151.1094   21121155.6694
  21841742.042    -5076570.28249  -3942949.47649  21841743.6914   21841748.8664
  23350300.562     7381521.80149   5717967.48049  23350302.0514   23350309.6794
  21129659.101     1443413.54349   1124417.25449  21129660.7484   21129665.7934
  20814864.631    -1597996.012 9  -1237728.728 9  20814866.720    20814873.663
  24746676.369    -3563691.33449  -2764369.64249  24746675.7334   24746681.8664
 94  4 26 23 20  0.0000000  0  7 24  4  5  7  9 12 20
  21467126.667    -6148861.39949  -4782358.35549  21467128.7874   21467134.7984
  21121747.224    -1436431.97149  -1114986.16749  21121749.5214   21121754.1304
  21830373.861    -5136313.31449  -3989502.46549  21830374.7854   21830380.4134
  23367535.735     7472083.15449   5788534.74149  23367536.5954   23367541.8614
  21136821.683     1481051.86149   1153745.80849  21136823.2044   21136828.1484
  20814437.026    -1600246.217 9  -1239482.130 9  20814438.837    20814445.230
  24729597.944    -3653425.12749  -2834292.00349  24729599.3134   24729606.2244
 94  4 26 23 20 30.0000000  0  7 24  4  5  7  9 12 20
  21455355.503    -6210718.71449  -4830558.83049  21455357.7674   21455363.7864
  21122430.348    -1432843.44949  -1112189.89449  21122432.0494   21122437.3034
  21819011.773    -5196018.87749  -4036026.26249  21819013.1424   21819018.6294
  23384760.849     7562590.46749   5859059.89549  23384760.0544   23384764.8884
  21144064.410     1519112.97349   1183403.80349  21144066.0084   21144071.0604
  20814083.803    -1602101.505 9  -1240927.806 9  20814085.427    20814092.075
  24712488.672    -3743310.83249  -2904332.74949  24712493.2404   24712500.8064
 94  4 26 23 21  0.0000000  0  7 24  4  5  7  9 12 20
  21443646.928    -6272252.32849  -4878507.06649  21443648.4074   21443654.1364
  21123197.707    -1428813.19149  -1109049.41849  21123199.4354   21123203.9544
  21807659.278    -5255675.57249  -4082511.98349  21807660.4064   21807666.1814
  23401967.253     7653036.00449   5929536.91149  23401970.6464   23401977.6874
  21151386.912     1557593.18049   1213388.37049  21151388.6024   21151393.6254
  20813806.760    -1603558.612 9  -1242063.211 9  20813808.412    20813814.888
  24695357.740    -3833345.09649  -2974489.23549  24695360.0714   24695368.5124
 94  4 26 23 21 30.0000000  0  7 24  4  5  7  9 12 20
  21432002.791    -6333440.70849  -4926186.28849  21432004.6464   21432010.6984
  21124050.973    -1424328.98349  -1105555.21249  21124052.6554   21124057.3764
  21796319.602    -5315266.43349  -4128946.40249  21796320.8144   21796326.2594
  23419168.092     7743409.89749   5999958.08949  23419168.7944   23419176.3294
  21158789.338     1596494.32349   1243700.95249  21158790.8854   21158796.3454
  20813605.401    -1604615.229 9  -1242886.542 9  20813607.284    20813613.977
  24678199.702    -3923525.75349  -3044759.81749  24678200.1544   24678208.6334
 94  4 26 23 22  0.0000000  0  7 24  4  5  7  9 12 20
  21420427.778    -6394268.15249  -4973584.26049  21420429.1934   21420435.5884
  21124990.021    -1419392.48949  -1101708.57849  21124991.9874   21124996.9804
  21784990.096    -5374802.51249  -4175338.13749  21784991.5444   21784997.1174
  23436351.223     7833712.55249   6070323.76649  23436352.6814   23436359.5284
  21166271.158     1635814.64049   1274340.14349  21166272.9414   21166278.4974
  20813480.836    -1605270.063 9  -1243396.802 9  20813482.542    20813489.394
  24661007.712    -4013851.69149  -3115143.62049  24661011.1304   24661020.1424
 94  4 26 23 22 30.0000000  0  7 24  4  5  7  9 12 20
  21408921.042    -6454731.53349  -5020698.54649  21408923.1634   21408929.6204
  21126015.712    -1414005.66049  -1097511.02649  21126017.1554   21126022.0394
  21773669.521    -5434290.31949  -4221692.25449  21773671.1344   21773677.0124
  23453520.898     7923936.35349   6140627.99849  23453521.4894   23453527.9304
  21173832.461     1675545.73749   1305299.42549  21173833.9624   21173839.3434
  20813432.794    -1605523.897 9  -1243594.589 9  20813434.533    20813441.100
  24643793.106    -4104323.64049  -3185641.17849  24643795.1344   24643804.7164
 94  4 26 23 23  0.0000000  0  7 24  4  5  7  9 12 20
  21397481.857    -6514844.97449  -5067540.14749  21397483.9554   21397490.5094
  21127126.969    -1408158.66449  -1092954.90149  21127129.4074   21127134.0094
  21762359.820    -5493723.42749  -4268003.74349  21762361.1934   21762367.0794
  23470671.301     8014072.97549   6210864.29849  23470673.5364   23470680.2794
  21181468.942     1715674.25649   1336568.39849  21181470.3064   21181475.5444
  20813461.166    -1605374.039 9  -1243477.809 9  20813462.841    20813469.461
  24626551.231    -4194938.85249  -3256250.36249  24626552.3944   24626561.6114
 94  4 26 23 23 30.0000000  0  7 24  4  5  7  9 12 20
  21386105.705    -6574626.46749  -5114123.08949  21386108.0704   21386114.2944
  21128329.114    -1401847.12449  -1088036.80349  21128330.9084   21128335.2964
  21751060.804    -5553102.02049  -4314272.75949  21751062.1654   21751067.8684
  23487809.473     8104127.22049   6281036.41349  23487810.0934   23487817.5694
  21189178.998     1756191.33349   1368140.13749  21189180.5014   21189185.5474
  20813566.528    -1604819.286 9  -1243045.535 9  20813568.666    20813574.830
  24609280.304    -4285695.81949  -3326970.02149  24609281.5884   24609290.2804
 94  4 26 23 24  0.0000000  0  7 24  4  5  7  9 12 20
  21374791.715    -6634083.15249  -5160452.92849  21374793.7494   21374800.2024
  21129617.713    -1395074.38949  -1082759.33249  21129619.7324   21129624.3944
  21739768.701    -5612443.41949  -4360512.79349  21739770.5684   21739775.3844
  23504931.370     8194103.59449   6351147.83949  23504931.6114   23504939.3084
  21196962.450     1797094.84749   1400012.99549  21196964.1774   21196969.0494
  20813749.598    -1603857.269 9  -1242295.906 9  20813751.592    20813757.971
  24591981.681    -4376592.10049  -3397798.24049  24591984.1394   24591991.4914
 94  4 26 23 24 30.0000000  0  7 24  4  5  7  9 12 20
  21363535.151    -6693237.42349  -5206547.12349  21363537.0254   21363543.2684
  21130993.627    -1387843.36849  -1077124.74849  21130995.4594   21131000.1814
  21728485.573    -5671736.82949  -4406715.42449  21728487.0104   21728491.9524
  23522039.336     8283998.33149   6421195.64649  23522038.3314   23522046.5084
  21204820.299     1838385.60649   1432187.61349  21204821.8274   21204826.4354
  20814010.079    -1602487.016 9  -1241228.177 9  20814011.989    20814018.824
  24574659.169    -4467627.04249  -3468734.47349  24574661.2164   24574668.9654
 94  4 26 23 25  0.0000000  0  7 24  4  5  7  9 12 20
  21352334.381    -6752096.86049  -5252411.58149  21352336.3364   21352342.7734
  21132454.775    -1380164.75049  -1071141.38849  21132456.6534   21132461.3644
  21717212.158    -5730978.11549  -4452877.44849  21717213.5394   21717218.7604
  23539127.826     8373807.52949   6491176.79749  23539127.4104   23539137.4114
  21212751.768     1880065.04849   1464665.09949  21212753.2184   21212758.1084
  20814348.225    -1600711.195 9  -1239844.415 9  20814350.328    20814356.581
  24557312.375    -4558802.65449  -3539780.31749  24557310.7184   24557318.8994
 94  4 26 23 25 30.0000000  0  7 24  4  5  7  9 12 20
  21341190.493    -6810658.75549  -5298044.18449  21341192.2504   21341198.5064
  21133997.788    -1372054.48349  -1064821.68449  21133999.6504   21134005.0694
  21705946.527    -5790175.37849  -4499005.16749  21705948.3294   21705953.9394
  23556188.819     8463527.35149   6561088.31149  23556199.4784   23556208.5764
  21220758.712     1922144.97849   1497454.64049  21220760.3364   21220765.9724
  20814763.169    -1598532.897 9  -1238147.034 9  20814764.739    20814771.265
  24539935.350    -4650121.75449  -3610937.95849  24539933.8394   24539941.1654
 94  4 26 23 26  0.0000000  0  7 24  4  5  7  9 12 20
  21330102.549    -6868924.72349  -5343446.20549  21330104.9424   21330110.6454
  21135622.496    -1363516.42549  -1058168.63049  21135624.5854   21135629.6724
  21694691.792    -5849324.49049  -4545095.36849  21694692.9844   21694698.2414
  23573252.633     8553144.77349   6630920.03249  23573255.6194   23573261.5444
  21228844.500     1964636.64849   1530565.01849  21228846.0734   21228851.7374
  20815254.122    -1595951.108 9  -1236135.251 9  20815256.125    20815262.551
  24522528.264    -4741583.10649  -3682206.46749  24522529.6104   24522535.7624
 94  4 26 23 26 30.0000000  0  7 24  4  5  7  9 12 20
  21319069.928    -6926900.89649  -5388622.40649  21319072.1324   21319078.2114
  21137326.858    -1354563.06049  -1051191.97449  21137328.5414   21137333.1764
  21683450.103    -5908399.09049  -4591127.50049  21683451.5874   21683457.2304
  23590286.282     8642653.10749   6700666.74849  23590288.3674   23590294.8034
  21237009.709     2007543.86949   1563999.20949  21237011.2354   21237016.4254
  20815822.769    -1592965.007 9  -1233808.413 9  20815824.554    20815830.759
  24505096.644    -4833186.04349  -3753585.31449  24505098.1034   24505105.2524
 94  4 26 23 27  0.0000000  0  7 24  4  5  7  9 12 20
  21308096.636    -6984568.69749  -5433558.31049  21308098.5084   21308104.7964
  21139109.133    -1345189.98649  -1043888.26749  21139111.6074   21139117.2164
  21672224.369    -5967390.44249  -4637094.76949  21672225.7164   21672231.4774
  23607298.811     8732042.28149   6770320.61149  23607298.7494   23607305.3224
  21245254.805     2050871.97749   1597761.37049  21245256.5434   21245261.5394
  20816467.999    -1589571.973 9  -1231164.491 9  20816470.046    20816476.441
  24487639.624    -4924927.41349  -3825072.03549  24487640.7694   24487647.7624
 94  4 26 23 27 30.0000000  0  7 24  4  5  7  9 12 20
  21297177.240    -7041948.85749  -5478270.07249  21297179.4644   21297185.8354
  21140973.101    -1335397.61749  -1036257.83349  21140975.2984   21140980.5304
  21661013.021    -6026308.22649  -4683004.70849  21661014.2134   21661019.4614
  23624288.590     8821309.37149   6839879.35149  23624286.5634   23624292.0784
  21253578.790     2094617.50449   1631848.77649  21253580.6614   21253586.4154
  20817190.475    -1585776.485 9  -1228206.967 9  20817192.417    20817198.755
  24470153.267    -5016811.36049  -3896669.84649  24470155.0754   24470163.9654
 94  4 26 23 28  0.0000000  0  7 24  4  5  7  9 12 20
  21286311.475    -7099049.28749  -5522763.87949  21286313.6294   21286319.2454
  21142917.392    -1325181.56349  -1028297.26549  21142919.2414   21142924.3704
  21649815.912    -6085147.55949  -4728853.51549  21649817.4704   21649822.3584
  23641252.958     8910459.14249   6909346.67049  23641252.1864   23641256.6304
  21261982.085     2138776.75049   1666258.55549  21261983.8864   21261989.0344
  20817989.437    -1581577.191 9  -1224934.789 9  20817991.483    20817998.050
  24452640.566    -5108836.24749  -3968377.46449  24452643.4374   24452652.6074
 94  4 26 23 28 30.0000000  0  7 24  4  5  7  9 12 20
  21275503.249    -7155846.94649  -5567021.75949  21275505.1104   21275511.0494
  21144942.685    -1314535.08049  -1020001.28949  21144945.1764   21144950.3674
  21638634.679    -6143904.90949  -4774638.44449  21638636.3214   21638640.8854
  23658194.625     8999508.14649   6978735.46449  23658196.6384   23658202.9834
  21270462.086     2183335.41349   1700979.58349  21270463.5944   21270468.4334
  20818865.552    -1576974.340 9  -1221348.153 9  20818867.217    20818873.879
  24435103.776    -5201001.93849  -4040194.81449  24435105.2854   24435112.7184
 94  4 26 23 29  0.0000000  0  7 24  4  5  7  9 12 20
  21264755.718    -7212325.00949  -5611030.60349  21264757.6594   21264763.6884
  21147054.183    -1303444.97049  -1011359.62949  21147055.5594   21147060.9254
  21627466.692    -6202589.97549  -4820367.05549  21627468.4564   21627473.8864
  23675124.960     9088475.19749   7048060.40649  23675126.6344   23675134.1334
  21279015.946     2228287.58349   1736007.25149  21279017.4864   21279021.9154
  20819818.225    -1571963.757 9  -1217443.801 9  20819820.495    20819827.175
  24417540.349    -5293303.58949  -4112118.12049  24417541.2604   24417547.3684
 94  4 26 23 29 30.0000000  0  7 24  4  5  7  9 12 20
  21254069.873    -7268477.57549  -5654785.80849  21254072.0644   21254078.3594
  21149249.095    -1291906.31849  -1002368.45649  21149251.2934   21149256.2984
  21616311.711    -6261211.00249  -4866045.76349  21616313.3344   21616319.1114
  23692039.660     9177365.19749   7117325.30849  23692041.9764   23692049.5904
  21287642.253     2273620.73149   1771331.77049  21287643.8924   21287649.3584
  20820849.967    -1566543.712 9  -1213220.383 9  20820851.936    20820858.569
  24399951.447    -5385739.09649  -4184145.72449  24399950.4334   24399956.8104
 94  4 26 23 30  0.0000000  0  7 24  4  5  7  9 12 20
  21243452.497    -7324269.65849  -5698260.11949  21243454.8344   21243461.2364
  21151532.436    -1279910.85349   -993021.33649  21151533.8434   21151538.9714
  21605169.628    -6319763.55249  -4911671.10349  21605171.2424   21605176.9634
  23708939.884     9266164.83549   7186519.79349  23708940.7774   23708947.1574
  21296338.944     2319323.42049   1806944.22949  21296340.6304   21296346.0974
  20821959.519    -1560713.665 9  -1208677.490 9  20821961.389    20821968.054
  24382334.595    -5478307.48749  -4256276.86649  24382335.2644   24382340.6914
 94  4 26 23 30 30.0000000  0  7 24  4  5  7  9 12 20
  21232909.201    -7379680.05449  -5741437.01049  21232911.1684   21232917.3664
  21153903.075    -1267446.55849   -983308.88149  21153905.8044   21153911.1994
  21594039.817    -6378250.91849  -4957245.65649  21594041.6574   21594046.9184
  23725819.071     9354866.83649   7255638.19049  23725819.7724   23725826.0794
  21305106.566     2365395.37449   1842844.44049  21305108.0174   21305113.0884
  20823148.140    -1554470.341 9  -1203812.567 9  20823149.782    20823155.965
  24364693.084    -5571005.14649  -4328508.74049  24364694.5264   24364701.1854
 94  4 26 23 31  0.0000000  0  7 24  4  5  7  9 12 20
  21222433.654    -7434728.65649  -5784331.97949  21222435.6274   21222442.0194
  21156363.475    -1254521.41049   -973237.31949  21156365.4944   21156370.4924
  21582919.808    -6436688.73249  -5002781.60549  21582921.3124   21582926.4974
  23742675.728     9443446.08649   7324660.94549  23742676.0844   23742681.8034
  21313943.990     2411834.32849   1879030.63349  21313945.3124   21313950.0814
  20824413.723    -1547817.883 9  -1198628.823 9  20824415.788    20824421.871
  24347027.223    -5663835.70949  -4400844.18049  24347028.9904   24347036.4674
 94  4 26 23 31 30.0000000  0  7 24  4  5  7  9 12 20
  21212025.639    -7489421.96149  -5826950.09549  21212027.7424   21212034.0074
  21158911.131    -1241133.59149   -962805.24349  21158913.2324   21158917.9214
  21571808.351    -6495080.75749  -5048281.87349  21571809.6844   21571815.1544
  23759506.141     9531885.03349   7393574.37349  23759504.9104   23759512.2154
  21322850.408     2458638.72249   1915501.57349  21322851.8024   21322857.2294
  20825756.840    -1540758.415 9  -1193127.944 9  20825759.017    20825765.574
  24329337.196    -5756800.61449  -4473284.32449  24329338.9494   24329345.5364
 94  4 26 23 32  0.0000000  0  7 24  4  5  7  9 12 20
  21201682.802    -7543772.56049  -5869301.17149  21201684.9094   21201691.4514
  21161545.187    -1227290.45349   -952018.36749  21161547.3624   21161552.3414
  21560707.440    -6553415.95149  -5093737.84849  21560708.8094   21560714.0914
  23776312.948     9620201.01149   7462391.98149  23776311.9414   23776318.7674
  21331828.268     2505818.10649   1952264.70849  21331829.7374   21331834.6174
  20827178.630    -1533289.414 9  -1187307.944 9  20827180.344    20827186.807
  24311622.138    -5849896.83249  -4545826.78949  24311623.0104   24311630.0974
 94  4 26 23 32 30.0000000  0  7 24  4  5  7  9 12 20
  21191401.700    -7597799.56749  -5911400.09749  21191403.8364   21191410.1024
  21164261.518    -1213015.09449   -940894.69349  21164263.7584   21164268.9414
  21549618.821    -6611686.31949  -5139143.30949  21549620.3484   21549625.2854
  23793095.037     9708414.80249   7531129.97249  23793097.1214   23793104.7794
  21340876.704     2553367.48649   1989316.16749  21340878.4604   21340882.8934
  20828677.785    -1525410.495 9  -1181168.528 9  20828679.572    20828685.918
  24293880.874    -5943123.22649  -4618470.68849  24293883.1084   24293889.4984
 94  4 26 23 33  0.0000000  0  7 24  4  5  7  9 12 20
  21181180.182    -7651513.94649  -5953255.41949  21181182.5014   21181188.6634
  21167057.907    -1198324.03649   -929447.10549  21167059.5454   21167064.2714
  21538543.854    -6669883.36749  -5184491.64549  21538545.6684   21538550.2914
  23809864.106     9796532.59149   7599793.14349  23809864.7574   23809872.8464
  21349994.094     2601281.57949   2026651.81249  21349995.7884   21350000.7224
  20830254.371    -1517122.863 9  -1174710.633 9  20830256.540    20830263.105
  24276115.613    -6036480.42749  -4691216.50149  24276117.9884   24276124.8724
 94  4 26 23 33 30.0000000  0  7 24  4  5  7  9 12 20
  21171020.010    -7704909.38849  -5994862.21649  21171022.0474   21171027.8434
  21169931.889    -1183220.69349   -917678.24949  21169933.7074   21169938.6064
  21527486.773    -6727992.39149  -5229771.38849  21527488.0974   21527492.9954
  23826617.351     9884569.25549   7668393.09649  23826617.9654   23826626.4314
  21359183.213     2649567.61749   2064277.27749  21359184.5384   21359189.9664
  20831909.692    -1508424.399 9  -1167932.611 9  20831911.746    20831918.528
  24258325.375    -6129965.73949  -4764062.13749  24258327.1824   24258334.4014
 94  4 26 23 34  0.0000000  0  7 24  4  5  7  9 12 20
  21160919.995    -7757983.21749  -6036218.41149  21160922.2354   21160928.0954
  21172881.597    -1167716.43149   -905596.99349  21172883.9194   21172888.8364
  21516445.199    -6786015.09249  -5274983.86349  21516446.7914   21516451.9724
  23843349.661     9972519.92249   7736926.04649  23843353.9954   23843362.3694
  21368439.623     2698212.62049   2102182.46149  21368441.3064   21368446.4884
  20833641.990    -1499321.990 9  -1160839.827 9  20833643.893    20833650.572
  24240509.648    -6223585.37949  -4837012.42849  24240511.9644   24240519.0314
 94  4 26 23 34 30.0000000  0  7 24  4  5  7  9 12 20
  21150884.313    -7810722.94449  -6077314.26449  21150885.9264   21150892.2604
  21175909.077    -1151809.15449   -893201.69649  21175911.0744   21175915.5254
  21505418.015    -6843963.03749  -5320138.09149  21505419.5084   21505424.7974
  23860069.652    10060359.47749   7805372.41049  23860070.6234   23860078.3074
  21377763.169     2747206.87949   2140359.80049  21377764.5574   21377770.0154
  20835450.042    -1489820.509 9  -1153436.071 9  20835452.082    20835458.396
  24222668.167    -6317343.35649  -4910070.52049  24222670.3294   24222678.4684
 94  4 26 23 35  0.0000000  0  7 24  4  5  7  9 12 20
  21140912.050    -7863122.45049  -6118144.99749  21140914.5644   21140920.8104
  21179015.854    -1135483.09549   -880480.08349  21179017.7574   21179022.3614
  21494403.603    -6901844.37049  -5365240.41749  21494405.1464   21494410.4614
  23876757.923    10148069.70749   7873718.01149  23876760.5584   23876768.0404
  21387153.693     2796553.47549   2178811.68349  21387155.2754   21387160.3134
  20837334.892    -1479918.168 9  -1145719.959 9  20837336.650    20837342.961
  24204801.284    -6411237.13049  -4983234.43049  24204803.3084   24204810.5074
 94  4 26 23 35 30.0000000  0  7 24  4  5  7  9 12 20
  21131007.610    -7915179.18949  -6158708.65249  21131009.1224   21131014.9764
  21182203.325    -1118732.23749   -867427.45149  21182205.1664   21182210.2764
  21483401.649    -6959662.92449  -5410293.82149  21483402.8334   21483408.3664
  23893420.656    10235641.02649   7941955.35949  23893424.3024   23893431.7004
  21396610.703     2846250.92049   2217536.95049  21396612.2204   21396617.3054
  20839295.860    -1469613.498 9  -1137690.351 9  20839297.752    20839304.100
  24186909.665    -6505264.27349  -5056502.28149  24186909.5314   24186916.8044
 94  4 26 23 36  0.0000000  0  7 24  4  5  7  9 12 20
  21121165.050    -7966896.53149  -6199007.84449  21121167.4244   21121173.4984
  21185469.532    -1101566.72949   -854051.71649  21185471.8094   21185476.3254
  21472409.559    -7017424.88449  -5455303.11949  21472410.9414   21472416.0704
  23910061.387    10323063.06249   8010076.38749  23910061.0854   23910067.5484
  21406134.108     2896295.79849   2256532.93949  21406135.5924   21406140.4164
  20841332.452    -1458911.342 9  -1129351.008 9  20841334.099    20841340.274
  24168990.289    -6599428.96249  -5129877.29149  24168992.4824   24168998.0974
 94  4 26 23 36 30.0000000  0  7 24  4  5  7  9 12 20
  21111384.742    -8018291.68949  -6239055.97949  21111386.9474   21111393.2984
  21188813.504    -1083999.30649   -840362.81149  21188814.8564   21188819.4974
  21461429.720    -7075125.10949  -5500264.31949  21461430.8744   21461435.5724
  23926667.431    10410333.66949   8078079.41349  23926667.5634   23926674.8274
  21415725.219     2946695.28349   2295805.25949  21415726.4874   21415731.5844
  20843444.304    -1447811.612 9  -1120701.867 9  20843446.038    20843452.463
  24151047.923    -6693730.38549  -5203358.84049  24151047.9224   24151053.7604
 94  4 26 23 37  0.0000000  0  7 24  4  5  7  9 12 20
  21101665.915    -8069367.02049  -6278854.89549  21101667.6204   21101673.9574
  21192233.413    -1066024.70749   -826356.61549  21192235.2044   21192240.3474
  21450463.507    -7132753.70149  -5545169.70749  21450464.7744   21450469.0804
  23943244.235    10497458.40749   8145968.76949  23943247.8074   23943254.4864
  21425384.668     2997458.35949   2335360.89149  21425386.1564   21425391.4424
  20845633.274    -1436309.782 9  -1111739.403 9  20845635.028    20845641.701
  24133077.926    -6788162.91549  -5276942.55449  24133077.2684   24133084.4284
 94  4 26 23 37 30.0000000  0  7 24  4  5  7  9 12 20
  21092008.753    -8120115.85549  -6318399.38949  21092010.4714   21092016.5254
  21195730.328    -1047649.34949   -812038.13349  21195732.1574   21195736.7464
  21439513.730    -7190296.82849  -5590008.48749  21439514.6424   21439519.4744
  23959800.202    10584446.57249   8213751.72549  23959800.9854   23959807.3184
  21435115.259     3048593.11149   2375206.14549  21435116.6914   21435122.1174
  20847898.564    -1424404.610 9  -1102462.642 9  20847900.332    20847906.964
  24115082.663    -6882724.36749  -5350626.71949  24115084.1924   24115089.5324
 94  4 26 23 38  0.0000000  0  7 24  4  5  7  9 12 20
  21082413.897    -8170538.04849  -6357689.37449  21082415.4794   21082421.3744
  21199302.736    -1028875.39849   -797409.07549  21199304.7224   21199309.1254
  21428580.752    -7247748.38249  -5634775.91049  21428581.8864   21428587.0754
  23976328.264    10671303.58149   8281432.46649  23976328.4374   23976334.9894
  21444915.162     3100092.37749   2415335.42549  21444916.8174   21444922.2084
  20850240.869    -1412096.731 9  -1092872.086 9  20850242.565    20850249.113
  24097063.617    -6977414.68549  -5424411.31049  24097064.8884   24097069.9514
 94  4 26 23 38 30.0000000  0  7 24  4  5  7  9 12 20
  21072880.965    -8220631.16449  -6396722.93849  21072883.1904   21072888.9934
  21202951.169    -1009704.62849   -782470.79949  21202952.6774   21202957.5604
  21417663.444    -7305121.07949  -5679481.89349  21417664.3484   21417669.2614
  23992827.497    10758022.59949   8349005.68349  23992830.6644   23992837.6234
  21454781.018     3151938.87749   2455735.27949  21454782.5994   21454788.3514
  20852658.978    -1399389.527 9  -1082970.365 9  20852660.797    20852667.386
  24079021.296    -7072236.13849  -5498298.09649  24079021.1244   24079025.7024
 94  4 26 23 39  0.0000000  0  7 24  4  5  7  9 12 20
  21063416.600    -8270367.03849  -6435478.11249  21063418.6724   21063424.7434
  21206675.999     -990127.90049   -767216.18649  21206678.3394   21206682.7344
  21406760.166    -7362415.08349  -5724126.56549  21406761.4534   21406766.1844
  24009307.676    10844600.25349   8416468.73649  24009307.1554   24009312.4704
  21464714.008     3204135.04449   2496407.60449  21464715.4054   21464720.7724
  20855153.920    -1386278.470 9  -1072753.958 9  20855155.664    20855162.384
  24060952.620    -7167183.02349  -5572282.62749  24060952.8584   24060957.7714
 94  4 26 23 39 30.0000000  0  7 24  4  5  7  9 12 20
  21054020.554    -8319743.80349  -6473953.46849  21054022.5714   21054028.7614
  21210478.311     -970151.72149   -751650.32949  21210479.7614   21210484.0554
  21395872.740    -7419629.05049  -5768708.86849  21395874.1224   21395878.5144
  24025753.843    10931046.32949   8483829.26349  24025756.2364   24025763.4534
  21474710.835     3256669.08249   2537343.20049  21474712.2844   21474717.5194
  20857725.716    -1372762.898 9  -1062222.350 9  20857727.549    20857734.347
  24042859.591    -7262253.78749  -5646363.67749  24042860.3004   24042866.3064
 94  4 26 23 40  0.0000000  0  7 24  4  5  7  9 12 20
  21044692.739    -8368764.69449  -6512151.53049  21044694.3334   21044700.1304
  21214356.626     -949767.13349   -735766.22649  21214358.4354   21214363.3384
  21384999.865    -7476767.75949  -5813232.52149  21385000.8044   21385005.4534
  24042174.530    11017352.58849   8551080.82849  24042179.0134   24042186.3914
  21484770.383     3309530.17249   2578533.64649  21484771.3764   21484776.8934
  20860374.113    -1358845.243 9  -1051377.421 9  20860375.962    20860382.579
  24024743.783    -7357449.80849  -5720542.34049  24024745.1084   24024750.7844
 94  4 26 23 40 30.0000000  0  7 24  4  5  7  9 12 20
  21035432.550    -8417423.90949  -6550067.75949  21035434.5834   21035440.1374
  21218314.020     -928970.23749   -719560.83449  21218316.2294   21218321.1234
  21374143.132    -7533816.94449  -5857686.41049  21374144.5484   21374149.4394
  24058575.061    11103512.83749   8618218.63549  24058575.7744   24058582.2284
  21494893.600     3362731.12949   2619988.92249  21494895.2334   21494900.7504
  20863099.342    -1344523.443 9  -1040217.573 9  20863101.197    20863107.851
  24006605.770    -7452768.24649  -5794816.39449  24006606.4144   24006612.3344
 94  4 26 23 41  0.0000000  0  7 24  4  5  7  9 12 20
  21026240.674    -8465728.23949  -6587707.45349  21026242.4724   21026248.2724
  21222350.853     -907754.30349   -703028.92649  21222352.9814   21222358.1734
  21363308.223    -7590757.01349  -5902055.27149  21363309.5024   21363314.4364
  24074942.170    11189530.95949   8685245.70149  24074944.0014   24074951.7674
  21505081.435     3416266.94449   2661705.13349  21505082.7344   21505088.2964
  20865900.899    -1329800.304 9  -1028745.000 9  20865903.003    20865909.799
  23988443.792    -7548210.29849  -5869186.77749  23988444.9294   23988450.2914
 94  4 26 23 41 30.0000000  0  7 24  4  5  7  9 12 20
  21017114.263    -8513687.18449  -6625078.02449  21017116.3134   21017122.0894
  21226470.743     -886108.61849   -686162.14049  21226472.1194   21226476.8564
  21352497.387    -7647568.41649  -5946323.88449  21352498.5654   21352503.9864
  24091289.643    11275430.98449   8752180.72749  24091290.6054   24091298.0074
  21515331.449     3470131.24349   2703677.30349  21515333.2334   21515338.4904
  20868780.590    -1314668.562 9  -1016954.032 9  20868782.510    20868789.186
  23970259.226    -7643767.36849  -5943646.78149  23970260.4124   23970265.4824
 94  4 26 23 42  0.0000000  0  7 24  4  5  7  9 12 20
  21008054.058    -8561298.65649  -6662177.83449  21008056.0624   21008061.9824
  21230669.026     -864047.90449   -668971.96749  21230670.8464   21230674.8434
  21341708.891    -7704258.78649  -5990498.18949  21341710.2444   21341715.8784
  24107611.699    11361192.87049   8819008.10449  24107610.7474   24107618.1424
  21525645.068     3524328.08049   2745908.58949  21525646.4664   21525651.4274
  20871736.817    -1299133.280 9  -1004848.623 9  20871738.607    20871745.269
  23952053.665    -7739443.53049  -6018199.58949  23952054.2414   23952059.5094
 94  4 26 23 42 30.0000000  0  7 24  4  5  7  9 12 20
  20999059.185    -8608566.65449  -6699010.00849  20999061.2184   20999066.9334
  21234942.095     -841590.53449   -651472.71449  21234943.7604   21234948.6604
  21330943.031    -7760832.54349  -6034581.62649  21330944.5174   21330950.3004
  24123907.138    11446825.98349   8885735.16249  24123906.4944   24123911.9824
  21536021.989     3578859.88849   2788400.89349  21536023.5944   21536028.5564
  20874771.066    -1283190.881 9   -992425.979 9  20874772.769    20874779.065
  23933825.987    -7835234.06149  -6092841.51449  23933826.6774   23933831.2584
 94  4 26 23 43  0.0000000  0  7 24  4  5  7  9 12 20
  20990129.679    -8655492.94249  -6735575.90949  20990131.3764   20990137.2614
  21239288.249     -818748.30749   -633673.56149  21239290.6494   21239295.4464
  21320194.406    -7817318.96549  -6078596.99749  21320195.8334   21320201.1274
  24140177.404    11532331.45849   8952362.76149  24140178.5284   24140182.7154
  21546458.068     3633702.50949   2831135.38349  21546459.5664   21546464.5344
  20877881.345    -1266842.965 9   -979687.344 9  20877883.437    20877890.355
  23915575.538    -7931139.04749  -6167572.62849  23915576.2834   23915581.8174
 94  4 26 23 43 30.0000000  0  7 24  4  5  7  9 12 20
  20981265.780    -8702072.39449  -6771871.54349  20981267.9334   20981273.5044
  21243708.529     -795524.18849   -615576.84149  21243710.1464   21243714.2074
  21309458.705    -7873737.87449  -6122559.76049  21309459.8564   21309465.1884
  24156424.967    11617699.80749   9018883.49249  24156422.7974   24156429.0844
  21556954.472     3688861.31949   2874116.26049  21556955.9584   21556961.1944
  20881069.757    -1250087.099 9   -966630.831 9  20881071.760    20881078.643
  23897303.670    -8027154.70549  -6242389.97449  23897305.0354   23897311.3434
 94  4 26 23 44  0.0000000  0  7 24  4  5  7  9 12 20
  20972467.969    -8748305.18649  -6807897.05949  20972469.9174   20972475.2694
  21248200.977     -771912.71849   -597178.28449  21248202.8464   21248207.5394
  21298733.050    -7930101.32049  -6166479.30449  21298734.1124   21298739.2784
  24172638.818    11702916.60849   9085286.14849  24172638.5824   24172645.5874
  21567512.570     3744340.55749   2917346.81749  21567513.6454   21567518.7934
  20884336.620    -1232922.660 9   -953255.944 9  20884338.387    20884344.890
  23879010.335    -8123279.45649  -6317292.33349  23879012.6024   23879018.9564
 94  4 26 23 44 30.0000000  0  7 24  4  5  7  9 12 20
  20963735.428    -8794194.02449  -6843654.55949  20963737.4444   20963743.2494
  21252773.106     -747887.24349   -578457.12049  21252775.0794   21252779.8254
  21288020.522    -7986396.51449  -6210345.67149  21288021.6484   21288026.3734
  24188826.775    11787996.99149   9151582.53049  24188829.4864   24188835.2214
  21578128.280     3800132.38849   2960820.96249  21578130.1674   21578135.7674
  20887680.917    -1215346.988 9   -939560.615 9  20887682.758    20887689.680
  23860699.129    -8219508.89349  -6392276.27449  23860700.5714   23860707.7114
 94  4 26 23 45  0.0000000  0  7 24  4  5  7  9 12 20
  20955069.866    -8839732.13549  -6879138.76449  20955071.9374   20955077.5344
  21257426.474     -723433.70249   -559402.40249  21257428.3064   21257432.5904
  21277323.158    -8042611.99349  -6254149.92849  21277324.1834   21277328.9124
  24204990.454    11872924.80449   9217759.98949  24204990.5124   24204996.7064
  21588803.239     3856229.24849   3004532.78149  21588804.5754   21588810.4774
  20891102.505    -1197365.451 9   -925549.034 9  20891104.448    20891111.119
  23842366.147    -8315847.13249  -6467344.98749  23842367.4634   23842374.9094
 94  4 26 23 45 30.0000000  0  7 24  4  5  7  9 12 20
  20946472.379    -8884914.57049  -6914345.81449  20946474.0494   20946479.6664
  21262163.417     -698535.94149   -540001.54549  21262166.0634   21262170.3304
  21266646.876    -8098712.98049  -6297864.97049  21266648.2954   21266653.3714
  24221123.335    11957718.01249   9283832.56749  24221126.2444   24221132.5254
  21599542.117     3912662.35849   3048506.61849  21599543.7794   21599549.2024
  20894603.728    -1178968.535 9   -911213.776 9  20894605.579    20894611.817
  23824015.065    -8412283.08449  -6542489.83749  23824016.0284   23824024.1764
 94  4 26 23 46  0.0000000  0  7 24  4  5  7  9 12 20
  20937941.951    -8929740.21549  -6949274.85349  20937943.9034   20937949.6914
  21266983.452     -673212.23849   -520268.78049  21266985.3314   21266990.0084
  21255997.856    -8154675.04349  -6341471.75849  21255999.1304   21256004.4934
  24237232.302    12042376.52449   9349800.20149  24237235.7824   24237243.9084
  21610344.619     3969428.79749   3092740.18649  21610346.1914   21610351.5554
  20898182.329    -1160161.101 9   -896558.630 9  20898184.316    20898190.736
  23805642.894    -8508820.55849  -6617713.80249  23805645.7944   23805653.0234
 94  4 26 23 46 30.0000000  0  7 24  4  5  7  9 12 20
  20929483.001    -8974192.37649  -6983912.86349  20929484.7934   20929490.2114
  21271881.067     -647474.91849   -500213.71449  21271882.6134   21271887.3094
  21245375.896    -8210491.02549  -6384964.70749  21245377.4004   21245382.9134
  24253317.520    12126898.70849   9415661.60049  24253320.4324   24253328.0444
  21621211.780     4026531.19449   3137235.54749  21621213.1604   21621217.5384
  20901839.407    -1140941.519 9   -881582.336 9  20901841.498    20901848.337
  23787255.168    -8605456.12049  -6693014.19449  23787256.8424   23787263.9864
 94  4 26 23 47  0.0000000  0  7 24  4  5  7  9 12 20
  20921097.032    -9018258.58249  -7018250.12949  20921099.2184   20921104.7644
  21276851.339     -621352.19549   -479858.33849  21276853.6164   21276858.1644
  21234781.346    -8266167.59249  -6428349.02149  21234782.6654   21234787.8204
  24269372.566    12211277.07349   9481410.92049  24269377.0274   24269384.8634
  21632141.926     4083971.32949   3181994.08449  21632143.4334   21632148.3794
  20905575.394    -1121309.775 9   -866284.872 9  20905577.463    20905583.948
  23768847.577    -8702188.19049  -6768389.77949  23768849.1534   23768856.6834
 94  4 26 23 47 30.0000000  0  7 24  4  5  7  9 12 20
  20912785.475    -9061937.70349  -7052285.77249  20912787.4614   20912792.7414
  21281892.239     -594864.87749   -459218.86349  21281894.0924   21281898.9854
  21224212.021    -8321711.92549  -6471630.30549  21224213.2154   21224217.9504
  24285403.708    12295516.10449   9547051.67749  24285407.2094   24285414.7974
  21643137.629     4141756.63149   3227021.57249  21643139.3124   21643144.1294
  20909390.209    -1101266.682 9   -850666.874 9  20909391.690    20909398.340
  23750421.693    -8799016.16249  -6843840.10449  23750423.4584   23750430.6094
 94  4 26 23 48  0.0000000  0  7 24  4  5  7  9 12 20
  20904548.362    -9105223.76249  -7086015.12849  20904550.5584   20904555.8624
  21286997.663     -568028.45149   -438307.34949  21287000.3714   21287005.7654
  21213664.478    -8377136.42549  -6514818.20749  21213665.9294   21213670.9794
  24301407.285    12379597.37149   9612569.49849  24301408.0134   24301414.8554
  21654196.369     4199871.92749   3272306.20249  21654198.1374   21654203.5624
  20913282.374    -1080812.100 9   -834728.242 9  20913284.043    20913290.852
  23731978.789    -8895938.05849  -6919363.61949  23731979.7974   23731986.7694
 94  4 26 23 48 30.0000000  0  7 24  4  5  7  9 12 20
  20896384.651    -9148123.60749  -7119443.54449  20896386.6864   20896391.9844
  21292174.609     -540828.66549   -417112.70049  21292176.4784   21292181.3044
  21203138.030    -8432456.82049  -6557924.98249  21203139.0704   21203143.9874
  24317374.850    12463521.76749   9677965.07849  24317378.3664   24317385.6324
  21665318.431     4258314.99049   3317846.23449  21665319.4814   21665324.7464
  20917253.460    -1059943.998 9   -818467.382 9  20917255.281    20917261.737
  23713519.353    -8992950.21449  -6994957.45649  23713519.7444   23713526.9664
 94  4 26 23 49  0.0000000  0  7 24  4  5  7  9 12 20
  20888293.754    -9190642.32349  -7152574.97549  20888295.7254   20888301.2754
  21297420.543     -513257.22349   -395628.45849  21297423.0834   21297428.0784
  21192633.268    -8487661.29549  -6600941.43949  21192634.3354   21192638.9774
  24333314.746    12547296.71249   9743244.19349  24333319.8834   24333326.7694
  21676501.709     4317086.51449   3363642.21449  21676503.4074   21676508.6354
  20921303.919    -1038656.765 9   -801879.927 9  20921305.855    20921312.460
  23695042.775    -9090045.51549  -7070616.08449  23695042.9294   23695050.1784
 94  4 26 23 49 30.0000000  0  7 24  4  5  7  9 12 20
  20880271.957    -9232797.72349  -7185423.30349  20880273.8184   20880279.5254
  21302741.604     -485297.63449   -373841.75449  21302743.5654   21302748.6674
  21182152.445    -8542738.05749  -6643858.38449  21182153.5414   21182158.2694
  24349229.808    12630920.50849   9808405.52749  24349232.2594   24349240.7104
  21687746.578     4376176.58649   3409686.40749  21687747.9434   21687753.3194
  20925434.348    -1016951.265 9   -784966.547 9  20925436.307    20925442.829
  23676548.491    -9187223.16949  -7146338.87449  23676550.3524   23676557.4874
 94  4 26 23 50  0.0000000  0  7 24  4  5  7  9 12 20
  20872316.410    -9274601.30749  -7217997.48449  20872318.6114   20872323.9734
  21308139.568     -456934.17449   -351740.35749  21308141.6404   21308145.9314
  21171696.079    -8597680.39149  -6686670.58549  21171697.7924   21171703.0224
  24365116.141    12714394.97949   9873450.51649  24365116.9724   24365125.9504
  21699048.125     4435567.64049   3455965.12449  21699049.6254   21699055.0514
  20929644.228     -994829.600 9   -767728.889 9  20929645.942    20929652.575
  23658039.429    -9284483.50149  -7222126.09849  23658041.6404   23658049.5424
 94  4 26 23 50 30.0000000  0  7 24  4  5  7  9 12 20
  20864430.910    -9316042.81249  -7250289.52849  20864432.6024   20864438.1824
  21313616.077     -428152.21449   -329312.85349  21313618.4564   21313623.1414
  21161269.072    -8652472.71949  -6729365.88849  21161270.9294   21161276.6104
  24380973.981    12797729.29649   9938386.28949  24380975.4444   24380983.6394
  21710406.035     4495254.37749   3502474.25149  21710407.7554   21710413.0274
  20933932.990     -972290.835 9   -750166.219 9  20933934.966    20933941.546
  23639516.625    -9381823.83949  -7297975.66649  23639518.2134   23639526.3994
 94  4 26 23 51  0.0000000  0  7 24  4  5  7  9 12 20
  20856615.567    -9357109.57949  -7282289.57549  20856617.7074   20856623.4504
  21319170.642     -398964.65449   -306569.29349  21319172.5334   21319177.8174
  21150873.209    -8707107.89249  -6771938.73549  21150874.6244   21150879.7874
  24396809.586    12880935.63449  10003222.32649  24396809.6464   24396817.0644
  21721819.848     4555231.80949   3549209.89949  21721821.2684   21721826.2924
  20938301.228     -949332.767 9   -732276.823 9  20938303.437    20938310.495
  23620978.783    -9479240.11749  -7373884.41249  23620980.4004   23620988.3774
 94  4 26 23 51 30.0000000  0  7 24  4  5  7  9 12 20
  20848875.226    -9397787.93449  -7313986.96349  20848876.7374   20848882.6194
  21324801.533     -369370.30749   -283508.75549  21324804.0964   21324809.1254
  21140506.788    -8761588.08249  -6814390.82249  21140507.7074   21140512.3254
  24412620.745    12964032.80849  10067973.30749  24412621.9274   24412631.0534
  21733289.524     4615506.93349   3596177.51849  21733291.2254   21733296.2104
  20942751.383     -925950.007 9   -714056.498 9  20942753.013    20942759.972
  23602428.152    -9576725.22849  -7449846.78649  23602429.6704   23602437.1994
 94  4 26 23 52  0.0000000  0  7 24  4  5  7  9 12 20
  20841209.479    -9438068.85349  -7345374.66049  20841211.4444   20841217.3124
  21330510.739     -339373.58449   -260134.67949  21330512.3294   21330516.9684
  21130167.107    -8815924.23649  -6856730.67149  21130167.7424   21130172.5904
  24428412.274    13047018.61749  10132637.49349  24428413.5124   24428422.8604
  21744818.222     4676090.22449   3643385.26249  21744819.8054   21744824.7204
  20947282.135     -902140.366 9   -695503.530 9  20947284.021    20947290.838
  23583865.880    -9674275.29849  -7525859.76549  23583866.7494   23583873.6664
 94  4 26 23 52 30.0000000  0  7 24  4  5  7  9 12 20
  20833621.559    -9477945.15749  -7376447.06749  20833623.4014   20833628.9844
  21336293.802     -308982.29649   -236453.15549  21336295.7984   21336300.2504
  21119852.849    -8870122.74149  -6898963.24849  21119853.7824   21119858.9754
  24444181.640    13129884.00149  10197207.85749  24444182.4964   24444191.9874
  21756405.471     4736982.65549   3690833.89349  21756407.1814   21756411.9654
  20951894.787     -877902.529 9   -676616.912 9  20951896.522    20951903.061
  23565291.460    -9771887.13249  -7601920.86349  23565291.7484   23565298.4884
 94  4 26 23 53  0.0000000  0  7 24  4  5  7  9 12 20
  20826108.345    -9517424.90349  -7407210.47149  20826110.7084   20826116.3204
  21342152.263     -278197.38949   -212464.91349  21342153.9484   21342158.2414
  21109565.944    -8924180.58649  -6941086.22149  21109567.2654   21109572.1884
  24459926.140    13212636.04949  10261689.90849  24459929.0984   24459939.4434
  21768053.234     4798191.42449   3738529.02449  21768054.9514   21768059.6204
  20956589.524     -853233.447 9   -657394.260 9  20956591.112    20956597.458
  23546704.772    -9869555.65149  -7678026.14449  23546706.5034   23546713.0794
 94  4 26 23 53 30.0000000  0  7 24  4  5  7  9 12 20
  20818670.054    -9556518.07749  -7437672.64949  20818671.6104   20818676.9444
  21348086.790     -247004.76649   -188158.97349  21348089.6574   21348093.9484
  21099308.325    -8978084.10649  -6983088.95149  21099309.7874   21099314.5494
  24475647.611    13295253.81649  10326067.31649  24475650.2964   24475660.9044
  21779759.580     4859708.99349   3786464.77649  21779761.1414   21779766.4174
  20961365.004     -828134.155 9   -637836.373 9  20961367.106    20961373.551
  23528109.713    -9967279.93949  -7754174.88749  23528110.6784   23528116.6954
 94  4 26 23 54  0.0000000  0  7 24  4  5  7  9 12 20
  20811304.867    -9595220.90949  -7467830.67349  20811306.8694   20811312.0944
  21354101.656     -215401.94149   -163533.39149  21354103.3764   21354107.9794
  21089082.230    -9031820.90249  -7024961.77049  21089083.8204   21089088.9814
  24491352.336    13377733.43249  10390337.06149  24491347.1244   24491354.8624
  21791522.920     4921524.72849   3834632.86249  21791524.5124   21791529.5894
  20966223.544     -802604.373 9   -617943.042 9  20966225.412    20966231.762
  23509504.273   -10065057.58249  -7830365.20849  23509504.4544   23509510.2464
 94  4 26 23 54 30.0000000  0  7 24  4  5  7  9 12 20
  20804016.928    -9633519.86349  -7497673.98149  20804018.8464   20804024.2634
  21360191.279     -183400.94049   -138597.54449  21360192.9344   21360197.6484
  21078891.562    -9085371.76249  -7066689.69749  21078893.0844   21078898.5514
  24507020.217    13460093.45349  10454513.63749  24507018.8664   24507027.9554
  21803340.343     4983626.33249   3883023.70449  21803341.9794   21803346.7864
  20971163.395     -776645.510 9   -597715.370 9  20971165.258    20971171.619
  23490887.830   -10162888.01849  -7906596.67149  23490887.9294   23490893.9364
 94  4 26 23 55  0.0000000  0  8  6 24  4  5  7  9 12 20
  25101845.075    -1727349.02159  -1333027.88459  25101846.3924   25101852.8934
  20796806.937    -9671407.57249  -7527196.83149  20796808.7994   20796814.4664
  21366356.680     -150997.75349   -113348.29949  21366359.0424   21366364.2384
  21068740.216    -9138720.96849  -7108260.48949  21068741.3974   21068746.4374
  24522667.391    13542345.53649  10518606.10749  24522670.7394   24522680.5924
  21815215.287     5046027.25249   3931647.78649  21815216.9034   21815221.4294
  20976185.981     -750251.666 9   -577148.750 9  20976187.963    20976194.196
  23472261.277   -10260763.28449  -7982863.06849  23472262.7174   23472268.6384
 94  4 26 23 55 30.0000000  0  8  6 24  4  5  7  9 12 20
  25084838.675    -1816714.74049  -1402663.41349  25084840.1354   25084847.2714
  20789676.830    -9708874.07449  -7556391.47349  20789678.9244   20789684.7334
  21372601.344     -118187.79649    -87782.08849  21372602.8384   21372608.1324
  21058625.043    -9191879.36549  -7149682.60749  21058626.0154   21058630.4454
  24538303.735    13624492.74249  10582616.84949  24538303.8364   24538310.6714
  21827147.427     5108734.40949   3980510.47349  21827148.9974   21827154.5004
  20981292.303     -723421.662 9   -556242.260 9  20981293.793    20981299.631
  23453627.733   -10358680.14449  -8059161.88249  23453628.9934   23453635.5394
 94  4 26 23 56  0.0000000  0  8  6 24  4  5  7  9 12 20
  25067820.436    -1906143.88849  -1472348.35649  25067821.3154   25067829.7794
  20782628.564    -9745913.00849  -7585252.95449  20782630.6544   20782636.3744
  21378918.376      -84987.88549    -61912.02149  21378920.5504   21378925.1114
  21048541.665    -9244863.27549  -7190968.75549  21048543.1454   21048547.8084
  24553919.512    13706537.18149  10646547.50149  24553916.5274   24553924.7784
  21839140.907     5171759.93049   4029621.24249  21839142.7344   21839147.6974
  20986478.895     -696159.999 9   -534999.411 9  20986480.999    20986487.473
  23434985.512   -10456641.14949  -8135495.09249  23434987.5284   23434993.9924
 94  4 26 23 56 30.0000000  0  8  6 24  4  5  7  9 12 20
  25050790.910    -1995633.17649  -1542080.16349  25050792.4964   25050800.8274
  20775661.889    -9782523.22049  -7613780.35849  20775663.9104   20775670.0504
  21385312.018      -51390.91149    -35732.56249  21385313.8304   21385318.0274
  21038492.145    -9297673.25149  -7232119.36549  21038493.6284   21038498.4654
  24569504.669    13788462.55149  10710385.40449  24569506.3194   24569515.4834
  21851198.410     5235123.28049   4078995.27149  21851200.2764   21851205.5974
  20991750.320     -668460.746 9   -513415.584 9  20991752.224    20991758.871
  23416337.190   -10554638.07349  -8211856.29249  23416339.0924   23416344.9334
 94  4 26 23 57  0.0000000  0  8  6 24  4  5  7  9 12 20
  25033749.483    -2085181.01449  -1611857.58649  25033752.4414   25033759.8964
  20768774.530    -9818720.22749  -7641985.78249  20768775.9254   20768781.8084
  21391781.445      -17391.06749     -9239.17649  21391783.6834   21391788.3024
  21028471.082    -9350334.80049  -7273154.32649  21028472.6694   21028477.4734
  24585065.997    13870250.86149  10774116.49349  24585070.6084   24585078.0264
  21863322.700     5298832.69049   4128638.93949  21863323.9074   21863329.2184
  20997104.374     -640325.145 9   -491491.747 9  20997106.190    20997112.584
  23397682.139   -10652670.10749  -8288244.85749  23397684.1364   23397689.8264
 94  4 26 23 57 30.0000000  0  8  6 24  4  5  7  9 12 20
  25016701.585    -2174780.41349  -1681675.17449  25016703.1994   25016710.6734
  20761965.672    -9854498.35949  -7669864.81949  20761967.5054   20761973.2194
  21398327.512       17007.24649     17564.71549  21398329.3264   21398333.5894
  21018478.194    -9402848.36449  -7314073.97049  21018479.4784   21018484.4674
  24600605.214    13951899.40449  10837738.67049  24600608.0994   24600613.7894
  21875509.202     5362876.03949   4178542.83149  21875510.9484   21875516.0314
  21002541.847     -611749.050 9   -469224.658 9  21002543.769    21002550.550
  23379022.411   -10750730.88349  -8364655.81849  23379023.7134   23379029.2574
 94  4 26 23 58  0.0000000  0  8  6 24  4  5  7  9 12 20
  24999644.375    -2264420.58949  -1751524.54549  24999644.9554   24999652.6914
  20755236.264    -9889862.08649  -7697420.94249  20755237.8124   20755243.7734
  21404948.682       51798.40149     44674.71249  21404950.1904   21404954.4084
  21008516.318    -9455196.53949  -7354864.74249  21008517.7894   21008523.0064
  24616117.938    14033401.70249  10901246.91149  24616117.7904   24616125.9284
  21887756.727     5427237.87349   4228694.88549  21887758.4194   21887763.7334
  21008063.829     -582734.249 9   -446615.726 9  21008065.405    21008071.965
  23360357.784   -10848819.73949  -8441088.65549  23360358.5134   23360364.3144
 94  4 26 23 58 30.0000000  0  8  6 24  4  5  7  9 12 20
  24982578.775    -2354090.07349  -1821396.73249  24982580.2534   24982589.1034
  20748584.287    -9924816.48749  -7724658.10749  20748586.3444   20748592.4534
  21411644.325       86989.14549     72096.07349  21411646.6374   21411651.3934
  20998588.221    -9507366.37149  -7395516.54249  20998589.9774   20998595.3554
  24631597.254    14114769.75049  10964650.56449  24631601.1634   24631608.4134
  21900063.412     5491907.26149   4279086.59349  21900064.8464   21900069.9434
  21013668.371     -553277.624 9   -423662.519 9  21013670.497    21013677.327
  23341688.477   -10946931.66649  -8517539.47449  23341689.1904   23341694.5034
 94  4 26 23 59  0.0000000  0  8  6 24  4  5  7  9 12 20
  24965511.251    -2443773.52749  -1891279.78349  24965513.7964   24965522.3674
  20742012.340    -9959354.04949  -7751570.46549  20742014.2374   20742019.7274
  21418415.610      122570.88449     99822.11549  21418417.4244   21418422.0534
  20988698.222    -9559342.81349  -7436017.64649  20988699.3854   20988704.1974
  24647056.372    14196024.39149  11027965.81449  24647063.2184   24647069.9914
  21912424.554     5556868.95749   4329706.08349  21912426.3674   21912431.8684
  21019358.454     -523379.151 9   -400365.018 9  21019360.327    21019366.688
  23323014.908   -11045064.12549  -8594006.28649  23323015.2974   23323021.1084
 94  4 26 23 59 30.0000000  0  8  6 24  4  5  7  9 12 20
  24948443.333    -2533468.62049  -1961171.93849  24948444.3384   24948452.1134
  20735519.788    -9993472.02349  -7778155.87749  20735521.5944   20735526.7914
  21425261.135      158543.78549    127852.95249  21425262.9004   21425267.4294
  20978849.818    -9611098.61149  -7476346.82249  20978850.6994   20978855.2444
  24662502.724    14277170.31149  11091196.35749  24662504.3754   24662512.4164
  21924839.704     5622111.75649   4380544.61249  21924841.5184   21924847.0264
  21025133.058     -493036.224 9   -376721.182 9  21025134.665    21025140.479
  23304337.153   -11143212.18049  -8670485.25149  23304338.4474   23304344.1024
 94  4 27  0  0  0.0000000  0  8  6 24  4  5  7  9 12 20
  24931370.807    -2623181.29949  -2031077.76649  24931374.8364   24931381.2364
  20729106.393   -10027173.96349  -7804417.10549  20729108.4004   20729113.9144
  21432179.749      194906.44049    156187.49549  21432182.1664   21432187.2064
  20969043.986    -9662627.73149  -7516499.36949  20969045.2254   20969049.8644
  24677926.458    14358217.60349  11154350.05049  24677926.6564   24677936.8744
  21937309.917     5687640.56649   4431606.01049  21937311.4604   21937316.7494
  21030991.359     -462251.897 9   -352733.394 9  21030992.833    21030998.766
  23285655.564   -11241376.51849  -8746976.89849  23285657.4814   23285663.6164
 94  4 27  0  0 30.0000000  0  7  6 24  4  5  9 12 20
  24914301.738    -2712899.25449  -2100987.73849  24914302.0334   24914308.8394
  20722775.459   -10060446.45849  -7830343.69749  20722776.9244   20722782.3664
  21439172.461      231653.95549    184821.93149  21439174.8024   21439179.7724
  20959281.163    -9713932.42349  -7556477.03849  20959282.3574   20959287.1774
  21949835.307     5753461.95549   4482895.37849  21949836.9404   21949842.3714
  21036933.352     -431021.672 9   -328398.164 9  21036935.367    21036941.856
  23266973.807   -11339550.18449  -8823475.81549  23266975.4864   23266981.7054
 94  4 27  0  1  0.0000000  0  7  6 24  4  5  9 12 20
  24897225.158    -2802625.16049  -2170903.88249  24897227.0764   24897232.9884
  20716526.518   -10093282.38549  -7855930.10149  20716528.2864   20716533.7134
  21446241.695      268797.19149    213764.71949  21446243.5894   21446247.7374
  20949560.650    -9765013.05849  -7596280.12049  20949561.6314   20949566.7934
  21962416.207     5819573.59049   4534410.91249  21962417.8234   21962422.9204
  21042961.989     -399342.692 9   -303713.257 9  21042963.845    21042969.831
  23248290.392   -11437727.97749  -8899977.94349  23248292.6284   23248299.0134
 94  4 27  0  1 30.0000000  0  7  6 24  4  5  9 12 20
  24880143.026    -2892381.46749  -2240843.70849  24880146.7214   24880153.1754
  20710359.900   -10125687.13849  -7881180.54349  20710362.1024   20710367.3714
  21453385.610      306342.24849    243020.60349  21453388.0094   21453393.0664
  20939882.215    -9815870.93149  -7635909.62149  20939883.4834   20939888.7924
  21975053.242     5885980.22549   4586156.32849  21975054.6904   21975059.7614
  21049075.565     -367213.970 9   -278677.888 9  21049077.803    21049083.978
  23229608.018   -11535906.42149  -8976480.57949  23229609.6514   23229616.5034
 94  4 27  0  2  0.0000000  0  7  6 24  4  5  9 12 20
  24863058.639    -2982158.55849  -2310799.74049  24863060.3884   24863068.8564
  20704277.945   -10157651.37349  -7906087.72149  20704279.4374   20704284.9584
  21460606.659      344295.35749    272594.45949  21460609.8934   21460615.5524
  20930246.685    -9866508.02449  -7675367.08349  20930248.1264   20930252.7954
  21987747.376     5952688.98749   4638137.16949  21987749.0454   21987754.2564
  21055276.098     -334631.160 9   -253288.688 9  21055277.834    21055284.308
  23210927.006   -11634078.69849  -9052978.41149  23210928.5164   23210934.6554
 94  4 27  0  2 30.0000000  0  7  6 24  4  5  9 12 20
  24845974.840    -3071955.17149  -2380770.97549  24845975.0804   24845981.1154
  20698278.072   -10189176.86549  -7930653.00949  20698279.9754   20698285.8184
  21467910.523      382665.50749    302493.28149  21467912.0544   21467916.8634
  20920650.599    -9916935.82649  -7714661.46249  20920652.0304   20920656.6164
  22000498.393     6019698.09349   4690352.03949  22000499.9354   22000505.3644
  21061562.829     -301594.843 9   -227546.122 9  21061564.558    21061570.949
  23192247.895   -11732242.98749  -9129470.01649  23192248.8164   23192254.5074
 94  4 27  0  3  0.0000000  0  7  6 24  4  5  9 12 20
  24828876.806    -3161793.37249  -2450774.66749  24828879.6764   24828886.3274
  20692360.403   -10220275.49049  -7954885.68149  20692362.4844   20692367.6044
  21475289.436      421445.97349    332711.82649  21475291.2824   21475296.3234
  20911095.401    -9967148.49649  -7753788.19749  20911096.5684   20911101.4644
  22013306.744     6087006.56849   4742800.17449  22013308.2314   22013313.8374
  21067934.667     -268109.702 9   -201453.815 9  21067936.683    21067943.244
  23173568.968   -11830401.21749  -9205956.89249  23173570.2834   23173575.2864
 94  4 27  0  3 30.0000000  0  7  6 24  4  5  9 12 20
  24811778.816    -3251650.88749  -2520793.41349  24811779.7434   24811787.0014
  20686525.433   -10250938.01949  -7978778.54749  20686527.2664   20686532.8144
  21482743.133      460616.02849    363233.94749  21482745.1784   21482749.9814
  20901582.038   -10017143.69249  -7792745.47649  20901582.8804   20901587.9154
  22026173.940     6154622.67049   4795488.02749  22026175.5534   22026180.9934
  21074393.436     -234169.187 9   -175006.665 9  21074395.144    21074401.474
  23154893.615   -11928544.44249  -9282432.08249  23154894.4294   23154899.3954
 94  4 27  0  4  0.0000000  0  7  6 24  4  5  9 12 20
  24794675.503    -3341518.02049  -2590819.63049  24794676.0674   24794686.5284
  20680774.353   -10281152.77149  -8002322.48649  20680777.3514   20680783.3014
  21490269.924      500165.77049    394051.92249  21490271.6534   21490276.1204
  20892108.990   -10066922.04749  -7831533.80149  20892110.3044   20892115.4524
  22039097.616     6222542.33949   4848412.41449  22039100.2314   22039105.5864
  21080937.993     -199775.673 9   -148206.530 9  21080940.055    21080946.487
  23136220.272   -12026672.27149  -9358895.27749  23136221.0164   23136226.5194
 94  4 27  0  4 30.0000000  0  7  6 24  4  5  9 12 20
  24777570.046    -3431402.34049  -2660859.21849  24777571.7364   24777582.2074
  20675113.238   -10310910.49649  -8025510.30049  20675115.1134   20675120.4414
  21497867.906      540094.61249    425165.30749  21497869.9774   21497874.3394
  20882679.258   -10116474.96249  -7870146.44649  20882680.7604   20882686.0134
  22052083.174     6290770.87149   4901577.47549  22052083.9414   22052089.2444
  21087568.934     -164929.122 9   -121053.378 9  21087571.077    21087577.603
  23117549.253   -12124782.04749  -9435344.41149  23117550.7014   23117557.2824
 94  4 27  0  5  0.0000000  0  7  6 24  4  5  9 12 20
  24760465.520    -3521299.24449  -2730908.63849  24760466.8474   24760474.7894
  20669538.735   -10340204.96549  -8048337.14249  20669540.4824   20669546.1314
  21505536.444      580394.48049    456567.79149  21505538.6684   21505542.9094
  20873295.752   -10165787.35349  -7908571.67649  20873297.1514   20873301.6294
  22065124.082     6359309.69749   4954984.32249  22065126.3234   22065131.7134
  21094286.226     -129630.112 9    -93547.672 9  21094288.272    21094294.670
  23098881.938   -12222871.44449  -9511777.66949  23098883.9264   23098891.8704
 94  4 27  0  5 30.0000000  0  7  6 24  4  5  9 12 20
  24743358.995    -3611204.89649  -2800964.89449  24743359.1364   24743365.5264
  20664051.443   -10369037.60849  -8070804.11549  20664053.5834   20664059.6074
  21513279.903      621084.01849    488273.92749  21513281.4004   21513286.1174
  20863957.686   -10214859.85949  -7946809.97649  20863959.0904   20863963.1564
  22078223.926     6428145.59749   5008622.66049  22078225.4604   22078230.9684
  21101089.301      -93881.979 9    -65691.993 9  21101091.242    21101097.196
  23080219.295   -12320941.63049  -9588195.96649  23080221.4564   23080229.2944
 94  4 27  0  6  0.0000000  0  7  6 24  4  5  9 12 20
  24726244.383    -3701130.34249  -2871036.58449  24726246.3594   24726251.8034
  20658653.269   -10397405.47749  -8092908.91849  20658655.6844   20658661.1534
  21521102.229      662193.30249    520307.13549  21521104.3674   21521109.1674
  20854668.730   -10263677.08649  -7984849.35749  20854669.3534   20854673.8414
  22091381.193     6497284.63049   5062497.21249  22091382.0634   22091387.1884
  21107977.897      -57679.142 9    -37481.995 9  21107980.026    21107986.326
  23061563.701   -12418983.87649  -9664592.48549  23061565.1234   23061572.3494
 94  4 27  0  6 30.0000000  0  7  6 24  4  5  9 12 20
  24709128.732    -3791074.99149  -2941123.24949  24709129.4864   24709135.5934
  20653340.914   -10425326.06549  -8114665.20549  20653342.5974   20653347.9074
  21529004.875      703721.95549    552667.12049  21529007.1644   21529011.2694
  20845427.951   -10312233.56549  -8022685.56449  20845429.0004   20845433.9424
  22104590.473     6566708.35049   5116593.59949  22104592.5424   22104597.9624
  21114953.444      -21024.777 9     -8920.165 9  21114955.344    21114961.994
  23042913.521   -12516998.71749  -9740967.64949  23042913.9994   23042919.9454
 94  4 27  0  7  0.0000000  0  7  6 24  4  5  9 12 20
  24692006.270    -3881033.32549  -3011220.53749  24692009.1254   24692017.3204
  20648110.897   -10452806.40649  -8136078.43449  20648113.0274   20648118.3884
  21536987.011      745663.36749    585348.73849  21536988.4294   21536992.8924
  20836239.545   -10360518.98049  -8060310.55449  20836240.6604   20836245.6794
  22117852.817     6636400.34849   5170899.02949  22117854.6704   22117860.0804
  21122014.142       16080.002 9     19992.638 9  21122016.128    21122022.789
  23024267.789   -12614984.55149  -9817320.20449  23024268.1244   23024273.5844
 94  4 27  0  7 30.0000000  0  7  6 24  4  5  9 12 20
  24674886.305    -3971015.57449  -3081336.49249  24674887.2794   24674894.7884
  20642966.942   -10479843.34349  -8157146.15849  20642968.4734   20642973.7904
  21545043.858      788012.09749    618347.74749  21545046.8714   21545051.8434
  20827103.632   -10408529.58949  -8097721.40649  20827104.4964   20827109.4814
  22131165.754     6706355.16949   5225409.24549  22131166.9874   22131172.5424
  21129161.131       53637.429 9     49258.154 9  21129163.092    21129169.315
  23005628.105   -12712936.43249  -9893646.30549  23005628.4274   23005633.9164
 94  4 27  0  8  0.0000000  0  7  6 24  4  5  9 12 20
  24657757.736    -4061018.86849  -3151468.84549  24657760.7634   24657766.8894
  20637907.043   -10506429.43149  -8177862.57349  20637908.9024   20637914.5284
  21553177.465      830744.77649    651645.93949  21553178.5924   21553183.3784
  20818018.947   -10456267.65749  -8134919.87949  20818020.4044   20818025.1814
  22144528.611     6776581.26049   5280130.84249  22144530.6164   22144536.1594
  21136395.083       91650.647 9     78878.838 9  21136396.947    21136403.125
  22986995.136   -12810848.19249  -9969941.14649  22986995.7944   22987001.8194
 94  4 27  0  8 30.0000000  0  7  6 24  4  5  9 12 20
  24640630.864    -4151030.26049  -3221607.52349  24640633.0874   24640638.7234
  20632933.987   -10532561.89249  -8198225.49849  20632936.1244   20632941.6224
  21561379.011      873845.57949    685230.97649  21561380.5224   21561385.0784
  20808986.364   -10503735.86449  -8171908.07849  20808987.6264   20808992.2684
  22157945.745     6847084.79249   5335068.63749  22157946.7914   22157952.1734
  21143714.690      130118.708 9    108853.947 9  21143716.821    21143723.283
  22968369.149   -12908717.92449 -10046203.24549  22968371.3634   22968378.2824
 94  4 27  0  9  0.0000000  0  7  6 24  4  5  9 12 20
  24623498.198    -4241056.48049  -3291757.78349  24623500.7404   24623508.0124
  20628051.276   -10558223.78749  -8218221.76449  20628053.0824   20628058.0424
  21569649.125      917313.59249    719102.15249  21569651.4974   21569656.5804
  20800002.015   -10550946.16249  -8208695.31749  20800003.6254   20800008.3764
  22171417.789     6917886.00849   5390238.39049  22171419.5904   22171424.9324
  21151121.768      169043.623 9    139185.032 9  21151123.909    21151130.560
  22949753.121   -13006540.60549 -10122428.68649  22949756.0934   22949763.7494
 94  4 27  0  9 30.0000000  0  7  6 24  4  5  9 12 20
  24606364.027    -4331100.69049  -3361922.01949  24606365.5274   24606372.0384
  20623256.994   -10583416.46949  -8237852.40249  20623258.8964   20623264.0894
  21577989.775      961140.91649    753253.32149  21577992.1834   21577996.6924
  20791063.051   -10597922.23449  -8245300.04249  20791064.4164   20791069.2574
  22184948.568     6988990.69449   5445644.60549  22184950.4574   22184955.9914
  21158616.261      208424.416 9    169871.348 9  21158617.915    21158624.320
  22931148.247   -13104314.55649 -10198616.14349  22931150.5154   22931158.5944
 94  4 27  0 10  0.0000000  0  7  6 24  4  5  9 12 20
  24589228.280    -4421144.93349  -3432086.29649  24589230.2184   24589236.8904
  20618551.140   -10608144.44049  -8257120.92149  20618553.1604   20618558.6494
  21586400.012     1005335.27949    787690.48349  21586401.9344   21586406.8524
  20782166.538   -10644672.81149  -8281729.05549  20782168.0964   20782172.8894
  22198536.090     7060391.65649   5501281.67349  22198537.7234   22198543.1584
  21166196.452      248259.321 9    200911.525 9  21166198.091    21166204.622
  22912553.424   -13202038.15549 -10274764.37049  22912554.9044   22912562.3214
 94  4 27  0 10 30.0000000  0  7  6 24  4  5  9 12 20
  24572095.270    -4511176.78949  -3502240.88449  24572096.8664   24572105.7734
  20613934.744   -10632400.91349  -8276022.05449  20613937.2774   20613942.5124
  21594883.288     1049910.02249    822424.04849  21594884.6454   21594889.4574
  20773316.866   -10691182.27149  -8317970.17949  20773317.7444   20773322.2354
  22212179.551     7132088.69349   5557149.47049  22212181.1924   22212186.6564
  21173863.636      288550.194 9    232307.005 9  21173865.372    21173872.249
  22893968.691   -13299706.67749 -10350869.68049  22893969.8864   22893976.3244
 94  4 27  0 11  0.0000000  0  7  6 24  4  5  9 12 20
  24554966.391    -4601192.48849  -3572382.89049  24554967.9944   24554976.5314
  20609408.131   -10656185.11649  -8294555.18349  20609410.7854   20609416.6024
  21603439.513     1094877.41649    857463.57449  21603441.4424   21603445.9694
  20764513.743   -10737438.69549  -8354014.13149  20764514.9034   20764520.0724
  22225876.356     7204065.60749   5613235.35149  22225877.6484   22225883.4104
  21181617.014      329299.291 9    264059.529 9  21181619.486    21181626.261
  22875393.896   -13397314.97449 -10426928.06449  22875395.6334   22875401.5744
 94  4 27  0 11 30.0000000  0  7  6 24  4  5  9 12 20
  24537843.166    -4691178.45949  -3642501.72849  24537844.8244   24537852.4024
  20604971.608   -10679504.28049  -8312725.93249  20604973.7124   20604979.1504
  21612072.093     1140240.87149    892811.72549  21612073.9974   21612078.5054
  20755762.693   -10783424.29749  -8389847.05349  20755764.3294   20755769.1894
  22239625.867     7276317.35949   5669535.39149  22239627.2994   22239632.1994
  21189459.513      370507.910 9    296170.121 9  21189461.294    21189467.780
  22856830.366   -13494858.48249 -10502935.95649  22856832.9754   22856838.8684
 94  4 27  0 12  0.0000000  0  7  6 24  4  5  9 12 20
  24520727.040    -4781126.43049  -3712590.96849  24520728.7154   24520734.9474
  20600623.177   -10702355.34549  -8330531.94649  20600625.3544   20600630.5014
  21620781.274     1186011.80249    928477.38049  21620783.4544   21620788.3184
  20747068.554   -10829119.92549  -8425454.03049  20747069.4044   20747073.6994
  22253426.933     7348844.84249   5726050.28949  22253428.8754   22253434.0364
  21197388.289      412174.763 9    328637.793 9  21197390.497    21197397.059
  22838280.678   -13592335.61749 -10578892.12749  22838283.5214   22838289.7654
 94  4 27  0 12 30.0000000  0  7  6 24  4  5  9 12 20
  24503614.106    -4871044.88049  -3782657.20549  24503616.2194   24503624.7714
  20596364.214   -10724736.37349  -8347971.68849  20596366.2204   20596371.6824
  21629567.403     1232183.00249    964454.93449  21629569.6204   21629574.1144
  20738429.688   -10874514.81549  -8460826.66349  20738430.7024   20738435.3064
  22267281.560     7421647.97049   5782779.95449  22267283.1334   22267288.2084
  21205404.313      454296.115 9    361459.619 9  21205405.984    21205412.322
  22819745.228   -13689746.77149 -10654796.88049  22819747.5274   22819753.3344
 94  4 27  0 13  0.0000000  0  7  6 24  4  5  9 12 20
  24486505.997    -4960939.52949  -3852704.86149  24486508.5724   24486518.5344
  20592193.507   -10746654.16949  -8365050.46849  20592195.5964   20592200.8504
  21638430.553     1278752.10149   1000742.54649  21638431.5614   21638436.1614
  20729848.142   -10919607.98149  -8495964.18049  20729849.3304   20729854.1994
  22281188.429     7494728.53549   5839725.81749  22281189.9044   22281195.0584
  21213505.941      496873.177 9    394636.537 9  21213508.112    21213514.733
  22801223.338   -13787087.55049 -10730646.80449  22801224.3324   22801230.2414
 94  4 27  0 13 30.0000000  0  7  6 24  4  5  9 12 20
  24469406.989    -5050808.33449  -3922732.40749  24469409.1734   24469418.7134
  20588113.194   -10768094.53149  -8381757.22849  20588115.3874   20588120.8124
  21647366.429     1325713.53749   1037335.86149  21647368.2714   21647372.5734
  20721323.957   -10964399.46149  -8530866.62449  20721325.7034   20721330.5664
  22295151.485     7568103.10549   5896900.77649  22295152.8994   22295157.6454
  21221695.914      539910.522 9    428172.118 9  21221697.975    21221704.644
  22782714.269   -13884350.50349 -10806436.08749  22782715.8684   22782721.8804
 94  4 27  0 14  0.0000000  0  7  6 24  4  5  9 12 20
  24452311.986    -5140651.85349  -3992740.21149  24452313.4184   24452322.1334
  20584123.690   -10789061.49249  -8398095.09949  20584125.5534   20584131.1884
  21656375.426     1373058.88449   1074228.33949  21656377.8324   21656382.0584
  20712858.129   -11008896.06249  -8565539.28949  20712858.9204   20712863.5374
  22309167.713     7641758.72449   5954294.74549  22309169.3014   22309173.9974
  21229971.986      583405.534 9    462064.323 9  21229974.493    21229981.424
  22764219.756   -13981534.90749 -10882164.16649  22764221.6904   22764228.1304
 94  4 27  0 14 30.0000000  0  7  6 24  4  5  9 12 20
  24435219.744    -5230474.32649  -4062731.68049  24435220.4534   24435228.2124
  20580223.203   -10809559.40849  -8414067.48349  20580225.1004   20580230.4784
  21665456.921     1420780.03049   1111413.63849  21665458.5924   21665462.9044
  20704444.782   -11053104.68149  -8599987.55249  20704446.1194   20704450.7894
  22323236.761     7715692.93149   6011905.79249  22323238.4594   22323243.0944
  21238337.112      627359.972 9    496314.522 9  21238338.774    21238345.502
  22745742.360   -14078635.74249 -10957827.12149  22745744.1154   22745750.0884
 94  4 27  0 15  0.0000000  0  7  6 24  4  5  9 12 20
  24418125.364    -5320283.06849  -4132712.39749  24418128.4704   24418138.7774
  20576409.746   -10829595.26149  -8429679.82249  20576411.9954   20576417.7244
  21674607.178     1468868.33949   1148885.03949  21674609.5674   21674614.2244
  20696083.711   -11097039.05949  -8634222.12849  20696085.6074   20696090.3964
  22337356.955     7789896.19349   6069726.49349  22337358.5964   22337363.2014
  21246788.108      671770.234 9    530919.902 9  21246789.931    21246796.707
  22727281.740   -14175653.00249 -11033424.94349  22727283.0594   22727287.4474
 94  4 27  0 15 30.0000000  0  7  6 24  4  5  9 12 20
  24401042.851    -5410074.37349  -4202679.53049  24401042.7964   24401050.5784
  20572686.183   -10849165.72049  -8444929.51449  20572688.2304   20572693.3454
  21683826.953     1517320.20149   1186639.73749  21683829.2104   21683834.3234
  20687775.639   -11140700.80349  -8668244.26049  20687776.9034   20687781.8614
  22351527.286     7864359.96549   6127750.19249  22351528.7434   22351533.2454
  21255326.182      716637.459 9    565881.360 9  21255328.072    21255334.492
  22708837.617   -14272582.73649 -11108954.56549  22708838.5924   22708842.2544
 94  4 27  0 16  0.0000000  0  7  6 24  4  5  9 12 20
  24383959.801    -5499842.90749  -4272628.96649  24383960.6194   24383967.8074
  20569049.320   -10868278.01949  -8459822.19849  20569051.2664   20569056.5714
  21693119.214     1566140.86049   1224681.80449  21693120.1724   21693124.4204
  20679520.928   -11184080.70149  -8702046.76949  20679521.9974   20679526.5394
  22365744.865     7939075.66649   6185970.20749  22365746.5414   22365751.7594
  21263950.929      761961.665 9    601198.915 9  21263953.131    21263959.397
  22690408.836   -14369421.36549 -11184413.20449  22690410.1044   22690414.3034
 94  4 27  0 16 30.0000000  0  7  6 24  4  5  9 12 20
  24366883.101    -5589589.94649  -4342561.64949  24366884.4804   24366890.9794
  20565501.409   -10886922.69349  -8474350.50049  20565503.3724   20565508.7004
  21702479.404     1615337.67049   1263016.97149  21702481.7514   21702486.3204
  20671322.307   -11227163.86049  -8735618.06049  20671323.8064   20671328.3794
  22380012.488     8014049.56449   6244391.39149  22380013.8804   22380019.2044
  21272662.908      807743.245 9    636872.862 9  21272664.664    21272671.357
  22671997.380   -14466165.16849 -11259797.95849  22671999.3034   22672005.0754
 94  4 27  0 17  0.0000000  0  7  6 24  4  5  9 12 20
  24349808.735    -5679318.25949  -4412479.75949  24349810.1224   24349814.2624
  20562043.679   -10905090.91549  -8488507.52949  20562045.8294   20562051.1314
  21711914.665     1664916.74549   1301650.01149  21711916.6284   21711921.0334
  20663185.120   -11269927.37849  -8768940.27349  20663186.2764   20663190.8764
  22394327.405     8089274.17449   6303007.93949  22394328.6394   22394333.8384
  21281461.561      853981.679 9    672902.792 9  21281463.551    21281469.849
  22653606.103   -14562811.21449 -11335106.52949  22653607.9994   22653614.1464
 94  4 27  0 17 30.0000000  0  7  6 24  4  5  9 12 20
  24332734.055    -5769025.46249  -4482381.39749  24332736.1644   24332744.4604
  20558678.469   -10922779.39649  -8502290.74649  20558680.1754   20558685.2504
  21721423.265     1714886.48049   1340587.46149  21721425.3834   21721430.0824
  20655111.753   -11312352.53949  -8801998.83249  20655112.8674   20655117.6424
  22408689.733     8164749.76649   6361820.07649  22408690.8544   22408696.2854
  21290347.348      900675.476 9    709287.555 9  21290349.295    21290355.574
  22635234.794   -14659357.54649 -11410337.41349  22635236.2584   22635242.1644
 94  4 27  0 18  0.0000000  0  7  6 24  4  5  9 12 20
  24315665.834    -5858716.78849  -4552270.60649  24315667.0614   24315678.0084
  20555402.927   -10939984.72549  -8515697.47849  20555405.5814   20555411.4914
  21731007.784     1765249.60549   1379831.44549  21731009.2034   21731014.0944
  20647103.254   -11354433.91649  -8834789.51249  20647104.6684   20647109.8944
  22423098.323     8240470.25749   6420823.03249  22423099.5644   22423105.5684
  21299319.447      947822.299 9    746025.336 9  21299321.265    21299327.424
  22616882.395   -14755803.35549 -11485489.95949  22616883.6894   22616889.0014
 94  4 27  0 18 30.0000000  0  7  6 24  4  5  9 12 20
  24298599.210    -5948410.07849  -4622161.35949  24298601.2044   24298608.9004
  20552225.164   -10956691.73449  -8528715.90849  20552226.6694   20552232.2134
  21740664.891     1816002.24949   1419378.96049  21740666.7324   21740671.9824
  20639161.973   -11396165.54449  -8867307.66149  20639163.5934   20639168.4514
  22437553.356     8316435.89449   6480017.00349  22437555.3334   22437561.3114
  21308377.554      995423.046 9    783116.809 9  21308379.313    21308385.742
  22598550.150   -14852144.17649 -11560560.69349  22598550.9304   22598555.9054
 94  4 27  0 19  0.0000000  0  7  6 24  4  5  9 12 20
  24281533.127    -6038109.80749  -4692057.17549  24281533.9894   24281538.9134
  20549139.427   -10972903.46049  -8541348.40749  20549141.4654   20549146.9654
  21750394.007     1867129.42749   1459218.31949  21750396.0494   21750400.7864
  20631286.367   -11437553.01749  -8899557.63249  20631287.6444   20631292.6194
  22452055.866     8392646.34049   6539401.73649  22452057.9384   22452063.5074
  21317522.144     1043476.777 9    820561.250 9  21317523.791    21317529.937
  22580236.733   -14948377.46849 -11635547.64549  22580237.9884   22580243.3804
 94  4 27  0 19 30.0000000  0  7  6 24  4  5  9 12 20
  24264463.703    -6127803.71449  -4761948.45949  24264464.9114   24264471.9954
  20546149.483   -10988616.01049  -8553591.93449  20546151.4714   20546156.9664
  21760192.817     1918620.11449   1499340.92449  21760194.5144   21760198.8614
  20623472.692   -11478616.19749  -8931554.90749  20623473.9214   20623478.5974
  22466608.212     8469113.50449   6598986.49949  22466609.5704   22466615.2384
  21326752.977     1091985.897 9    858360.552 9  21326754.790    21326760.965
  22561944.922   -15044497.36749 -11710446.23449  22561945.9904   22561952.3504
 94  4 27  0 20  0.0000000  0  7  6 24  4  5  9 12 20
  24247394.843    -6217486.66549  -4831831.19349  24247396.7464   24247403.9284
  20543254.653   -11003829.81949  -8565446.83249  20543256.5454   20543261.9214
  21770054.991     1970454.43549   1539731.29449  21770057.9834   21770062.7054
  20615718.639   -11519361.21549  -8963304.26349  20615720.2554   20615725.0044
  22481208.932     8545842.98849   6658775.67049  22481210.3744   22481216.3894
  21336070.647     1140950.563 9    896514.833 9  21336072.398    21336078.687
  22543676.417   -15140500.03849 -11785253.46849  22543677.5534   22543683.6634
 94  4 27  0 20 30.0000000  0  7  6 24  4  5  9 12 20
  24230333.230    -6307146.14949  -4901695.66149  24230336.0284   24230341.1774
  20540452.373   -11018556.46849  -8576922.13249  20540454.2834   20540459.4624
  21779984.059     2022623.05149   1580382.16449  21779985.6514   21779989.9304
  20608025.596   -11559790.91949  -8994807.91649  20608026.7924   20608031.4434
  22495861.073     8622843.08349   6718775.70949  22495863.0154   22495868.8234
  21345474.099     1190368.118 9    935022.002 9  21345475.926    21345482.398
  22525430.391   -15236384.40349 -11859968.52749  22525431.4554   22525437.2044
 94  4 27  0 21  0.0000000  0  7  6 24  4  5  9 12 20
  24213284.165    -6396748.23149  -4971515.39049  24213284.9174   24213289.0194
  20537739.233   -11032812.18849  -8588030.46949  20537741.3504   20537746.8324
  21789974.620     2075123.86849   1621291.88449  21789976.3894   21789980.8234
  20600390.796   -11599912.33549  -9026071.35249  20600391.9614   20600396.7824
  22510566.467     8700117.13949   6778989.23749  22510568.1514   22510573.6344
  21354963.850     1240238.622 9    973882.115 9  21354966.000    21354972.532
  22507207.160   -15332146.98249 -11934588.68849  22507208.4024   22507213.9814
 94  4 27  0 21 30.0000000  0  7  6 24  4  5  9 12 20
  24196247.289    -6486280.68849  -5041280.89049  24196247.9764   24196256.7564
  20535116.275   -11046604.33249  -8598777.58649  20535117.2734   20535122.1304
  21800032.320     2127975.88549   1662475.25849  21800033.9434   21800038.2934
  20592814.925   -11639723.81849  -9057093.28349  20592816.2524   20592820.8514
  22525322.730     8777659.62649   6839411.91449  22525323.9434   22525329.4734
  21364540.928     1290563.179 9   1013096.039 9  21364542.757    21364549.191
  22489008.847   -15427783.10149 -12009110.30649  22489009.5294   22489014.8024
 94  4 27  0 22  0.0000000  0  7  6 24  4  5  9 12 20
  24179222.002    -6575737.68349  -5110987.55649  24179224.0434   24179231.3104
  20532577.002   -11059939.01349  -8609168.23749  20532579.1574   20532584.6384
  21810156.849     2181185.01749   1703936.91849  21810159.0624   21810163.6004
  20585302.410   -11679203.21649  -9087856.43749  20585303.5844   20585308.2524
  22540125.925     8855456.78349   6900033.03649  22540128.0544   22540133.5924
  21374203.277     1341342.627 9   1052664.434 9  21374205.818    21374212.023
  22470835.822   -15523288.19849 -12083529.83349  22470836.1924   22470840.6654
 94  4 27  0 22 30.0000000  0  7  6 24  4  5  9 12 20
  24162215.272    -6665119.01549  -5180635.28749  24162216.2154   24162222.8084
  20530128.139   -11072808.74649  -8619196.58849  20530130.1824   20530135.4024
  21820352.051     2234764.09849   1745686.84449  21820354.3894   21820359.5954
  20577852.531   -11718347.63949  -9118358.57049  20577854.4164   20577859.3064
  22554978.268     8933502.35749   6960847.72949  22554980.0384   22554985.6854
  21383953.068     1392574.686 9   1092585.511 9  21383954.892    21383961.128
  22452685.718   -15618660.88149 -12157846.18549  22452686.9724   22452692.2694
 94  4 27  0 23  0.0000000  0  7  6 24  4  5  9 12 20
  24145218.025    -6754446.89849  -5250241.39449  24145217.7024   24145221.5044
  20527769.572   -11085203.77549  -8628855.04949  20527771.5694   20527776.6014
  21830618.597     2288709.32049   1787722.07249  21830620.2264   21830625.1634
  20570466.930   -11757160.82549  -9148602.60949  20570468.1884   20570473.1064
  22569874.466     9011776.83649   7021840.78949  22569875.1544   22569880.7564
  21393787.237     1444255.261 9   1132856.070 9  21393789.188    21393795.617
  22434561.870   -15713901.48649 -12232059.61849  22434563.3944   22434569.1204
 94  4 27  0 23 30.0000000  0  7  6 24  4  5  9 12 20
  24128225.457    -6843734.32749  -5319815.98649  24128226.6264   24128231.7824
  20525503.181   -11097111.24549  -8638133.58049  20525505.3134   20525511.0284
  21840954.391     2343022.93249   1830044.36449  21840955.9934   21840960.5734
  20563148.198   -11795623.66549  -9178573.64449  20563149.3744   20563154.0214
  22584808.308     9090263.68449   7082999.33649  22584810.4264   22584816.3194
  21403707.570     1496385.885 9   1173477.316 9  21403709.245    21403715.922
  22416463.746   -15809004.73549 -12306166.02149  22416465.1374   22416471.4134
 94  4 27  0 24  0.0000000  0  7  6 24  4  5  9 12 20
  24111241.923    -6932981.76049  -5389359.37249  24111243.3754   24111247.2954
  20523333.319   -11108511.71349  -8647017.05349  20523336.0674   20523341.6874
  21851358.368     2397694.71949   1872645.74249  21851359.8144   21851364.1014
  20555895.894   -11833731.03949  -9208267.69449  20555897.5684   20555902.4634
  22599786.324     9168966.29849   7144326.00749  22599787.4784   22599792.6044
  21413712.959     1548966.389 9   1214449.120 9  21413715.253    21413721.504
  22398393.601   -15903967.24349 -12380162.75349  22398394.4644   22398400.6554
 94  4 27  0 24 30.0000000  0  7  6 24  4  5  9 12 20
  24094262.482    -7022207.35249  -5458885.70749  24094264.6764   24094268.8154
  20521262.577   -11119398.73749  -8655500.44249  20521264.1954   20521269.9064
  21861832.066     2452734.83149   1915534.12649  21861833.6124   21861838.0814
  20548710.807   -11871490.31749  -9237690.50249  20548712.2994   20548717.0284
  22614805.073     9247888.90449   7205824.10349  22614806.2924   22614811.1224
  21423804.273     1601994.748 9   1255769.908 9  21423806.219    21423811.947
  22380350.155   -15998787.26949 -12454048.45949  22380351.5954   22380356.8564
 94  4 27  0 25  0.0000000  0  7  6 24  4  5  9 12 20
  24077287.356    -7111409.50149  -5528393.77849  24077289.0184   24077293.8544
  20519286.603   -11129780.27249  -8663589.93349  20519288.6534   20519294.5524
  21872375.054     2508147.34849   1958712.70049  21872377.6514   21872382.8034
  20541592.256   -11908900.64349  -9266841.40349  20541593.6894   20541598.1884
  22629864.467     9327029.33449   7267491.91949  22629866.1774   22629871.2354
  21433981.207     1655472.042 9   1297440.509 9  21433982.639    21433988.682
  22362334.479   -16093459.85949 -12527819.27949  22362335.9034   22362340.8774
 94  4 27  0 25 30.0000000  0  7  6 24  4  5  9 12 20
  24060320.550    -7200572.80549  -5597871.57949  24060322.3124   24060328.2424
  20517406.822   -11139661.26449  -8671289.40149  20517408.7564   20517413.9714
  21882993.551     2563939.56049   2002187.14149  21882994.7034   21882999.9004
  20534541.702   -11945951.71349  -9295712.36049  20534543.0754   20534547.3854
  22644969.844     9406414.28049   7329350.28049  22644972.3054   22644977.6174
  21444242.302     1709398.169 9   1339460.839 9  21444244.399    21444250.806
  22344347.191   -16187981.27649 -12601472.30449  22344348.6324   22344354.2994
 94  4 27  0 26  0.0000000  0  7  6 24  4  5  9 12 20
  24043358.766    -7289710.61549  -5667329.50249  24043359.5654   24043366.1094
  20515620.652   -11149046.30049  -8678602.40949  20515622.5214   20515627.9574
  21893679.674     2620103.62949   2045951.33749  21893682.1594   21893687.3184
  20527557.793   -11982653.21449  -9324310.92349  20527558.8284   20527563.5474
  22660126.949     9486056.79349   7391409.33849  22660128.0454   22660133.6254
  21454589.570     1763769.879 9   1381828.390 9  21454591.035    21454597.484
  22326388.479   -16282350.83149 -12675007.00149  22326390.4844   22326396.4864
 94  4 27  0 26 30.0000000  0  7  6 24  4  5  9 12 20
  24026400.038    -7378828.67449  -5736772.05649  24026400.5544   24026406.4994
  20513926.953   -11157943.74849  -8685535.47449  20513929.3204   20513934.8614
  21904436.958     2676628.84449   2089996.95249  21904438.9124   21904443.4694
  20520642.567   -12018994.57949  -9352628.86849  20520643.5004   20520648.3144
  22675331.317     9565956.30349   7453668.66049  22675332.2914   22675337.4224
  21465019.620     1818585.750 9   1424542.045 9  21465021.961    21465028.339
  22308460.252   -16376566.17349 -12748421.53449  22308461.7994   22308467.8274
 94  4 27  0 27  0.0000000  0  7  6 24  4  5  9 12 20
  24009443.280    -7467913.57149  -5806188.78249  24009446.1184   24009452.5264
  20512324.472   -11166367.02649  -8692099.05549  20512326.5484   20512331.7894
  21915257.846     2733487.81949   2134302.63849  21915259.2114   21915263.3714
  20513796.091   -12054967.86049  -9380659.99949  20513797.8314   20513802.5744
  22690581.206     9646099.81049   7516118.11049  22690583.1774   22690588.3244
  21475534.639     1873840.545 9   1467597.714 9  21475536.550    21475543.617
  22290561.240   -16470628.70549 -12821716.99149  22290562.6864   22290568.3674
 94  4 27  0 27 30.0000000  0  7  6 24  4  5  9 12 20
  23992499.868    -7556962.22149  -5875577.21749  23992498.7064   23992509.9574
  20510813.175   -11174310.59749  -8698288.83949  20510814.8684   20510820.4124
  21926136.985     2790666.78649   2178857.66149  21926139.7974   21926144.5534
  20507023.738   -12090556.41749  -9408391.34149  20507025.3594   20507030.0894
  22705877.281     9726479.86549   7578751.87449  22705879.2164   22705883.9734
  21486132.094     1929534.416 9   1510995.510 9  21486134.897    21486141.465
  22272691.612   -16564534.24149 -12894890.11549  22272693.2444   22272698.7124
 94  4 27  0 28  0.0000000  0  7  6 24  4  5  9 12 20
  23975565.231    -7645967.33249  -5944931.75949  23975567.6844   23975572.5204
  20509395.877   -11181759.75749  -8704093.37349  20509397.5194   20509402.8814
  21937080.835     2848166.47149   2223662.60649  21937081.9744   21937086.4104
  20500326.469   -12125750.09249  -9435814.97949  20500328.1784   20500332.9564
  22721213.301     9807065.73449   7641546.01549  22721213.7744   22721219.2574
  21496816.046     1985673.056 9   1554739.874 9  21496817.789    21496824.219
  22254853.297   -16658272.99949 -12967933.27949  22254855.1954   22254861.1864
 94  4 27  0 28 30.0000000  0  7  6 24  4  5  9 12 20
  23958642.237    -7734904.06149  -6014233.05349  23958641.9784   23958648.4794
  20508070.940   -11188717.56749  -8709515.02949  20508073.4774   20508078.8884
  21948086.122     2906000.14649   2268727.79249  21948087.4484   21948091.7484
  20493705.327   -12160549.25349  -9462931.20549  20493706.3044   20493711.0234
  22736583.382     9887844.40949   7704490.39749  22736585.4514   22736590.9324
  21507582.974     2042252.544 9   1598827.765 9  21507584.885    21507590.882
  22237046.908   -16751845.14849 -13040846.61649  22237048.6264   22237055.0844
 94  4 27  0 29  0.0000000  0  8 16  6 24  4  5  9 12 20
  24880059.018    -4636852.90559  -3589297.41959  24880067.7224   24880077.0104
  23941731.157    -7823757.54749  -6083469.46849  23941732.8834   23941740.4344
  20506841.798   -11195179.55549  -8714550.34349  20506844.0284   20506849.0054
  21959156.042     2964181.02349   2314063.53349  21959158.1074   21959163.1904
  20487155.238   -12194966.75549  -9489750.03049  20487156.8534   20487161.7164
  22751990.453     9968813.03249   7767582.80949  22751993.1494   22751998.7894
  21518433.620     2099272.747 9   1643259.084 9  21518435.492    21518441.566
  22219273.629   -16845246.49049 -13113626.85949  22219274.8314   22219281.1394
 94  4 27  0 29 30.0000000  0  8 16  6 24  4  5  9 12 20
  24860091.392    -4741799.15649  -3671073.56049  24860096.7784   24860106.7284
  23924839.745    -7912521.81449  -6152636.38449  23924841.3594   23924848.0754
  20505707.723   -11201141.08749  -8719195.68949  20505709.2944   20505714.6744
  21970294.020     3022713.36349   2359673.14349  21970296.3104   21970301.6134
  20480674.856   -12229023.15249  -9516287.47849  20480676.0804   20480680.9624
  22767438.321    10049977.39649   7830827.73149  22767439.0924   22767444.5284
  21529367.586     2156732.056 9   1688032.563 9  21529369.573    21529375.651
  22201533.306   -16938474.98749 -13186272.41349  22201534.0574   22201540.2894
 94  4 27  0 30  0.0000000  0  8 16  6 24  4  5  9 12 20
  24840109.691    -4846827.37149  -3752913.58549  24840110.3854   24840120.5454
  23907967.983    -8001189.35449  -6221727.93049  23907968.4894   23907976.7984
  20504666.637   -11206609.26649  -8723456.59949  20504668.7464   20504674.1504
  21981501.627     3081605.51549   2405563.12649  21981503.5104   21981508.2524
  20474259.298   -12262737.28949  -9542558.23149  20474260.4734   20474265.2734
  22782921.988    10131346.80649   7894232.42549  22782922.7274   22782928.1304
  21540384.830     2214630.124 9   1733147.920 9  21540387.211    21540393.417
  22183826.586   -17031527.11149 -13258780.53449  22183827.1524   22183832.4894
 94  4 27  0 30 30.0000000  0  8 16  6 24  4  5  9 12 20
  24820110.162    -4951923.83549  -3834806.79949  24820111.1624   24820121.2994
  23891109.744    -8089758.07449  -6290742.42549  23891112.9344   23891122.7724
  20503717.920   -11211596.79949  -8727342.97949  20503719.5184   20503724.6214
  21992775.070     3140845.57249   2451724.20249  21992776.8374   21992781.1514
  20467906.552   -12296121.04849  -9568571.54349  20467907.7444   20467912.5334
  22798446.943    10212942.20049   7957813.22449  22798449.3024   22798455.2354
  21551486.057     2272963.387 9   1778602.380 9  21551487.698    21551493.949
  22166153.068   -17124402.03849 -13331150.59049  22166153.6544   22166158.8074
 94  4 27  0 31  0.0000000  0  8 16  6 24  4  5  9 12 20
  24800099.873    -5057091.16649  -3916755.24049  24800098.5964   24800106.5384
  23874271.413    -8178259.65749  -6359704.68549  23874274.1554   23874281.6674
  20502859.685   -11216105.54049  -8730856.27949  20502861.6264   20502866.9514
  22004107.740     3200401.34349   2498131.27949  22004109.8064   22004114.0924
  20461616.428   -12329176.69649  -9594329.18449  20461617.4744   20461622.1174
  22814016.495    10294759.58149   8021566.99349  22814018.4854   22814024.5454
  21562667.349     2331728.147 9   1824393.079 9  21562670.109    21562676.339
  22148512.546   -17217099.32249 -13403382.21349  22148513.3134   22148519.3524
 94  4 27  0 31 30.0000000  0  8 16  6 24  4  5  9 12 20
  24780072.673    -5162334.56659  -3998762.95159  24780071.2304   24780079.8194
  23857440.131    -8266714.81349  -6428630.72049  23857441.8424   23857447.3094
  20502090.503   -11220147.83949  -8734006.11049  20502092.6064   20502098.1154
  22015499.217     3260265.60349   2544778.74549  22015501.5004   22015506.4474
  20455392.611   -12361881.10749  -9619813.14149  20455394.1434   20455398.9784
  22829628.676    10376794.12049   8085489.97049  22829629.5054   22829635.3024
  21573934.140     2390929.002 9   1870523.599 9  21573935.663    21573942.012
  22130907.487   -17309610.39949 -13475468.74149  22130909.0054   22130915.2724
 94  4 27  0 32  0.0000000  0  8 16  6 24  4  5  9 12 20
  24760028.709    -5267656.34259  -4080831.73459  24760029.1404   24760036.1184
  23840611.446    -8355153.09249  -6497543.62849  23840612.9744   23840616.8314
  20501409.444   -11223726.13649  -8736794.38649  20501411.4614   20501416.8344
  22026949.686     3320437.37549   2591665.82949  22026951.9164   22026956.6924
  20449240.953   -12394208.28849  -9645003.14549  20449242.5054   20449247.3084
  22845276.689    10459031.06449   8149570.66849  22845278.5714   22845285.0524
  21585280.371     2450559.107 9   1916988.596 9  21585282.933    21585289.403
  22113338.481   -17401937.94949 -13547412.26149  22113339.8194   22113345.9024
 94  4 27  0 32 30.0000000  0  8 16  6 24  4  5  9 12 20
  24739978.474    -5373030.11259  -4162941.06759  24739978.0084   24739981.0834
  23823784.059    -8443586.12749  -6566452.47049  23823783.6484   23823790.8154
  20500818.273   -11226829.72949  -8739212.76749  20500820.7234   20500826.2434
  22038458.965     3380912.58649   2638789.36249  22038460.2444   22038464.5034
  20443165.857   -12426133.83049  -9669880.18249  20443167.3494   20443171.9834
  22860963.107    10541466.93349   8213806.38749  22860965.3744   22860971.9204
  21596710.321     2510621.554 9   1963790.479 9  21596712.470    21596719.062
  22095805.361   -17494074.79649 -13619207.17749  22095806.8824   22095812.6274
 94  4 27  0 33  0.0000000  0  8 16  6 24  4  5  9 12 20
  24719912.720    -5478460.37649  -4245094.43049  24719914.2264   24719920.2294
  23806949.418    -8532028.09549  -6635368.21749  23806952.1214   23806962.4514
  20500318.381   -11229458.41849  -8741261.09249  20500320.5034   20500326.3344
  22050025.829     3441699.68149   2686155.91349  22050027.1984   22050031.9184
  20437170.020   -12457642.89149  -9694432.69549  20437171.4164   20437176.1404
  22876687.795    10624093.13349   8278190.41149  22876688.8994   22876695.3704
  21608221.927     2571114.308 9   2010927.660 9  21608223.896    21608230.357
  22078308.986   -17586018.40849 -13690851.52549  22078310.6044   22078315.9194
 94  4 27  0 33 30.0000000  0  8 16  6 24  4  5  9 12 20
  24699839.475    -5583921.97149  -4327272.18349  24699844.3824   24699852.2634
  23790122.360    -8620452.75449  -6704270.45849  23790125.1214   23790134.3324
  20499908.974   -11231608.04649  -8742936.11549  20499911.3634   20499916.7534
  22061655.375     3502821.73249   2733783.47949  22061658.0884   22061663.1944
  20431255.232   -12488727.01049  -9718654.08449  20431256.4304   20431260.9404
  22892446.867    10706905.72549   8342719.66149  22892447.6894   22892454.0364
  21619814.818     2632036.862 9   2058399.755 9  21619816.955    21619823.488
  22060850.311   -17677765.32949 -13762342.60949  22060851.8334   22060857.0284
 94  4 27  0 34  0.0000000  0  8 16  6 24  4  5  9 12 20
  24679772.777    -5689385.37849  -4409451.32949  24679776.1854   24679784.8534
  23773306.562    -8708837.32249  -6773141.48549  23773307.5004   23773315.2164
  20499596.864   -11233252.87449  -8744217.79649  20499598.6624   20499603.6794
  22073351.439     3564282.48349   2781674.96649  22073353.5504   22073358.5924
  20425417.491   -12519401.28349  -9742556.11349  20425419.0314   20425423.7204
  22908242.232    10789917.61249   8407404.21949  22908244.2534   22908250.5634
  21631489.661     2693385.586 9   2106203.927 9  21631491.332    21631497.544
  22043429.955   -17769315.00149 -13833679.99249  22043430.7704   22043435.9264
 94  4 27  0 34 30.0000000  0  8 16  6 24  4  5  9 12 20
  24659703.357    -5794846.91149  -4491629.03049  24659707.6794   24659716.1774
  23756499.688    -8797160.16749  -6841964.43149  23756501.0274   23756507.0524
  20499380.937   -11234389.86549  -8745103.75849  20499382.5814   20499387.6534
  22085112.063     3626083.41949   2829831.53349  22085114.2544   22085119.3564
  20419656.051   -12549678.05649  -9766148.39749  20419657.4974   20419662.3694
  22924078.994    10873140.29349   8472253.03149  22924080.8964   22924087.8594
  21643244.427     2755163.268 9   2154342.357 9  21643247.128    21643253.482
  22026047.432   -17860660.29249 -13904858.12249  22026048.4744   22026053.6074
 94  4 27  0 35  0.0000000  0  8 16  6 24  4  5  9 12 20
  24639629.142    -5900333.04249  -4573825.89549  24639632.1304   24639642.0384
  23739707.405    -8885403.32349  -6910725.26449  23739708.1334   23739715.9344
  20499258.980   -11235027.64749  -8745600.72349  20499261.0574   20499266.2064
  22096939.199     3688231.11949   2878258.29449  22096940.6774   22096945.5224
  20413967.667   -12579571.44649  -9789441.94349  20413968.8964   20413973.6654
  22939956.353    10956569.86249   8537263.04649  22939957.4464   22939963.8014
  21655082.902     2817367.111 9   2202812.860 9  21655084.391    21655090.853
  22008703.546   -17951799.99049 -13975876.04549  22008705.2534   22008710.4434
 94  4 27  0 35 30.0000000  0  8 16  6 24  4  5  9 12 20
  24619555.556    -6005843.16149  -4656041.45049  24619555.1004   24619564.4034
  23722932.560    -8973552.79149  -6979413.11049  23722934.3054   23722940.9114
  20499232.331   -11235167.44849  -8745709.65949  20499234.2924   20499239.3304
  22108829.216     3750722.55749   2926952.91349  22108832.2624   22108836.8634
  20408349.664   -12609094.56149  -9812446.96949  20408350.7284   20408355.5704
  22955869.330    11040194.37049   8602424.95949  22955870.9494   22955876.9534
  21666999.427     2879992.694 9   2251611.988 9  21667001.360    21667008.257
  21991398.365   -18042734.16449 -14046733.82549  21991401.0114   21991406.4574
 94  4 27  0 36  0.0000000  0  8 16  6 24  4  5  9 12 20
  24599465.581    -6111399.21449  -4738292.78749  24599468.0934   24599478.7714
  23706177.239    -9061602.49049  -7048023.22449  23706177.7714   23706185.2224
  20499301.289   -11234807.74949  -8745429.36649  20499302.8834   20499308.1474
  22120785.172     3813548.66549   2975908.30249  22120787.9094   22120792.0534
  20402802.329   -12638245.62249  -9835162.08249  20402803.6994   20402808.2444
  22971820.283    11124021.42349   8667744.69749  22971822.1464   22971828.7564
  21678997.156     2943041.755 9   2300741.098 9  21678999.301    21679006.077
  21974135.070   -18133456.82149 -14117426.78549  21974136.5594   21974142.3504
 94  4 27  0 36 30.0000000  0  8 16  6 24  4  5  9 12 20
  24579366.592    -6217032.33949  -4820604.17149  24579367.0704   24579376.2844
  23689437.967    -9149556.81149  -7116558.99149  23689440.0424   23689448.5534
  20499460.288   -11233967.69849  -8744774.77649  20499462.5874   20499468.0874
  22132806.960     3876712.35449   3025126.73949  22132807.9474   22132812.3194
  20397328.389   -12667009.86849  -9857575.77349  20397330.1834   20397334.7624
  22987809.090    11208041.34549   8733214.72949  22987810.7824   22987817.6464
  21691075.884     3006513.834 9   2350199.840 9  21691077.838    21691084.234
  21956912.578   -18223963.99049 -14187951.82749  21956913.7264   21956919.2044
 94  4 27  0 37  0.0000000  0  8 16  6 24  4  5  9 12 20
  24559252.595    -6322736.98249  -4902971.30649  24559252.9654   24559261.2284
  23672718.833    -9237424.01049  -7185026.86549  23672719.8154   23672728.6964
  20499712.650   -11232642.95349  -8743742.49749  20499714.6394   20499719.9714
  22144886.790     3940205.46649   3074601.88549  22144889.4414   22144894.6994
  20391928.004   -12695392.34549  -9879691.98249  20391929.1404   20391933.9914
  23003831.772    11292234.53949   8798819.78049  23003832.4004   23003839.1514
  21703232.904     3070401.946 9   2399982.763 9  21703235.347    21703241.785
  21939730.095   -18314258.11149 -14258310.85749  21939731.3924   21939736.6654
 94  4 27  0 37 30.0000000  0  8 16  6 24  4  5  9 12 20
  24539127.984    -6428490.96949  -4985376.89449  24539128.5154   24539136.6734
  23656013.572    -9325212.55749  -7253433.44449  23656014.2564   23656023.0664
  20500062.586   -11230806.86349  -8742311.77549  20500064.2614   20500069.5874
  22157030.324     4004020.75849   3124328.07649  22157032.8604   22157038.1624
  20386603.402   -12723371.03949  -9901493.56149  20386604.8844   20386609.9354
  23019886.417    11376604.94749   8864562.91449  23019888.0094   23019893.7504
  21715471.848     3134712.710 9   2450095.016 9  21715473.214    21715479.716
  21922589.915   -18404328.56749 -14328495.61149  21922591.3674   21922596.9224
 94  4 27  0 38  0.0000000  0  8 16  6 24  4  5  9 12 20
  24518992.913    -6534289.65849  -5067817.33249  24518995.5114   24519002.9904
  23639318.066    -9412941.15149  -7321793.33549  23639320.9114   23639326.9714
  20500507.941   -11228464.01749  -8740486.17349  20500509.8294   20500515.4114
  22169235.525     4068148.83649   3174297.99649  22169236.5774   22169241.7474
  20381359.443   -12750931.75249  -9922969.43649  20381360.3764   20381365.0394
  23035975.688    11461157.88449   8930448.27649  23035977.7144   23035983.2874
  21727788.049     3199440.863 9   2500532.504 9  21727790.643    21727797.020
  21905491.683   -18494176.35949 -14398506.86749  21905493.4884   21905499.6854
 94  4 27  0 38 30.0000000  0  8 16  6 24  4  5  9 12 20
  24498857.747    -6640105.05549  -5150270.77649  24498860.7174   24498867.5624
  23622634.732    -9500624.54449  -7390118.01649  23622635.0754   23622640.4384
  20501049.495   -11225621.76249  -8738271.42049  20501050.8154   20501056.0174
  22181496.512     4132582.78549   3224506.25749  22181498.2164   22181503.3384
  20376195.571   -12778065.77249  -9944112.82349  20376196.9704   20376201.4344
  23052097.475    11545878.90449   8996464.61249  23052099.4414   23052105.1174
  21740185.379     3264585.903 9   2551294.840 9  21740187.367    21740193.742
  21888438.189   -18583797.27649 -14468341.33749  21888439.5194   21888445.4374
 94  4 27  0 39  0.0000000  0  8 16  6 24  4  5  9 12 20
  24478724.085    -6745910.96649  -5232716.83149  24478724.9454   24478731.2074
  23605957.910    -9588255.83149  -7458402.07849  23605959.3634   23605965.0744
  20501685.347   -11222276.57249  -8735664.78049  20501687.3554   20501692.7434
  22193812.621     4197307.33749   3274940.95949  22193815.0764   22193819.5714
  20371115.945   -12804757.77749  -9964911.78649  20371117.3514   20371122.2894
  23068249.398    11630754.57849   9062601.45649  23068250.5194   23068256.2754
  21752661.750     3330146.792 9   2602381.221 9  21752663.229    21752669.597
  21871428.598   -18673188.05649 -14537996.46949  21871429.5074   21871434.6664
 94  4 27  0 39 30.0000000  0  8 16  6 24  4  5  9 12 20
  24458593.780    -6851707.20349  -5315155.36849  24458593.9484   24458600.0054
  23589292.455    -9675835.04349  -7526645.56149  23589293.4024   23589299.2264
  20502410.670   -11218463.58949  -8732693.62049  20502412.6654   20502418.3304
  22206183.121     4262310.85749   3325593.03849  22206184.6434   22206189.1564
  20366123.938   -12830991.52149  -9985353.66949  20366125.3134   20366130.3694
  23084432.015    11715788.98349   9128861.98449  23084432.9554   23084438.5644
  21765214.913     3396116.670 9   2653786.306 9  21765217.043    21765223.330
  21854461.394   -18762350.77749 -14607473.89549  21854462.4034   21854466.9654
 94  4 27  0 40  0.0000000  0  8 16  6 24  4  5  9 12 20
  24438467.348    -6957485.37049  -5397579.84549  24438464.9704   24438472.2654
  23572636.494    -9763345.27249  -7594835.27249  23572638.7994   23572647.7054
  20503223.295   -11214196.66349  -8729368.73849  20503225.0514   20503230.1454
  22218608.407     4327605.33649   3376471.83449  22218610.0174   22218614.6594
  20361220.262   -12856759.99149 -10005433.00249  20361221.7024   20361226.6844
  23100643.042    11800984.16349   9195247.79049  23100645.1794   23100650.9104
  21777846.987     3462496.441 9   2705510.781 9  21777848.678    21777854.869
  21837537.628   -18851280.48849 -14676769.75749  21837538.9264   21837544.2484
 94  4 27  0 40 30.0000000  0  8 16  6 24  4  5  9 12 20
  24418336.121    -7063260.48049  -5480001.90649  24418335.1994   24418344.1794
  23556000.176    -9850780.27049  -7662966.34449  23556001.3104   23556009.1464
  20504119.520   -11209482.82649  -8725695.61649  20504121.8194   20504127.3004
  22231088.148     4393193.15649   3427579.20649  22231090.6594   22231095.9744
  20356403.092   -12882077.08449 -10025160.60649  20356404.2684   20356409.0274
  23116884.547    11886330.67149   9261751.51049  23116886.2544   23116891.4654
  21790554.957     3529280.768 9   2757550.488 9  21790557.064    21790563.297
  21820658.359   -18939978.03549 -14745884.71349  21820660.2164   21820666.0634
 94  4 27  0 41  0.0000000  0  8 16  6 24  4  5  9 12 20
  24398207.415    -7169048.80249  -5562434.23649  24398204.2084   24398212.8934
  23539380.690    -9938125.52549  -7731027.51949  23539381.7004   23539387.4434
  20505103.426   -11204317.00549  -8721670.29549  20505105.0274   20505110.3024
  22243626.422     4459081.75549   3478920.95649  22243628.4244   22243633.2014
  20351668.693   -12906954.83149 -10044545.86049  20351670.0094   20351674.7294
  23133158.103    11971846.73849   9328387.35349  23133158.9734   23133164.2334
  21803341.193     3596469.327 9   2809905.178 9  21803342.941    21803348.957
  21803825.588   -19028439.19549 -14814815.46949  21803827.0794   21803832.4674
 94  4 27  0 41 30.0000000  0  8 16  6 24  4  5  9 12 20
  24378072.407    -7274850.92549  -5644877.33349  24378071.3114   24378079.9894
  23522776.571   -10025381.43849  -7799019.06649  23522777.8584   23522783.5574
  20506174.203   -11198687.30349  -8717283.51349  20506176.1954   20506181.4294
  22256224.680     4525281.99849   3530505.54949  22256225.9514   22256230.6354
  20347013.665   -12931416.74349 -10063607.08649  20347015.0564   20347019.8364
  23149467.067    12057550.14049   9395169.17549  23149467.9854   23149473.4714
  21816203.864     3664065.075 9   2862577.157 9  21816205.917    21816212.027
  21787039.199   -19116656.50949 -14883556.21149  21787040.2254   21787045.4404
 94  4 27  0 42  0.0000000  0  8 16  6 24  4  5  9 12 20
  24357929.229    -7380682.37649  -5727343.28649  24357931.3814   24357939.3454
  23506189.796   -10112549.55449  -7866942.20949  23506190.4084   23506194.0734
  20507335.675   -11192577.18149  -8712522.37849  20507338.2614   20507343.9814
  22268879.251     4591793.48549   3582332.66149  22268882.3574   22268888.0114
  20342432.805   -12955487.59749 -10082363.59149  20342434.5114   20342439.5384
  23165808.935    12143428.96849   9462087.69849  23165810.4914   23165816.0314
  21829143.458     3732063.606 9   2915562.995 9  21829145.619    21829152.205
  21770298.415   -19204629.78549 -14952106.79149  21770299.4334   21770304.4634
 94  4 27  0 42 30.0000000  0  8 16  6 24  4  5  9 12 20
  24337788.469    -7486530.72749  -5809822.41249  24337789.8144   24337797.3904
  23489619.346   -10199619.13149  -7934788.59249  23489621.3384   23489625.0424
  20508590.796   -11185987.80549  -8707387.79949  20508592.9074   20508597.9994
  22281591.171     4658592.76849   3634384.03749  22281593.9804   22281599.6054
  20337924.552   -12979182.72149 -10100827.33049  20337925.6294   20337930.2944
  23182184.124    12229486.73149   9529145.64549  23182186.1964   23182192.1014
  21842160.695     3800466.191 9   2968863.683 9  21842162.236    21842168.529
  21753604.531   -19292353.34049 -15020462.79749  21753605.8514   21753611.2664
 94  4 27  0 43  0.0000000  0  8 16  6 24  4  5  9 12 20
  24317647.956    -7592375.27649  -5892298.60649  24317648.7974   24317654.6964
  23473067.670   -10286591.12149  -8002558.93049  23473069.7724   23473075.5584
  20509936.935   -11178913.23749  -8701875.14849  20509938.8894   20509944.2484
  22294354.452     4725654.75249   3686640.11249  22294355.9874   22294360.4324
  20333486.006   -13002503.86849 -10118999.65449  20333487.5884   20333492.1354
  23198593.222    12315716.27649   9596337.45649  23198595.0954   23198600.5904
  21855252.567     3869268.147 9   3022475.583 9  21855254.766    21855261.265
  21736957.739   -19379827.17449 -15088624.21849  21736959.5944   21736965.6104
 94  4 27  0 43 30.0000000  0  8 16  6 24  4  5  9 12 20
  24297510.589    -7698200.69749  -5974759.89349  24297510.5044   24297515.8104
  23456532.419   -10373486.87549  -8070269.86049  23456534.3194   23456540.1424
  20511377.115   -11171347.49349  -8695979.76049  20511378.7054   20511384.1174
  22307164.650     4792979.76649   3739101.14049  22307167.4154   22307171.7224
  20329124.688   -13025428.06749 -10136862.65849  20329125.5684   20329129.8964
  23215032.672    12402107.45349   9663655.21849  23215034.1024   23215040.2534
  21868421.441     3938469.112 9   3076398.383 9  21868423.159    21868429.681
  21720360.908   -19467046.95949 -15156587.67749  21720362.5404   21720368.2434
 94  4 27  0 44  0.0000000  0  8 16  6 24  4  5  9 12 20
  24277382.930    -7803987.98849  -6057191.46649  24277380.4904   24277385.6714
  23440010.108   -10460312.84649  -8137926.41949  23440011.9384   23440017.5874
  20512908.633   -11163295.64649  -8689705.59149  20512911.1804   20512916.3514
  22320026.726     4860562.44049   3791762.94949  22320028.2254   22320032.8464
  20324841.331   -13047933.84549 -10154399.62149  20324842.6514   20324847.4004
  23231501.378    12488649.31449   9731090.38949  23231502.7914   23231508.7394
  21881665.697     4008067.926 9   3130631.194 9  21881667.085    21881673.719
  21703813.120   -19554009.33149 -15224350.54749  21703814.3104   21703819.4474
 94  4 27  0 44 30.0000000  0  8 16  6 24  4  5  9 12 20
  24257260.226    -7909720.02549  -6139579.98049  24257259.3924   24257265.5804
  23423497.989   -10547082.86449  -8205539.38149  23423500.1894   23423506.1194
  20514534.456   -11154754.64349  -8683050.26149  20514536.1954   20514541.7484
  22332935.909     4928406.66949   3844628.55849  22332938.3064   22332943.1404
  20320641.696   -13070002.42649 -10171595.91649  20320643.0194   20320648.1044
  23247998.317    12575343.17949   9798644.00049  23248000.5724   23248006.3044
  21894984.509     4078062.018 9   3185172.007 9  21894986.667    21894993.635
  21687314.375   -19640712.35749 -15291911.32549  21687315.1034   21687320.3004
 94  4 27  0 45  0.0000000  0  8 16  6 24  4  5  9 12 20
  24237146.746    -8015404.86849  -6221931.72149  24237148.0304   24237155.6804
  23406993.079   -10633820.83749  -8273127.35949  23406994.6644   23407000.1804
  20516255.239   -11145712.30049  -8676004.28049  20516257.3424   20516262.2854
  22345901.320     4996548.20749   3897725.83749  22345904.9714   22345909.9854
  20316529.347   -13091613.75049 -10188435.91349  20316530.5554   20316535.3094
  23264522.422    12662174.27849   9866304.55449  23264523.5754   23264529.8674
  21908379.613     4148450.100 9   3240019.831 9  21908381.540    21908388.025
  21670864.479   -19727152.41249 -15359267.19549  21670865.8574   21670871.4504
 94  4 27  0 45 30.0000000  0  8 16  6 24  4  5  9 12 20
  24217043.930    -8121040.10649  -6304244.80649  24217045.1304   24217055.0084
  23390494.624   -10720518.43249  -8340683.88849  23390496.0934   23390502.0894
  20518070.213   -11136173.07649  -8668571.12349  20518072.2234   20518077.4604
  22358931.135     5065009.81049   3951072.52849  22358932.9324   22358937.9514
  20312506.034   -13112754.38349 -10204909.14049  20312507.7584   20312512.3184
  23281069.484    12749133.91449   9934065.26449  23281071.8504   23281077.3984
  21921848.832     4219233.360 9   3295175.595 9  21921850.984    21921857.841
  21654467.656   -19813324.00649 -15426413.87049  21654468.5544   21654474.1504
 94  4 27  0 46  0.0000000  0  8 16  6 24  4  5  9 12 20
  24196949.985    -8226629.55849  -6386522.20149  24196951.9664   24196961.5974
  23374009.238   -10807143.79749  -8408184.14249  23374011.7764   23374017.6564
  20519977.781   -11126150.04549  -8660760.96949  20519979.4234   20519985.1084
  22372018.992     5133782.98749   4004661.99049  22372020.1704   22372025.3344
  20308570.009   -13133441.83549 -10221029.23049  20308571.2714   20308575.6334
  23297641.204    12836218.33649  10001923.19249  23297643.5414   23297649.3014
  21935392.504     4290406.189 9   3350634.905 9  21935394.885    21935401.505
  21638120.814   -19899228.07849 -15493352.09249  21638121.8134   21638127.1524
 94  4 27  0 46 30.0000000  0  8 16  6 24  4  5  9 12 20
  24176865.264    -8332188.12349  -6468775.52449  24176865.2784   24176874.3314
  23357541.880   -10893683.65949  -8475617.75949  23357543.7034   23357550.1844
  20521976.622   -11115646.11349  -8652576.08549  20521978.6524   20521983.9324
  22385163.318     5202864.02549   4058491.36049  22385165.5694   22385171.4944
  20304719.160   -13153676.36449 -10236796.40049  20304720.5744   20304725.2144
  23314236.814    12923427.34549  10069878.20549  23314238.9314   23314244.7304
  21949010.499     4361967.740 9   3406397.129 9  21949012.631    21949019.215
  21621825.717   -19984860.77849 -15560078.85349  21621826.2674   21621831.9044
 94  4 27  0 47  0.0000000  0  8 16  6 24  4  5  9 12 20
  24156782.870    -8437715.85949  -6551004.85549  24156783.5064   24156792.6034
  23341093.209   -10980124.86649  -8542974.49849  23341094.4724   23341100.9174
  20524064.175   -11104672.31349  -8644025.07249  20524066.4494   20524072.3504
  22398365.290     5272240.62149   4112551.02849  22398367.9194   22398373.9044
  20300953.873   -13173463.01849 -10252214.57349  20300955.1994   20300960.1304
  23330854.624    13010753.54249  10137924.54849  23330856.3214   23330862.7004
  21962701.493     4433915.305 9   3462460.147 9  21962703.719    21962710.181
  21605580.601   -20070219.94049 -15626592.47449  21605582.1024   21605588.3974
 94  4 27  0 47 30.0000000  0  8 16  6 24  4  5  9 12 20
  24136708.869    -8543203.06849  -6633202.59549  24136710.1474   24136718.8744
  23324665.806   -11066451.49749  -8610241.94349  23324667.2474   23324673.7624
  20526241.275   -11093234.76449  -8635112.69249  20526243.1984   20526248.6884
  22411620.549     5341891.52349   4166824.44749  22411622.4314   22411627.2414
  20297274.574   -13192799.83249 -10267282.21449  20297275.7804   20297280.3704
  23347499.237    13098221.10049  10206081.04649  23347500.6484   23347506.8654
  21976466.907     4506250.621 9   3518825.312 9  21976468.817    21976475.041
  21589391.677   -20155299.34349 -15692888.10749  21589392.8304   21589397.9694
 94  4 27  0 48  0.0000000  0  8 16  6 24  4  5  9 12 20
  24116642.871    -8648655.23049  -6715373.04749  24116644.2904   24116651.3284
  23308255.891   -11152683.37149  -8677435.55349  23308257.6944   23308263.8014
  20528504.956   -11081335.91649  -8625840.85849  20528507.4864   20528512.7044
  22424925.329     5411803.33949   4221301.16649  22424926.2924   22424930.4084
  20293678.046   -13211699.62749 -10282009.31949  20293679.3894   20293683.9214
  23364169.857    13185827.92249  10274346.04849  23364171.7284   23364178.0644
  21990305.448     4578969.176 9   3575489.092 9  21990306.960    21990313.663
  21573255.551   -20240098.76349 -15758965.55749  21573256.7644   21573260.7184
 94  4 27  0 48 30.0000000  0  8 16  6 24  4  5  9 12 20
  24096585.623    -8754058.15049  -6797505.12049  24096586.2214   24096593.5134
  23291859.538   -11238848.12049  -8744576.87049  23291860.9734   23291866.9664
  20530859.946   -11068964.05249  -8616200.44649  20530861.7044   20530866.9824
  22438277.921     5481978.87949   4275983.38649  22438280.1964   22438284.1494
  20290165.937   -13230153.62049 -10296389.05749  20290167.2294   20290171.9954
  23380865.398    13273562.49549  10342710.59049  23380867.2364   23380873.2964
  22004215.596     4652069.136 9   3632450.059 9  22004217.365    22004224.291
  21557171.946   -20324615.13349 -15824822.44749  21557172.9774   21557177.7444
 94  4 27  0 49  0.0000000  0  8 16  6 24  4  5  9 12 20
  24076538.465    -8859397.25849  -6879587.47549  24076540.3494   24076548.9614
  23275475.440   -11324945.36149  -8811665.58049  23275477.1474   23275483.3024
  20533304.709   -11056116.56849  -8606189.41449  20533306.5944   20533312.1314
  22451683.088     5552424.82849   4330876.30649  22451685.2804   22451690.0564
  20286738.951   -13248165.12249 -10310423.99649  20286740.1674   20286744.7834
  23397584.336    13361427.80949  10411177.01549  23397587.2804   23397593.7094
  22018197.893     4725548.752 9   3689706.863 9  22018199.829    22018206.895
  21541142.252   -20408845.62949 -15890456.58649  21541143.7204   21541149.4894
 94  4 27  0 49 30.0000000  0  8 16  6 24  4  5  9 12 20
  24056508.096    -8964667.34449  -6961616.02449  24056508.0184   24056516.9174
  23259104.931   -11410974.77049  -8878701.44349  23259106.3174   23259112.2724
  20535841.564   -11042787.29249  -8595802.96349  20535843.0474   20535848.4124
  22465139.867     5623137.31849   4385976.92949  22465141.3914   22465145.8324
  20283395.332   -13265736.87849 -10324116.27349  20283396.5394   20283400.9244
  23414331.220    13449424.50749  10479745.81949  23414332.8654   23414338.4744
  22032252.769     4799406.441 9   3747258.276 9  22032254.610    22032261.088
  21525168.447   -20492787.25349 -15955865.62949  21525170.2154   21525176.1044
 94  4 27  0 50  0.0000000  0  8 16  6 24  4  5  9 12 20
  24036488.546    -9069861.33549  -7043585.27249  24036489.9634   24036498.5944
  23242750.068   -11496921.05849  -8945672.52149  23242751.3304   23242757.3664
  20538470.250   -11028970.00349  -8585036.23849  20538472.2504   20538477.5694
  22478647.705     5694119.16649   4441287.43449  22478649.0184   22478653.1644
  20280135.062   -13282867.88449 -10337465.11149  20280136.5484   20280140.9524
  23431099.969    13537541.91149  10548408.68049  23431101.0664   23431106.4644
  22046378.629     4873640.329 9   3805102.846 9  22046381.014    22046387.107
  21509251.643   -20576436.83449 -16021047.10449  21509252.7914   21509257.9404
 94  4 27  0 50 30.0000000  0  8 16  6 24  4  5  9 12 20
  24016484.282    -9174973.12249  -7125490.44749  24016487.9894   24016497.5514
  23226415.557   -11582764.74149  -9012563.65349  23226416.4504   23226421.7154
  20541191.273   -11014676.05149  -8573898.09149  20541192.7874   20541197.7304
  22492202.079     5765356.21749   4496796.80549  22492204.5694   22492209.3114
  20276960.169   -13299549.84549 -10350464.04849  20276961.5774   20276966.3894
  23447891.217    13625781.10749  10617166.44249  23447892.2434   23447897.7744
  22060575.700     4948242.795 9   3863234.610 9  22060577.319    22060583.590
  21493388.830   -20659797.06349 -16086003.10749  21493389.8454   21493395.0374
 94  4 27  0 51  0.0000000  0  8 16  6 24  4  5  9 12 20
  23996500.132    -9280001.09449  -7207330.33049  23996502.8824   23996510.7784
  23210105.499   -11668474.14049  -9079350.14149  23210106.2624   23210112.0284
  20543999.424   -10999915.75949  -8562396.55949  20544001.2424   20544006.5134
  22505807.805     5836853.07349   4552508.62849  22505809.9714   22505815.2954
  20273871.797   -13315781.68549 -10363112.23949  20273873.0814   20273877.7654
  23464707.561    13714157.12149  10686030.81949  23464709.6944   23464715.8374
  22074842.093     5023217.331 9   3921656.292 9  22074844.350    22074851.316
  21477581.810   -20742859.78249 -16150727.28849  21477583.0934   21477588.7284
 94  4 27  0 51 30.0000000  0  8 16  6 24  4  5  9 12 20
  23976532.742    -9384945.06549  -7289104.77949  23976532.3664   23976540.9454
  23193818.467   -11754054.54249  -9146036.11449  23193819.9734   23193826.3244
  20546895.326   -10984695.83849  -8550536.87849  20546897.5884   20546902.5874
  22519462.298     5908601.11449   4608416.17349  22519463.9204   22519468.6944
  20270868.918   -13331561.15649 -10375407.93649  20270870.3974   20270875.1694
  23481549.628    13802659.50549  10754993.67149  23481551.9234   23481557.7734
  22089179.055     5098559.427 9   3980364.383 9  22089181.570    22089188.667
  21461832.154   -20825625.07049 -16215219.70149  21461833.8884   21461839.0784
 94  4 27  0 52  0.0000000  0  8 16  6 24  4  5  9 12 20
  23956579.473    -9489797.386 9
  23177556.312   -11839511.76249  -9212626.10549  23177558.1334   23177563.1784
  20549877.341   -10969023.74149  -8538324.86049  20549879.9154   20549884.9304
  22533165.399     5980614.99149   4664530.86149  22533167.3734   22533172.4514
  20267954.633   -13346879.04449 -10387343.95749  20267955.4104   20267960.1824
  23498414.767    13891281.95249  10824050.08349  23498416.6464   23498422.2754
  22103588.584     5174269.494 9   4039359.218 9  22103589.045    22103595.603
  21446140.428   -20908087.41349 -16279476.05049  21446141.7324   21446146.8354
 94  4 27  0 52 30.0000000  0  8 16  6 24  4  5  9 12 20
  23936646.757    -9594556.03159  -7452437.83759  23936645.5364   23936651.4224
  23161312.710   -11924871.50949  -9279140.14349  23161314.6624   23161319.7534
  20552942.939   -10952916.82149  -8525774.00849  20552944.6964   20552950.4064
  22546917.148     6052889.64149   4720848.75949  22546920.2464   22546925.8234
  20265124.295   -13361743.81749 -10398926.89649  20265126.3524   20265131.2114
  23515300.243    13980012.31049  10893190.57849  23515301.6294   23515307.3714
  22118062.887     5250343.132 9   4098637.353 9  22118065.128    22118072.025
  21430506.062   -20990246.39949 -16343496.02249  21430507.3464   21430512.4004
 94  4 27  0 53  0.0000000  0  8 16  6 24  4  5  9 12 20
  23916724.656    -9699228.34359  -7534000.60559  23916725.3544   23916733.2664
  23145083.085   -12010161.48949  -9345599.81449  23145084.8024   23145090.0284
  20556090.308   -10936376.74749  -8512885.63349  20556092.3464   20556097.7514
  22560722.813     6125427.76049   4777371.95249  22560724.2764   22560729.1684
  20262382.720   -13376158.22549 -10410158.89649  20262383.8614   20262388.4284
  23532203.556    14068843.14149  10962409.36849  23532204.5734   23532211.1484
  22132607.683     5326775.658 9   4158195.135 9  22132609.951    22132616.245
  21414929.330   -21072102.07649 -16407279.65449  21414930.5614   21414936.0514
 94  4 27  0 53 30.0000000  0  8 16  6 24  4  5  9 12 20
  23896821.420    -9803810.71049  -7615493.26449  23896823.9324   23896831.6194
  23128863.471   -12095399.05449  -9412018.63549  23128864.7184   23128869.4974
  20559322.720   -10919394.54449  -8499652.75249  20559324.2314   20559329.1724
  22574572.010     6198221.91749   4834094.65149  22574576.1364   22574581.2734
  20259727.481   -13390108.23249 -10421029.02649  20259729.3404   20259733.9414
  23549123.298    14157760.99949  11031695.97449  23549125.2604   23549131.5114
  22147222.132     5403568.756 9   4218033.885 9  22147223.422    22147229.539
  21399411.867   -21153647.70649 -16470821.69349  21399412.8034   21399418.7644
 94  4 27  0 54  0.0000000  0  8 16  6 24  4  5  9 12 20
  23876938.216    -9908314.82849  -7696924.93849  23876938.4014   23876945.1894
  23112652.853   -12180587.35749  -9478399.09049  23112654.2814   23112658.1404
  20562636.577   -10901973.38849  -8486077.82749  20562638.8294   20562644.2944
  22588474.310     6271258.60349   4891006.33749  22588475.1384   22588479.7804
  20257161.680   -13403592.19249 -10431536.00649  20257163.0274   20257167.9314
  23566060.036    14246762.80849  11101047.98249  23566062.4064   23566068.0924
  22161902.251     5480716.884 9   4278149.279 9  22161904.091    22161910.602
  21383952.768   -21234884.11949 -16534122.78049  21383953.9994   21383960.0064
 94  4 27  0 54 30.0000000  0  8 16  6 24  4  5  9 12 20
  23857068.599   -10012740.52049  -7778295.51249  23857065.3434   23857073.2824
  23096454.305   -12265707.65049  -9544726.54149  23096455.9474   23096460.8264
  20566036.736   -10884105.57649  -8472154.85449  20566039.2224   20566044.4554
  22602415.918     6344521.39049   4948094.19549  22602417.2984   22602421.6284
  20254684.694   -13416607.78449 -10441678.02649  20254686.3304   20254691.1754
  23583014.496    14335854.18149  11170469.77149  23583016.1554   23583021.8774
  22176650.479     5558220.805 9   4338541.909 9  22176652.482    22176659.378
  21368554.036   -21315805.45849 -16597178.35649  21368555.3154   21368560.8054
 94  4 27  0 55  0.0000000  0  8 16  6 24  4  5  9 12 20
  23837210.694   -10117099.18649  -7859613.84349  23837207.1204   23837215.0604
  23080272.310   -12350741.71149  -9610986.80249  23080273.9084   23080279.9754
  20569526.306   -10865770.09049  -8457867.46949  20569528.3824   20569533.6224
  22616402.045     6418020.73849   5005366.38449  22616403.2404   22616408.2744
  20252299.303   -13429144.89549 -10451447.20649  20252300.7694   20252305.4654
  23599984.721    14425034.60749  11239960.96149  23599986.1904   23599992.3824
  22191466.793     5636077.572 9   4399209.478 9  22191468.244    22191475.193
  21353216.275   -21396409.96549 -16659987.05449  21353216.9924   21353221.7444
 94  4 27  0 55 30.0000000  0  8 16  6 24  4  5  9 12 20
  23817363.029   -10221382.78849  -7940873.70349  23817362.1404   23817369.3844
  23064108.085   -12435676.56749  -9677169.73649  23064110.2084   23064118.1334
  20573106.722   -10846950.85449  -8443203.12649  20573109.2494   20573114.9504
  22630431.445     6491754.33749   5062821.12749  22630433.9444   22630439.3744
  20250003.785   -13441208.51449 -10460847.42749  20250005.1624   20250009.7754
  23616972.842    14514306.87249  11309523.72149  23616974.1354   23616980.2894
  22206348.403     5714285.554 9   4460150.722 9  22206350.818    22206357.393
  21337938.148   -21476694.29849 -16722546.25849  21337939.0864   21337943.9904
 94  4 27  0 56  0.0000000  0  8 16  6 24  4  5  9 12 20
  23797534.051   -10325580.51549  -8022066.67549  23797534.2534   23797541.6664
  23047967.753   -12520505.95149  -9743270.49049  23047968.8974   23047975.4284
  20576780.085   -10827654.26249  -8428166.82649  20576781.9034   20576786.9124
  22644509.655     6565727.13149   5120462.23849  22644510.7544   22644515.9504
  20247795.675   -13452813.73249 -10469890.46149  20247796.7994   20247801.5224
  23633980.487    14603683.08449  11379167.45649  23633981.7434   23633988.0234
  22221297.395     5792840.850 9   4521362.600 9  22221299.474    22221305.508
  21322721.361   -21556657.37449 -16784855.13749  21322722.7034   21322727.9644
 94  4 27  0 56 30.0000000  0  8 16  6 24  4  5  9 12 20
  23777725.501   -10429671.42549  -8103176.40049  23777727.4614   23777733.8344
  23031846.257   -12605224.62349  -9809284.98249  23031848.0524   23031854.8374
  20580542.169   -10807881.39149  -8412759.39249  20580544.1954   20580549.4624
  22658632.495     6639953.65449   5178301.06549  22658635.1274   22658640.3034
  20245675.074   -13463957.64049 -10478574.02549  20245676.3474   20245680.8774
  23651007.368    14693163.10249  11448892.09149  23651009.2684   23651015.7164
  22236312.670     5871744.228 9   4582845.726 9  22236314.137    22236320.263
  21307567.634   -21636293.54349 -16846909.27149  21307568.9004   21307574.0284
 94  4 27  0 57  0.0000000  0  8 16  6 24  4  5  9 12 20
  23757940.474   -10533643.75549  -8184193.70849  23757942.3794   23757949.4544
  23015745.901   -12689838.90549  -9875218.13649  23015746.7814   23015752.9794
  20584394.609   -10787635.59949  -8396983.44849  20584396.8174   20584402.1904
  22672807.342     6714436.05949   5236339.27449  22672808.8624   22672813.8074
  20243641.801   -13474638.00649 -10486896.38549  20243643.5304   20243648.3894
  23668056.183    14782750.96749  11518700.76249  23668057.5474   23668064.0094
  22251392.586     5950995.816 9   4644600.175 9  22251395.352    22251401.848
  21292476.077   -21715597.79849 -16908704.78049  21292477.2804   21292482.6594
 94  4 27  0 57 30.0000000  0  8 16  6 24  4  5  9 12 20
  23738181.500   -10637491.51749  -8265113.96349  23738180.2234   23738187.7544
  22999661.406   -12774359.64849  -9941078.40249  22999663.3114   22999668.6224
  20588330.337   -10766958.35949  -8380871.31149  20588331.9894   20588336.9714
  22687022.930     6789138.04049   5294548.58449  22687024.9634   22687028.5574
  20241696.296   -13484865.54849 -10494865.89949  20241697.3514   20241702.1364
  23685122.452    14872437.75049  11588586.50849  23685124.5374   23685129.9494
  22266537.848     6030585.420 9   4706618.014 9  22266540.580    22266547.137
  21277446.635   -21794575.51149 -16970245.84149  21277447.9954   21277453.6044
 94  4 27  0 58  0.0000000  0  8 16  6 24  4  5  9 12 20
  23718442.951   -10741209.33749  -8345932.96849  23718442.7834   23718450.4514
  22983597.622   -12858777.47449 -10006858.48749  22983598.9994   22983604.6184
  20592344.248   -10745865.33849  -8364435.19049  20592345.8074   20592350.7584
  22701281.588     6864065.94749   5352933.93949  22701282.9934   22701287.1194
  20239839.295   -13494620.89449 -10502467.46949  20239840.9114   20239845.8054
  23702204.504    14962208.42449  11658537.62049  23702206.7654   23702212.6034
  22281749.395     6110515.834 9   4768901.423 9  22281751.070    22281757.510
  21262482.086   -21873218.73149 -17031526.25649  21262483.1634   21262488.4764
 94  4 27  0 58 30.0000000  0  8 16  6 24  4  5  9 12 20
  23698728.562   -10844804.35649  -8426656.28949  23698729.2364   23698737.2294
  22967552.939   -12943092.00849 -10072558.08549  22967554.3244   22967559.5244
  20596439.550   -10724342.80749  -8347664.38849  20596441.2844   20596446.2744
  22715578.651     6939212.27249   5411489.48949  22715582.0864   22715587.4674
  20238076.413   -13503888.52049 -10509688.99849  20238077.6014   20238082.2104
  23719301.016    15052046.95949  11728541.59949  23719301.9294   23719308.8384
  22297023.379     6190783.943 9   4831447.968 9  22297025.312    22297031.792
  21247581.078   -21951525.69049 -17092544.64949  21247581.9484   21247587.1944
 94  4 27  0 59  0.0000000  0  8 16  6 24  4  5  9 12 20
  23679036.259   -10948282.76349  -8507288.76049  23679038.4204   23679045.7794
  22951524.645   -13027312.70849 -10138184.57149  22951526.0534   22951532.0564
  20600615.881   -10702392.21149  -8330560.03349  20600618.1714   20600622.9644
  22729920.568     7014570.12049   5470209.87149  22729922.3004   22729928.3054
  20236403.904   -13512674.05949 -10516534.87549  20236405.5114   20236410.2604
  23736407.256    15141939.02849  11798587.30349  23736408.4234   23736414.8314
  22312360.461     6271386.013 9   4894254.746 9  22312363.222    22312369.949
  21232743.306   -22029495.16049 -17153300.05949  21232744.4554   21232749.9564
 94  4 27  0 59 30.0000000  0  8 16  6 24  4  5  9 12 20
  23659371.661   -11051635.44449  -8587823.26449  23659370.4664   23659377.2224
  22935514.440   -13111437.01149 -10203735.93849  22935517.1984   22935523.6014
  20604875.740   -10680007.21849  -8313117.18949  20604877.8544   20604882.9994
  22744303.704     7090155.67849   5529107.69149  22744305.6584   22744311.7744
  20234824.769   -13520975.07049 -10523003.20849  20234825.8884   20234830.7544
  23753522.791    15231877.84949  11868669.44149  23753523.2724   23753529.3794
  22327763.397     6352320.849 9   4957320.805 9  22327765.026    22327771.417
  21217970.689   -22107123.47649 -17213789.64449  21217972.1734   21217977.8994
 94  4 27  1  0  0.0000000  0  8 16  6 24  4  5  9 12 20
  23639723.833   -11154868.30249  -8668264.40749  23639726.0024   23639733.7544
  22919523.733   -13195471.16649 -10269217.05549  22919526.0874   22919533.2104
  20609223.271   -10657160.85149  -8295314.82949  20609225.6244   20609230.7184
  22758733.358     7165984.39949   5588194.99149  22758735.1264   22758740.9324
  20233337.096   -13528794.09549 -10529095.96449  20233338.0764   20233342.9204
  23770644.952    15321854.97149  11938781.41649  23770644.7354   23770651.6364
  22343227.607     6433583.395 9   5020642.237 9  22343229.239    22343235.339
  21203264.296   -22184410.78249 -17274013.49949  21203265.3274   21203270.7724
 94  4 27  1  0 30.0000000  0  8 16  6 24  4  5  9 12 20
  23620105.180   -11257967.40849  -8748601.33049  23620106.8064   23620114.1754
  22903552.645   -13279408.40049 -10334622.66049  22903554.1344   22903559.5204
  20613659.073   -10633850.04149  -8277150.56649  20613661.1554   20613666.3864
  22773207.965     7242056.06649   5647471.59249  22773211.4054   22773216.9844
  20231938.778   -13536140.09349 -10534820.12249  20231940.1454   20231945.1084
  23787776.266    15411891.87749  12008939.97349  23787778.0684   23787784.6374
  22358752.697     6515173.556 9   5084218.941 9  22358755.104    22358761.647
  21188623.282   -22261352.20449 -17333967.84149  21188624.2084   21188629.0764
 94  4 27  1  1  0.0000000  0  8 16  6 24  4  5  9 12 20
  23600517.103   -11360917.67449  -8828822.26049  23600515.8074   23600522.6764
  22887599.534   -13363247.17249 -10399951.53749  22887600.8514   22887606.8804
  20618180.615   -10610088.04249  -8258634.71949  20618182.8304   20618188.3874
  22787732.132     7318369.85849   5706936.85949  22787733.7254   22787739.2654
  20230631.448   -13543009.95449 -10540173.26049  20230632.8804   20230637.7394
  23804923.641    15502004.02249  12079157.16649  23804926.1264   23804932.8884
  22374341.710     6597091.229 9   5148050.860 9  22374343.545    22374350.056
  21174047.591   -22337942.85949 -17393648.85649  21174049.0174   21174054.2724
 94  4 27  1  1 30.0000000  0  8 16  6 24  4  5  9 12 20
  23580957.835   -11463708.90049  -8908919.25049  23580955.6494   23580962.7084
  22871663.863   -13446982.64149 -10465199.93849  22871666.5764   22871671.0664
  20622789.676   -10585869.48149  -8239763.10749  20622791.7444   20622797.4664
  22802295.948     7394909.10449   5766577.80649  22802298.5654   22802303.5574
  20229416.864   -13549391.57449 -10545145.95549  20229418.5644   20229423.0134
  23822087.469    15592201.15049  12149440.57549  23822090.8304   23822096.6654
  22389991.058     6679329.507 9   5212132.597 9  22389992.725    22389999.502
  21159538.386   -22414184.58449 -17453057.98549  21159540.2994   21159545.7604
 94  4 27  1  2  0.0000000  0  8 16  6 24  4  5  9 12 20
  23561427.691   -11566337.94649  -8988889.86449  23561426.4224   23561433.3664
  22855750.006   -13530617.39649 -10530369.86449  22855751.4004   22855756.1674
  20627485.196   -10561195.67449  -8220536.76449  20627487.3874   20627492.0974
  22816901.346     7471656.59549   5826381.01949  22816903.2334   22816907.6214
  20228299.623   -13555267.74649 -10549724.79249  20228300.5814   20228304.9734
  23839270.547    15682487.50849  12219793.52549  23839272.5764   23839276.9324
  22405700.474     6761887.885 9   5276463.774 9  22405703.089    22405709.528
  21145099.047   -22490073.04949 -17512191.84849  21145099.8724   21145104.8584
 94  4 27  1  2 30.0000000  0  8 16  6 24  4  5  9 12 20
  23541928.809   -11668785.69049  -9068719.21649  23541930.6614   23541937.5304
  22839854.231   -13614147.52749 -10595458.25049  22839855.9674   22839860.6014
  20632265.169   -10536077.74749  -8200964.36249  20632266.9014   20632271.6514
  22831545.204     7548603.64249   5886339.72149  22831546.1944   22831550.5944
  20227276.190   -13560639.98449 -10553910.95149  20227277.9344   20227282.7034
  23856468.921    15772865.73249  12290218.04749  23856470.6254   23856475.6024
  22421472.546     6844767.716 9   5341045.429 9  22421474.649    22421481.475
  21130726.542   -22565601.63949 -17571045.28749  21130727.3344   21130732.5174
 94  4 27  1  3  0.0000000  0  8 16  6 24  4  5  9 12 20
  23522468.243   -11771065.41149  -9148417.64949  23522468.8324   23522473.6904
  22823976.882   -13697585.23949 -10660474.61149  22823978.2974   22823983.3094
  20637127.943   -10510520.36849  -8181049.51949  20637130.2834   20637135.5394
  22846222.811     7625746.01049   5946450.63449  22846225.9974   22846231.2064
  20226351.004   -13565508.48149 -10557704.58449  20226351.7614   20226356.5634
  23873681.099    15863318.83649  12360700.91349  23873682.9554   23873688.5394
  22437304.842     6927963.905 9   5405873.589 9  22437306.632    22437313.258
  21116421.444   -22640770.76649 -17629618.62249  21116422.7384   21116427.7294
 94  4 27  1  3 30.0000000  0  8 16  6 24  4  5  9 12 20
  23503036.272   -11873187.99049  -9227993.64449  23503034.6714   23503039.5264
  22808118.948   -13780918.67749 -10725409.72049  22808120.0944   22808124.8164
  20642075.742   -10484525.34449  -8160793.65649  20642077.0594   20642082.2044
  22860942.595     7703091.86249   6006720.10849  22860944.4764   22860949.6194
  20225517.063   -13569884.10249 -10561114.16549  20225518.8454   20225523.9094
  23890902.577    15953820.72549  12431221.80449  23890904.7714   23890909.6554
  22453196.722     7011475.334 9   5470947.403 9  22453198.195    22453205.411
  21102186.747   -22715576.22049 -17687908.57649  21102187.8314   21102192.3884
 94  4 27  1  4  0.0000000  0  8 16  6 24  4  5  9 12 20
  23483626.388   -11975177.05949  -9307465.58049  23483625.4294   23483631.9914
  22792280.816   -13864144.47849 -10790260.95049  22792282.0664   22792287.5734
  20647100.561   -10458111.23949  -8140211.24149  20647103.1104   20647108.4504
  22875701.258     7780648.53149   6067153.85549  22875703.3784   22875707.8894
  20224772.096   -13573801.38449 -10564166.60149  20224773.5394   20224778.4844
  23908130.679    16044350.36049  12501764.32349  23908132.4704   23908137.4144
  22469145.812     7095293.869 9   5536260.524 9  22469148.305    22469155.583
  21088020.264   -22790021.20949 -17745917.64549  21088021.9154   21088026.2964
 94  4 27  1  4 30.0000000  0  8 16  6 24  4  5  9 12 20
  23464242.154   -12077030.03449  -9386831.48049  23464243.5584   23464250.1804
  22776467.825   -13947245.47049 -10855014.91849  22776469.1074   22776474.2444
  20652205.440   -10431288.95649  -8119310.76449  20652207.6754   20652212.8654
  22890502.039     7858421.64449   6127756.25549  22890503.0664   22890507.4294
  20224112.716   -13577266.88949 -10566867.00349  20224114.0904   20224118.7634
  23925362.942    16134899.26449  12572321.85049  23925363.9554   23925370.6934
  22485155.122     7179421.869 9   5601814.782 9  22485157.232    22485164.359
  21073924.316   -22864098.47049 -17803640.17949  21073925.3984   21073930.3944
 94  4 27  1  5  0.0000000  0  8 16  6 24  4  5  9 12 20
  23444884.362   -12178748.70349  -9466092.72749  23444886.8514   23444893.6774
  22760677.465   -14030228.19749 -10919676.75249  22760678.5044   22760683.6044
  20657387.053   -10404064.42249  -8098096.83949  20657388.3174   20657393.5394
  22905337.874     7936402.11349   6188520.23449  22905341.7924   22905346.3494
  20223541.652   -13580268.71649 -10569206.09649  20223542.8724   20223547.3904
  23942596.414    16225463.47749  12642891.32749  23942596.6674   23942604.2544
  22501223.141     7263853.907 9   5667605.956 9  22501224.171    22501230.986
  21059897.576   -22937808.40349 -17861076.48549  21059898.4624   21059903.7064
 94  4 27  1  5 30.0000000  0  8 16  6 24  4  5  9 12 20
  23425561.724   -12280303.32249  -9545226.12649  23425561.7794   23425569.5214
  22744907.620   -14113097.62649 -10984250.30749  22744909.2134   22744914.3944
  20662644.903   -10376427.49949  -8076561.57649  20662647.2004   20662652.2184
  22920217.555     8014579.77449   6249437.87249  22920218.4744   22920223.2804
  20223060.619   -13582798.66249 -10571177.48849  20223061.5474   20223066.0114
  23959833.080    16316048.28449  12713476.85149  23959834.9104   23959841.9294
  22517346.496     7348588.244 9   5733632.678 9  22517348.585    22517355.722
  21045941.481   -23011147.76549 -17918224.03049  21045942.3894   21045947.6164
 94  4 27  1  6  0.0000000  0  8 16  6 24  4  5  9 12 20
  23406274.112   -12381666.59849  -9624210.43449  23406273.4544   23406280.9564
  22729155.037   -14195874.04149 -11048751.36949  22729157.1224   22729162.8544
  20667983.863   -10348375.53949  -8054702.91249  20667985.2954   20667990.6744
  22935127.595     8092944.31049   6310501.12449  22935130.8424   22935135.4054
  20222670.251   -13584841.73349 -10572769.50349  20222672.5544   20222677.3374
  23977078.551    16406673.84649  12784094.13649  23977080.2334   23977086.7334
  22533527.453     7433622.809 9   5799893.336 9  22533529.968    22533537.320
  21032056.236   -23084113.44249 -17975080.38449  21032057.2964   21032062.5854
 94  4 27  1  6 30.0000000  0  8 16  6 24  4  5  9 12 20
  23387023.692   -12482816.60149  -9703028.56849  23387025.4034   23387032.3484
  22713417.192   -14278579.48149 -11113197.12549  22713418.6784   22713424.2504
  20673399.177   -10319910.48649  -8032522.34949  20673401.9594   20673407.4014
  22950073.680     8171480.49649   6371698.13449  22950075.7984   22950080.8014
  20222380.100   -13586372.06949 -10573961.97949  20222381.3994   20222386.0994
  23994333.006    16497350.23849  12854751.00149  23994335.6634   23994342.0504
  22549765.749     7518954.783 9   5866385.745 9  22549768.285    22549775.531
  21018242.343   -23156703.33749 -18031643.92449  21018244.0404   21018249.0794
 94  4 27  1  7  0.0000000  0  8 16  6 24  4  5  9 12 20
  23367816.500   -12583756.79649  -9781683.22149  23367817.4834   23367824.4104
  22697690.090   -14361223.03349 -11177594.64549  22697691.6124   22697697.7974
  20678900.253   -10291007.31449  -8010000.39549  20678902.2184   20678907.0994
  22965049.648     8250190.30949   6433030.43949  22965053.0124   22965059.1744
  20222186.320   -13587391.93549 -10574756.68149  20222187.5584   20222192.0304
  24011601.138    16588090.87749  12925457.94749  24011602.6534   24011610.0934
  22566061.619     7604580.798 9   5933107.281 9  22566062.687    22566069.816
  21004501.152   -23228915.78649 -18087913.34849  21004502.2604   21004507.6234
 94  4 27  1  7 30.0000000  0  8 16  6 24  4  5  9 12 20
  23348649.200   -12684485.60949  -9860173.16949  23348649.3404   23348656.3294
  22681978.639   -14443785.29849 -11241928.83149  22681980.3364   22681986.6474
  20684482.848   -10261669.20249  -7987139.53149  20684484.9154   20684490.1294
  22980064.125     8329088.19049   6494509.29849  22980066.9474   22980072.7654
  20222088.710   -13587904.59949 -10575156.16349  20222089.9234   20222094.3734
  24028879.285    16678889.64149  12996210.18349  24028881.4144   24028888.8794
  22582410.691     7690501.227 9   6000058.213 9  22582412.435    22582419.640
  20990832.539   -23300745.29549 -18143884.38049  20990833.7294   20990838.7784
 94  4 27  1  8  0.0000000  0  8 16  6 24  4  5  9 12 20
  23329515.280   -12785035.07849  -9938523.35549  23329515.0724   23329522.5734
  22666287.411   -14526246.28149 -11306184.11049  22666288.3834   22666294.1664
  20690145.966   -10231910.91749  -7963951.25549  20690148.1274   20690153.0694
  22995113.262     8408167.65149   6556129.64149  22995115.9594   22995121.0354
  20222085.136   -13587923.02449 -10575170.53049  20222086.4044   20222091.1004
  24046170.317    16769739.84749  13067002.50049  24046170.3094   24046177.2064
  22598815.173     7776710.961 9   6067234.588 9  22598817.878    22598824.645
  20977236.435   -23372191.94549 -18199557.08549  20977237.7864   20977242.9644
 94  4 27  1  8 30.0000000  0  8 16  6 24  4  5  9 12 20
  23310410.867   -12885420.82249 -10016745.96549  23310412.5994   23310419.4274
  22650617.930   -14608584.93549 -11370344.07349  22650619.6184   22650625.3624
  20695888.578   -10201731.62249  -7940434.92849  20695890.6704   20695895.7624
  23010197.835     8487430.67649   6617893.00549  23010199.1554   23010204.2964
  20222173.193   -13587461.73849 -10574811.09349  20222174.3284   20222178.8494
  24063462.751    16860619.70549  13137817.91549  24063463.5724   24063470.5404
  22615275.663     7863208.504 9   6134635.234 9  22615277.862    22615284.933
  20963714.133   -23443252.26649 -18254928.75149  20963715.4234   20963720.8974
 94  4 27  1  9  0.0000000  0  8 16  6 24  4  5  9 12 20
  23291337.889   -12985642.04949 -10094840.37549  23291339.9594   23291348.4804
  22634976.114   -14690784.42549 -11434395.58349  22634977.4964   22634983.5844
  20701711.662   -10171131.79549  -7916590.90649  20701713.5274   20701719.0054
  23025315.498     8566884.52149   6679805.06949  23025318.3724   23025323.5654
  20222349.819   -13586532.89849 -10574087.33049  20222350.8274   20222355.4584
  24080759.354    16951510.54549  13208641.89049  24080759.1004   24080766.8034
  22631791.415     7949991.116 9   6202257.993 9  22631792.137    22631799.165
  20950265.884   -23513923.98049 -18309997.60549  20950267.1434   20950272.3834
 94  4 27  1  9 30.0000000  0  8 16  6 24  4  5  9 12 20
  23272304.502   -13085680.67449 -10172792.49849  23272303.3934   23272311.1624
  22619360.779   -14772842.60749 -11498336.98649  22619362.3324   22619368.8354
  20707612.796   -10140127.13749  -7892431.43049  20707614.2014   20707618.9234
  23040472.883     8646528.38049   6741865.18949  23040474.6904   23040479.8424
  20222614.615   -13585137.13449 -10572999.73249  20222616.2994   20222621.3054
  24098052.875    17042392.74749  13279459.14449  24098053.5514   24098061.3414
  22648358.366     8037056.082 9   6270100.772 9  22648360.384    22648367.113
  20936892.435   -23584204.77949 -18364761.85049  20936893.4124   20936898.4334
 94  4 27  1  9 59.9990000  0  8 16  6 24  4  5  9 12 20
  23253303.656   -13185529.70649 -10250596.89949  23253302.5064   23253309.6984
  22603773.126   -14854762.23949 -11562170.42949  22603773.8844   22603780.2684
  20713592.033   -10108701.85249  -7867944.20249  20713593.6944   20713598.4254
  23055663.532     8726358.78149   6804070.66149  23055666.0684   23055670.7774
  20222969.354   -13583274.62849 -10571548.43249  20222970.9084   20222975.8204
  24115344.136    17133265.44149  13350268.97749  24115345.9204   24115354.5464
  22664978.678     8124400.243 9   6338161.117 9  22664981.351    22664988.088
  20923593.776   -23654087.38549 -18419215.81549  20923595.2534   20923600.3804
 94  4 27  1 10 29.9990000  0  8 16  6 24  4  5  9 12 20
  23234338.709   -13285176.65149 -10328243.83049  23234339.7604   23234347.6804
  22588204.994   -14936568.30549 -11625915.38149  22588207.0174   22588213.0984
  20719651.900   -10076853.53649  -7843127.33849  20719654.3334   20719659.1174
  23070893.453     8806389.98449   6866432.60349  23070895.1644   23070900.2964
  20223415.550   -13580931.45149 -10569722.58849  20223416.7894   20223421.7134
  24132630.761    17224125.70649  13421069.13849  24132636.1164   24132643.7654
  22681653.337     8212023.685 9   6406439.080 9  22681655.252    22681662.275
  20910370.329   -23723577.31649 -18473363.79749  20910371.4604   20910376.9234
 94  4 27  1 10 59.9990000  0  8 16  6 24  4  5  9 12 20
  23215419.345   -13384598.27249 -10405715.18349  23215421.4224   23215428.1784
  22572659.799   -15018265.21049 -11689575.28049  22572660.8214   22572667.1724
  20725794.849   -10044577.62749  -7817977.28149  20725796.6534   20725801.7994
  23086161.574     8886627.72349   6928955.49149  23086163.6194   23086168.8844
  20223958.536   -13578077.65049 -10567498.86149  20223959.8324   20223964.6044
  24149927.696    17315000.86749  13491880.87649  24149930.1334   24149936.2474
  22698381.040     8299924.959 9   6474933.533 9  22698382.222    22698388.969
  20897222.496   -23792665.56049 -18527198.77949  20897224.1584   20897229.9444
 94  4 27  1 11 29.9990000  0  8 16  6 24  4  5  9 12 20
  23196546.143   -13483798.69249 -10483014.16849  23196544.3984   23196551.5844
  22557131.472   -15099861.02449 -11753156.40949  22557133.2604   22557139.1374
  20732016.328   -10011879.20249  -7792497.98649  20732018.5014   20732023.9384
  23101469.265     8967062.98749   6991632.28649  23101470.4334   23101475.7904
  20224600.955   -13574704.41049 -10564870.37149  20224602.1714   20224606.4344
  24167225.372    17405898.71649  13562710.27649  24167227.8914   24167233.5404
  22715159.865     8388099.086 9   6543640.602 9  22715161.079    22715168.079
  20884152.886   -23861352.10749 -18580720.75149  20884153.6604   20884159.2904
 94  4 27  1 11 59.9990000  0  8 16  6 24  4  5  9 12 20
  23177708.989   -13582790.75749 -10560150.77649  23177707.1704   23177713.8504
  22541621.044   -15181370.51249 -11816670.26149  22541622.3904   22541628.0874
  20738316.300    -9978774.07549  -7766701.78249  20738318.2424   20738323.2844
  23116810.917     9047683.25949   7054453.25749  23116812.3744   23116817.2804
  20225342.900   -13570803.78649 -10561830.93049  20225344.3854   20225348.8804
  24184526.982    17496826.35849  13633562.87749  24184529.5244   24184537.1094
  22731988.351     8476538.941 9   6612554.731 9  22731990.937    22731997.840
  20871158.270   -23929639.12749 -18633931.40749  20871159.4684   20871164.8284
 94  4 27  1 12 29.9990000  0  8 16  6 24  4  5  9 12 20
  23158910.177   -13681565.96649 -10637118.42149  23158911.4144   23158917.5794
  22526125.896   -15262797.61449 -11880119.92049  22526127.5104   22526132.3544
  20744690.612    -9945274.23349  -7740598.01449  20744692.9214   20744698.3394
  23132185.102     9128484.68149   7117415.37249  23132187.8104   23132193.4344
  20226186.862   -13566366.25949 -10558373.12549  20226188.3504   20226193.3374
  24201835.771    17587794.15249  13704446.78749  24201839.5314   24201847.9154
  22748868.798     8565245.573 9   6681676.745 9  22748871.144    22748878.172
  20858240.786   -23997520.25849 -18686825.78849  20858242.0274   20858247.2534
 94  4 27  1 12 59.9990000  0  8 16  6 24  4  5  9 12 20
  23140151.983   -13780126.51249 -10713918.78749  23140154.5494   23140162.1344
  22510646.210   -15344142.71749 -11943505.68249  22510647.8094   22510651.9404
  20751139.613    -9911384.54849  -7714190.46449  20751141.7804   20751147.5044
  23147591.756     9209449.13949   7180504.53649  23147594.4814   23147600.2244
  20227130.507   -13561410.62149 -10554511.59649  20227131.3924   20227136.0784
  24219155.290    17678795.46449  13775356.81449  24219157.5504   24219164.7164
  22765799.743     8654213.327 9   6751002.235 9  22765801.348    22765808.178
  20845399.998   -24064996.18149 -18739404.41849  20845401.6104   20845406.6774
 94  4 27  1 13 29.9990000  0  8 16  6 24  4  5  9 12 20
  23121440.081   -13878474.52449 -10790553.52849  23121439.9064   23121447.7734
  22495183.620   -15425399.19449 -12006822.39349  22495185.4254   22495189.4684
  20757662.674    -9877110.16049  -7687483.15249  20757664.3884   20757669.5794
  23163028.155     9290557.89549   7243706.13349  23163028.7254   23163034.2974
  20228168.288   -13555954.28749 -10550259.91749  20228169.9364   20228174.5004
  24236477.999    17769807.95349  13846275.50749  24236476.8614   24236482.4084
  22782780.233     8743443.107 9   6820531.895 9  22782781.616    22782788.215
  20832638.625   -24132061.09549 -18791662.78649  20832639.5684   20832644.7904
 94  4 27  1 13 59.9990000  0  8 16  6 24  4  5  9 12 20
  23102765.865   -13976609.47949 -10867022.26049  23102765.3044   23102773.1394
  22479739.386   -15506561.93949 -12070066.05849  22479740.6084   22479744.9894
  20764258.188    -9842449.84949  -7660475.12549  20764260.0334   20764265.0914
  23178487.576     9371793.12749   7307006.28249  23178487.5834   23178492.9644
  20229299.340   -13550011.94049 -10545629.52849  20229300.8054   20229305.3664
  24253796.028    17860819.93449  13917193.81949  24253796.9234   24253802.0184
  22799808.730     8832929.141 9   6890261.230 9  22799810.412    22799816.337
  20819954.142   -24198715.68949 -18843601.41649  20819955.5524   20819960.7034
 94  4 27  1 14 29.9990000  0  8 16  6 24  4  5  9 12 20
  23084133.270   -14074513.63949 -10943311.15449  23084134.2854   23084142.5564
  22464317.766   -15587603.69749 -12133215.43949  22464319.2634   22464323.8754
  20770930.731    -9807384.53449  -7633151.50949  20770932.7844   20770937.8374
  23193967.155     9453158.38749   7370407.74849  23193971.1064   23193976.0204
  20230520.966   -13543592.57349 -10540627.44649  20230522.2394   20230526.9244
  24271113.913    17951826.97049  13988108.29949  24271113.9924   24271120.5574
  22816886.489     8922674.462 9   6960192.612 9  22816888.050    22816894.429
  20807350.410   -24264951.92049 -18895214.05749  20807351.5044   20807356.7214
 94  4 27  1 14 59.9990000  0  8 16  6 24  4  5  9 12 20
  23065545.706   -14172180.63049 -11019415.24649  23065549.0554   23065556.4214
  22448920.545   -15668520.93949 -12196267.80049  22448921.5354   22448925.9694
  20777681.357    -9771910.93849  -7605509.74749  20777683.3194   20777688.2294
  23209477.360     9534649.31249   7433907.13949  23209478.7894   23209483.9634
  20231832.417   -13536699.94749 -10535256.57549  20231833.8784   20231838.4534
  24288426.866    18042817.90049  14059010.22049  24288428.3444   24288436.4014
  22834012.622     9012674.225 9   7030322.252 9  22834014.370    22834021.464
  20794825.274   -24330769.67449 -18946500.60849  20794826.6364   20794831.5904
 94  4 27  1 15 29.9990000  0  8 16  6 24  4  5  9 12 20
  23047008.911   -14269602.84649 -11095328.61349  23047009.8474   23047017.2864
  22433549.955   -15749288.11549 -12259203.22549  22433551.2874   22433556.7804
  20784508.286    -9736031.14649  -7577551.47549  20784510.4434   20784516.0664
  23225010.788     9616278.97049   7497514.62849  23225012.6004   23225017.2514
  20233234.488   -13529331.33449 -10529514.79949  20233236.0894   20233240.7914
  24305738.104    18133792.32149  14129899.32949  24305739.6504   24305747.7274
  22851187.772     9102930.935 9   7100652.124 9  22851189.575    22851197.134
  20782382.205   -24396161.13949 -18997454.98549  20782383.1244   20782387.6844
 94  4 27  1 15 59.9990000  0  8 16  6 24  4  5  9 12 20
  23028519.157   -14366779.15249 -11171050.35349  23028518.7744   23028525.1194
  22418209.109   -15829902.51949 -12322019.60249  22418210.6674   22418216.4924
  20791410.182    -9699761.34749  -7549289.29949  20791412.6794   20791417.7104
  23240572.040     9698061.62349   7561241.34049  23240574.7474   23240580.1294
  20234727.842   -13521484.02349 -10523400.02149  20234729.4174   20234734.6044
  24323047.389    18224747.92849  14200773.75949  24323050.5754   24323055.8304
  22868409.607     9193433.978 9   7171173.935 9  22868412.086    22868419.649
  20770018.187   -24461132.09049 -19048081.69049  20770019.4794   20770024.3674
 94  4 27  1 16 29.9990000  0  8 16  6 24  4  5  9 12 20
  23010071.994   -14463702.04549 -11246574.64749  23010074.4464   23010081.4584
  22402896.221   -15910367.45549 -12384719.51549  22402898.2424   22402904.5904
  20798385.152    -9663113.70449  -7520732.70049  20798386.6184   20798391.4314
  23256168.036     9780024.22649   7625108.28149  23256171.0854   23256177.6014
  20236316.471   -13513135.80749 -10516894.93549  20236318.1064   20236323.1324
  24340352.685    18315682.20349  14271631.55149  24340353.8724   24340360.2734
  22885678.911     9284183.065 9   7241887.467 9  22885680.857    22885688.322
  20757735.807   -24525677.88749 -19098377.09849  20757737.0394   20757742.1184
 94  4 27  1 16 59.9990000  0  8 16  6 24  4  5  9 12 20
  22991677.926   -14560369.67449 -11321900.02649  22991679.1834   22991685.3054
  22387612.125   -15990690.00349 -12447308.48249  22387613.9114   22387619.5214
  20805426.329    -9626107.03549  -7491896.34149  20805428.5364   20805433.9674
  23271799.761     9862165.05849   7689114.09449  23271801.8054   23271807.6224
  20238002.449   -13504275.02949 -10509990.43649  20238004.1834   20238008.7154
  24357651.023    18406586.25849  14342465.81549  24357652.2604   24357658.4694
  22902994.757     9375176.242 9   7312791.184 9  22902997.037    22903002.941
  20745533.530   -24589795.49249 -19148338.85849  20745535.2464   20745540.6864
 94  4 27  1 17 29.9990000  0  8 16  6 24  4  5  9 12 20
  22973331.832   -14656786.08949 -11397029.65849  22973331.8974   22973338.7194
  22372354.205   -16070874.21149 -12509789.65149  22372355.7324   22372360.6694
  20812536.641    -9588747.99249  -7462785.40649  20812538.1634   20812543.2164
  23287464.159     9944480.35549   7753255.85549  23287466.6324   23287471.1534
  20239787.595   -13494895.47749 -10502681.69549  20239788.8604   20239793.4424
  24374944.901    18497453.84249  14413271.67149  24374944.0554   24374949.6924
  22920357.144     9466408.852 9   7383881.488 9  22920357.708    22920362.755
  20733414.939   -24653484.40349 -19197966.56349  20733415.8894   20733421.6514
 94  4 27  1 17 59.9990000  0  8 16  6 24  4  5  9 12 20
  22955032.288   -14752941.81249 -11471956.12649  22955033.2684   22955040.3574
  22357115.595   -16150952.83649 -12572188.55849  22357116.9324   22357121.9014
  20819714.170    -9551027.19849  -7433392.58649  20819716.2054   20819720.7494
  23303159.485    10026966.27149   7817530.56949  23303163.3534   23303167.6154
  20241675.327   -13484977.14749 -10494953.13849  20241676.4364   20241681.1884
  24392229.467    18588293.42049  14484055.68049  24392230.0274   24392233.8974
  22937762.201     9557880.343 9   7455157.928 9  22937763.718    22937769.067
  20721377.582   -24716740.13149 -19247256.73049  20721378.7574   20721384.1944
 94  4 27  1 18 29.9990000  0  8 16  6 24  4  5  9 12 20
  22936785.518   -14848830.18849 -11546674.26249  22936786.6084   22936793.5104
  22341894.644   -16230940.73049 -12634516.75549  22341895.9844   22341900.4094
  20826964.315    -9512922.60749  -7403700.69949  20826966.7824   20826971.8654
  23318887.082    10109595.99249   7881917.32749  23318887.9444   23318892.2594
  20243663.615   -13474527.20249 -10486810.34349  20243665.0714   20243669.9304
  24409508.199    18679099.79949  14554813.79849  24409509.4214   24409515.1944
  22955213.504     9649589.256 9   7526619.354 9  22955215.668    22955221.595
  20709423.457   -24779558.91649 -19296206.42049  20709424.7064   20709430.0234
 94  4 27  1 18 59.9990000  0  8 16  6 24  4  5  9 12 20
  22918588.276   -14944457.35349 -11621188.87749  22918589.2884   22918596.2344
  22326689.171   -16310843.93249 -12696778.96649  22326690.5404   22326694.9364
  20834292.570    -9474417.09449  -7373696.40549  20834294.3044   20834299.9124
  23334632.573    10192346.33149   7946398.08549  23334633.9874   23334639.5534
  20245749.148   -13463569.34049 -10478271.76449  20245750.5074   20245755.0344
  24426783.299    18769874.48449  14625547.23849  24426785.0614   24426791.9684
  22972709.239     9741527.796 9   7598259.704 9  22972710.794    22972717.653
  20697551.591   -24841943.89049 -19344818.07349  20697553.1804   20697558.3564
 94  4 27  1 19 29.9990000  0  8 16  6 24  4  5  9 12 20
  22900441.444   -15039818.16349 -11695495.93749  22900442.8504   22900449.8474
  22311499.037   -16390668.80349 -12758980.14049  22311500.8434   22311505.3334
  20841699.507    -9435492.11949  -7343365.25649  20841701.6014   20841706.8634
  23350403.574    10275231.26349   8010983.72349  23350406.3104   23350412.1994
  20247928.527   -13452114.92249 -10469346.25549  20247929.8984   20247934.5184
  24444050.862    18860630.17049  14696265.87549  24444054.8834   24444063.1634
  22990248.937     9833695.912 9   7670078.961 9  22990250.342    22990256.562
  20685764.205   -24903890.06249 -19393087.81249  20685765.2374   20685770.2014
 94  4 27  1 19 59.9990000  0  9 16  6 24  4  5 25  9 12 20
  22882347.872   -15134902.33849 -11769587.44549  22882348.8184   22882355.1144
  22296326.778   -16470401.36349 -12821109.37349  22296328.2944   22296332.5734
  20849185.444    -9396152.59749  -7312711.08449  20849187.5384   20849192.3944
  23366202.114    10358249.50549   8075673.23549  23366204.5484   23366209.5834
  20250199.840   -13440180.63249 -10460046.81049  20250200.9984   20250205.7344
  24579240.012    -7228195.00959  -5135464.30059  24579243.5714   24579247.9354
  24461315.016    18951367.30449  14766970.08249  24461319.7074   24461328.7154
  23007831.243     9926092.367 9   7742076.157 9  23007833.108    23007839.208
  20674060.469   -24965393.59349 -19441012.62949  20674061.6134   20674066.4424
 94  4 27  1 20 29.9990000  0  9 16  6 24  4  5 25  9 12 20
  22864303.750   -15229715.08749 -11843467.44749  22864305.9894   22864312.9714
  22281176.610   -16550015.17249 -12883146.07349  22281177.9994   22281182.6184
  20856747.866    -9356413.83749  -7281745.82349  20856749.7314   20856754.4304
  23382030.191    10441409.36449   8140473.08849  23382030.0234   23382034.2174
  20252560.628   -13427776.36849 -10450381.16449  20252561.7804   20252566.4064
  24565314.354    -7301390.52749  -5192499.73849  24565316.6204   24565318.9804
  24478580.463    19042086.39749  14837660.22949  24478584.6254   24478590.4114
  23025456.644    10018714.170 9   7814248.939 9  23025457.878    23025463.830
  20662441.142   -25026452.36949 -19488590.88449  20662442.5124   20662447.2054
 94  4 27  1 20 59.9990000  0  9 16  6 24  4  5 25  9 12 20
  22846313.336   -15324254.80649 -11917134.70349  22846315.6894   22846322.9734
  22266052.085   -16629495.90849 -12945079.07249  22266053.1944   22266058.0394
  20864381.039    -9316302.01349  -7250489.86549  20864383.0494   20864388.0354
  23397883.306    10524735.57849   8205402.57049  23397885.8834   23397891.9594
  20255010.339   -13414900.57349 -10440348.10249  20255011.5354   20255016.6634
  24551480.901    -7374110.35249  -5249164.50049  24551478.5524   24551482.1594
  24495843.358    19132786.48949  14908335.54049  24495844.7654   24495850.6194
  23043121.860    10111556.435 9   7886593.513 9  23043124.650    23043130.174
  20650907.117   -25087066.49049 -19535822.66349  20650908.1764   20650912.9474
 94  4 27  1 21 29.9990000  0  9 16  6 24  4  5 25  9 12 20
  22828376.837   -15418516.83949 -11990585.58149  22828378.4554   22828385.6574
  22250953.172   -16708839.40849 -13006905.14049  22250954.1144   22250959.4214
  20872080.080    -9275843.05549  -7218963.40549  20872081.8934   20872087.2554
  23413768.000    10608222.37849   8270457.20049  23413772.4214   23413779.7594
  20257552.506   -13401540.96849 -10429938.03049  20257553.8494   20257558.5374
  24537721.032    -7446349.80349  -5305454.94649  24537728.4594   24537735.8164
  24513097.194    19223456.66249  14978987.55549  24513097.6684   24513104.0524
  23060831.058    10204615.597 9   7959107.118 9  23060833.396    23060839.053
  20639457.526   -25147234.51949 -19582706.83549  20639458.7134   20639463.6904
 94  4 27  1 21 59.9990000  0  9 16  6 24  4  5 25  9 12 20
  22810493.639   -15512499.83749 -12063819.04249  22810494.2324   22810500.6824
  22235883.911   -16788029.70349 -13068611.84349  22235885.0754   22235890.0874
  20879843.383    -9235044.58749  -7187172.39949  20879845.6564   20879850.3054
  23429686.719    10691856.19649   8335626.38349  23429688.6454   23429693.8884
  20260189.411   -13387684.24349 -10419140.58649  20260190.6644   20260195.2594
  24524073.081    -7518115.07649  -5361375.91249  24524073.8064   24524077.7294
  24530345.763    19314089.43349  15049610.46749  24530342.8164   24530351.8104
  23078580.867    10297888.643 9   8031787.372 9  23078583.552    23078589.674
  20628093.208   -25206954.47349 -19629241.86349  20628094.2784   20628099.0844
 94  4 27  1 22 29.9990000  0  9 16  6 24  4  5 25  9 12 20
  22792661.244   -15606206.34649 -12136837.07049  22792662.1864   22792668.0114
  22220841.337   -16867074.16149 -13130204.90849  22220842.9014   22220848.5024
  20887673.760    -9193897.99249  -7155110.12249  20887675.4474   20887680.3004
  23445632.782    10775639.34349   8400911.92849  23445633.0384   23445636.4124
  20262924.238   -13373308.96749 -10407939.08349  20262926.1404   20262930.9224
  24510507.546    -7589421.62749  -5416939.42449  24510505.1844   24510508.7204
  24547583.486    19404669.60149  15120192.34349  24547581.9504   24547588.2954
  23096372.364    10391374.300 9   8104633.291 9  23096373.457    23096379.886
  20616814.538   -25266222.48849 -19675424.72549  20616815.5114   20616820.8644
 94  4 27  1 22 59.9990000  0  9 16  6 24  4  5 25  9 12 20
  22774881.697   -15699634.68449 -12209638.33449  22774883.6874   22774888.7154
  22205825.360   -16945985.88349 -13191694.52749  22205826.8004   22205832.2834
  20895572.136    -9152389.49949  -7122765.83949  20895574.1334   20895579.7364
  23461596.118    10859543.23949   8466291.56049  23461598.0194   23461602.3014
  20265760.401   -13358410.23649 -10396329.69249  20265761.6824   20265766.1024
  24497017.369    -7660274.44849  -5472149.38949  24497021.3564   24497026.3664
  24564805.443    19495174.87649  15190715.81349  24564805.8624   24564813.0904
  23114202.054    10485071.083 9   8177643.734 9  23114203.115    23114209.733
  20605622.499   -25325035.04249 -19721252.67849  20605623.8984   20605629.2534
 94  4 27  1 23 29.9990000  0  9 16  6 24  4  5 25  9 12 20
  22757156.340   -15792788.25549 -12282225.49249  22757156.7134   22757162.4804
  22190831.733   -17024775.65749 -13253089.12349  22190833.5664   22190838.7434
  20903541.664    -9110509.58549  -7090132.14649  20903543.9254   20903548.7974
  23477578.362    10943551.49749   8531752.51949  23477583.2934   23477589.4244
  20268695.253   -13342984.20349 -10384309.42149  20268697.0234   20268701.7904
  24483623.021    -7730686.82149  -5527016.15649  24483622.9094   24483628.4614
  24582012.038    19585601.48749  15261177.98649  24582011.4534   24582018.8254
  23132069.378    10578974.789 9   8250815.412 9  23132071.624    23132079.298
  20594517.604   -25383391.51049 -19766725.25749  20594519.0214   20594524.3914
 94  4 27  1 23 59.9990000  0  9 16  6 24  4  5 25  9 12 20
  22739482.444   -15885665.68349 -12354597.46249  22739482.4814   22739489.8344
  22175862.402   -17103444.92249 -13314389.81749  22175863.8024   22175868.4124
  20911582.298    -9068254.91149  -7057206.44049  20911584.1624   20911589.1164
  23493589.131    11027660.45849   8597291.95049  23493589.2134   23493596.0924
  20271730.902   -13327032.27349 -10371879.36349  20271732.2724   20271737.2404
  24470307.078    -7800654.46549  -5581536.38049  24470308.6234   24470313.0964
  24599202.723    19675950.28049  15331579.51149  24599204.3074   24599211.3054
  23149978.187    10673084.740 9   8324147.796 9  23149980.179    23149987.903
  20583500.618   -25441287.95949 -19811839.37049  20583501.8604   20583506.8464
 94  4 27  1 24 29.9990000  0  9 16  6 24  4  5 25  9 12 20
  22721860.790   -15978268.88349 -12426755.74349  22721861.1364   22721867.6964
  22160911.160   -17182014.82949 -13375613.09249  22160912.4204   22160916.9144
  20919692.637    -9025638.65549  -7023998.97349  20919694.0424   20919699.3304
  23509611.689    11111861.45049   8662903.09649  23509612.5764   23509619.3424
  20274865.350   -13310559.07049 -10359043.12049  20274867.1454   20274872.0694
  24457077.034    -7870165.48449  -5635700.75249  24457081.7804   24457084.8304
  24616378.207    19766217.96249  15401917.88649  24616381.7614   24616390.6674
  23167925.075    10767396.764 9   8397637.653 9  23167927.130    23167934.349
  20572570.792   -25498723.17749 -19856594.07449  20572572.0924   20572577.1264
 94  4 27  1 24 59.9990000  0  9 16  6 24  4  5 25  9 12 20
  22704290.800   -16070594.73149 -12498697.92449  22704292.0044   22704298.1934
  22145977.997   -17260487.85449 -13436760.87649  22145979.4124   22145984.3594
  20927869.902    -8982666.96649  -6990514.54849  20927871.5564   20927876.9864
  23525652.877    11196155.70849   8728586.91149  23525653.2974   23525659.0844
  20278097.613   -13293579.99049 -10345812.67749  20278098.7164   20278102.8804
  24443945.748    -7939193.63549  -5689488.89949  24443945.5684   24443949.6324
  24633544.795    19856428.42849  15472211.65549  24633547.2384   24633557.5774
  23185910.387    10861908.058 9   8471282.770 9  23185912.388    23185919.108
  20561729.422   -25555695.22349 -19900987.86349  20561730.8984   20561736.2474
 94  4 27  1 25 29.9990000  0  8 16  6 24  4  5 25 12 20
  22686777.861   -16162627.70949 -12570411.88549  22686778.0024   22686785.1704
  22131064.813   -17338857.15749 -13497827.83749  22131066.1584   22131070.8814
  20936111.496    -8939350.88649  -6956761.75549  20936113.8234   20936119.2884
  23541714.528    11280562.83949   8794358.68449  23541714.7934   23541720.6874
  20281424.734   -13276091.11949 -10332184.98249  20281426.2364   20281431.1204
  24430902.461    -8007726.14949  -5742890.84149  24430904.1034   24430909.0124
  23203932.711    10956616.827 9   8545081.761 9  23203935.461    23203941.745
  20550976.672   -25612200.75349 -19945018.13749  20550977.9344   20550983.7594
 94  4 27  1 25 59.9990000  0  8 16  6 24  4  5 25 12 20
  22669321.227   -16254360.65149 -12641892.03549  22669322.1474   22669329.5674
  22116171.785   -17417118.10949 -13558810.37249  22116173.2414   22116178.4874
  20944419.177    -8895699.19749  -6922747.46149  20944421.0924   20944425.5874
  23557794.984    11365083.19549   8860218.66549  23557798.1154   23557804.0374
  20284850.023   -13258093.99049 -10318161.26649  20284851.0244   20284856.2734
  24417956.921    -8075745.29649  -5795892.74749  24417960.1474   24417965.4394
  23221992.746    11051520.723 9   8619032.784 9  23221995.109    23222002.016
  20540313.731   -25668237.45749 -19988683.09449  20540314.9594   20540320.1374
 94  4 27  1 26 29.9990000  0  8 16  6 24  4  5 25 12 20
  22651923.796   -16345781.97849 -12713129.37949  22651925.1814   22651932.3554
  22101300.238   -17495266.02249 -13619704.81349  22101302.0084   22101307.8894
  20952791.505    -8851701.33249  -6888463.42049  20952793.5674   20952798.5444
  23573901.315    11449729.54349   8926176.83249  23573905.6064   23573911.7734
  20288369.959   -13239588.77749 -10303741.63349  20288372.0374   20288377.3824
  24405112.326    -8143258.67849  -5848500.55049  24405112.7944   24405117.2524
  23240086.974    11146615.166 9   8693132.298 9  23240090.285    23240098.268
  20529739.553   -25723804.62749 -20031982.17749  20529740.8584   20529746.0084
 94  4 27  1 26 59.9990000  0  8 16  6 24  4  5 25 12 20
  22634588.950   -16436882.11049 -12784116.44449  22634589.1644   22634596.1364
  22086455.801   -17573275.26449 -13680491.20949  22086457.7094   22086462.7004
  20961232.552    -8807344.09949  -6853899.34849  20961234.0574   20961239.6914
  23590034.492    11534505.49349   8992235.98849  23590038.6014   23590044.5554
  20291991.254   -13220571.65449 -10288923.09449  20291991.6834   20291995.7734
  24392361.693    -8210275.73349  -5900721.61149  24392360.2604   24392365.1574
  23258220.594    11241898.469 9   8767378.978 9  23258222.202    23258230.256
  20519255.472   -25778899.08449 -20074912.91549  20519256.6944   20519261.7684
 94  4 27  1 27 29.9990000  0  8 16  6 24  4  5 25 12 20
  22617317.268   -16527648.58349 -12854843.51549  22617317.0914   22617323.8864
  22071640.422   -17651130.77949 -13741157.82849  22071642.2704   22071647.5124
  20969741.774    -8762622.42249  -6819051.29549  20969744.2654   20969749.6584
  23606196.874    11619405.81749   9058392.05449  23606195.5994   23606201.1954
  20295706.545   -13201039.51149 -10273703.25049  20295708.1554   20295712.6024
  24379697.601    -8276805.11149  -5952562.67449  24379699.7574   24379706.3614
  23276389.736    11337369.561 9   8841771.997 9  23276389.982    23276397.893
  20508861.820   -25833517.11949 -20117472.41749  20508863.0784   20508868.3664
 94  4 27  1 27 59.9990000  0  8 16  6 24  4  5 25 12 20
  22600108.266   -16618073.20649 -12925304.22049  22600109.6534   22600116.3324
  22056853.611   -17728835.09349 -13801706.61449  22056855.4384   22056860.5834
  20978323.882    -8717527.05449  -6783912.05849  20978325.7264   20978330.7074
  23622372.311    11704416.54749   9124634.14349  23622372.4774   23622378.0624
  20299519.064   -13181005.60649 -10258092.43549  20299520.2304   20299525.3294
  24367128.929    -8342854.58749  -6004029.79449  24367130.2714   24367135.5104
  23294590.456    11433023.267 9   8916307.295 9  23294592.434    23294599.822
  20498559.410   -25887659.29549 -20159661.12049  20498560.3014   20498565.2864
 94  4 27  1 28 29.9990000  0  8 16  6 24  4  5 25 12 20
  22582967.802   -16708150.19649 -12995494.03549  22582968.9304   22582974.9734
  22042096.581   -17806387.19649 -13862136.79349  22042098.1724   22042103.2674
  20986976.341    -8672060.44349  -6748483.53549  20986978.1234   20986982.9304
  23638562.235    11789522.90649   9190950.74749  23638566.4804   23638572.2734
  20303424.804   -13160482.38449 -10242100.33549  20303425.9944   20303430.8864
  24354650.217    -8408443.89949  -6055138.32349  24354650.4454   24354653.1404
  23312826.988    11528855.403 9   8990981.634 9  23312828.653    23312835.561
  20488345.917   -25941324.70549 -20201478.31749  20488347.7414   20488352.7194
 94  4 27  1 28 59.9990000  0  8 16  6 24  4  5 25 12 20
  22565894.859   -16797879.27549 -13065412.74949  22565894.6244   22565901.0784
  22027368.285   -17883786.17749 -13922447.65949  22027369.6324   22027374.8374
  20995698.041    -8626226.57249  -6712768.83649  20995699.9144   20995705.3264
  23654775.528    11874716.08149   9257335.01049  23654778.0714   23654783.3784
  20307423.115   -13139472.22849 -10225728.78949  20307424.2814   20307428.9294
  24342256.823    -8473563.04749  -6105880.49049  24342257.9344   24342262.2664
  23331096.667    11624866.728 9   9065795.616 9  23331098.720    23331105.387
  20478226.306   -25994507.82749 -20242919.70549  20478227.2174   20478232.5704
 94  4 27  1 29 29.9990000  0  8 16  6 24  4  5 25 12 20
  22548883.914   -16887259.78949 -13135059.85249  22548885.7094   22548892.6824
  22012664.941   -17961052.39949 -13982655.08849  22012666.1544   22012671.2414
  21004485.888    -8580044.40549  -6676782.73649  21004487.8834   21004493.5274
  23671005.652    11959998.40549   9323788.72849  23671007.5424   23671012.6144
  20311512.699   -13117981.30249 -10208982.62649  20311513.8914   20311518.1424
  24329953.346    -8538211.08849  -6156255.57349  24329955.4414   24329961.9914
  23349400.067    11721049.106 9   9140742.878 9  23349401.448    23349408.664
  20468196.608   -26047211.77549 -20283987.71249  20468197.9464   20468203.3764
 94  4 27  1 29 59.9990000  0  8 16  6 24  4  5 25 12 20
  22531939.533   -16976301.55549 -13204443.00149  22531940.9124   22531948.4254
  21997984.533   -18038197.04749 -14042767.78449  21997986.0044   21997991.0914
  21013336.755    -8533534.56949  -6640541.31149  21013338.7554   21013343.8144
  23687254.410    12045369.01549   9390311.24749  23687253.6364   23687258.3644
  20315695.706   -13095999.57749 -10191854.01949  20315696.8104   20315701.2874
  24317740.290    -8602391.02349  -6206265.91249  24317742.0974   24317748.2084
  23367734.030    11817399.535 9   9215821.092 9  23367736.683    23367744.761
  20458259.335   -26099434.71149 -20324680.90049  20458260.6014   20458265.6674
 94  4 27  1 30 29.9990000  0  8 16  6 24  4  5 25 12 20
  22515056.372   -17065028.00349 -13273580.43449  22515056.8944   22515064.2674
  21983328.946   -18115215.27549 -14102781.97149  21983330.1344   21983335.3984
  21022246.656    -8486711.02549  -6604055.44449  21022248.5884   21022253.7274
  23703519.763    12130847.13949   9456917.52549  23703519.8964   23703524.5944
  20319975.005   -13073509.28149 -10174329.12949  20319976.3724   20319981.2134
  24305617.823    -8666090.45249  -6255901.82749  24305620.8184   24305624.9274
  23386102.309    11913918.349 9   9291030.506 9  23386103.659    23386112.194
  20448414.217   -26151171.49549 -20364995.26749  20448415.4964   20448420.6594
 94  4 27  1 30 59.9990000  0  8 16  6 24  4  5 25 12 20
  22498228.910   -17153448.86249 -13342479.74249  22498231.0944   22498238.5044
  21968694.772   -18192112.63749 -14162701.96649  21968696.6154   21968702.0944
  21031214.176    -8439583.56149  -6567332.74849  21031216.6164   21031221.8814
  23719804.848    12216440.68749   9523613.77449  23719807.4974   23719813.4894
  20324354.294   -13050494.11949 -10156395.26049  20324355.7934   20324361.2024
  24293594.877    -8729284.83749  -6305144.19249  24293595.1914   24293598.7804
  23404499.538    12010602.432 9   9366368.704 9  23404501.772    23404510.251
  20438662.594   -26202420.53549 -20404929.57549  20438663.4334   20438668.4744
 94  4 27  1 31 29.9990000  0  8 16  6 24  4  5 25 12 20
  22481462.284   -17241563.19149 -13411140.20349  22481463.7494   22481471.0484
  21954084.629   -18268888.71649 -14222527.45649  21954086.3414   21954092.1304
  21040238.822    -8392160.61249  -6530379.80649  21040241.1494   21040246.6804
  23736112.448    12302155.44649   9590404.47349  23736117.6904   23736124.9244
  20328835.169   -13026948.47949 -10138048.01949  20328836.7614   20328841.7484
  24281662.946    -8791978.38849  -6353996.27849  24281664.7634   24281670.3254
  23422928.509    12107448.216 9   9441832.889 9  23422930.443    23422938.492
  20429002.839   -26253180.59349 -20444482.86149  20429003.9484   20429009.1124
 94  4 27  1 31 59.9990000  0  8 16  6 24  4  5 25 12 20
  22464756.855   -17329362.54349 -13479555.21649  22464756.4694   22464763.3834
  21939499.734   -18345533.18749 -14282250.39549  21939501.2474   21939506.4254
  21049321.830    -8344429.12349  -6493186.44249  21049323.8934   21049329.4484
  23752446.470    12387981.95549   9657282.23949  23752450.2724   23752457.2684
  20333417.257   -13002873.68549 -10119288.44749  20333418.4744   20333422.8124
  24269829.783    -8854164.26949  -6402452.79749  24269831.8874   24269839.1544
  23441389.166    12204456.273 9   9517423.507 9  23441390.331    23441397.376
  20419437.561   -26303446.12049 -20483650.79149  20419438.7374   20419443.7694
 94  4 27  1 32 29.9990000  0  8 16  6 24  4  5 25 12 20
  22448108.201   -17416833.85649 -13547714.62349  22448110.6364   22448117.8204
  21924942.069   -18422033.01749 -14341860.62549  21924944.0364   21924949.0904
  21058467.165    -8296376.91249  -6455743.16349  21058468.5854   21058473.1594
  23768801.543    12473916.07249   9724243.85949  23768803.0834   23768809.0434
  20338096.592   -12978280.72949 -10100125.10549  20338097.8454   20338102.6004
  24258093.699    -8915839.43849  -6450511.37349  24258095.4624   24258100.8304
  23459880.876    12301621.902 9   9593136.934 9  23459881.173    23459887.290
  20409966.436   -26353217.53649 -20522433.70749  20409967.3784   20409972.7284
 94  4 27  1 32 59.9990000  0  8 16  6 24  4  5 25 12 20
  22431530.090   -17503956.28549 -13615602.17149  22431532.0484   22431538.5944
  21910413.715   -18498385.01549 -14401355.65649  21910414.7994   21910419.7484
  21067674.034    -8247994.91649  -6418042.91749  21067675.4804   21067680.0824
  23785172.749    12559933.18149   9791270.13949  23785171.9974   23785176.9524
  20342873.568   -12953176.59849 -10080563.45349  20342874.9394   20342879.4984
  24246452.351    -8977018.11749  -6498183.04249  24246453.5414   24246455.9064
  23478399.756    12398938.042 9   9668967.632 9  23478400.095    23478407.423
  20400588.757   -26402496.70549 -20560833.05449  20400589.9624   20400595.1434
 94  4 27  1 33 29.9990000  0  8 16  6 24  4  5 25 12 20
  22415023.213   -17590708.67949 -13683201.38149  22415023.4384   22415030.6044
  21895913.479   -18574580.39449 -14460728.65949  21895915.3154   21895919.9044
  21076945.821    -8199264.30149  -6380071.01649  21076947.9684   21076953.6244
  23801553.433    12646035.62549   9858362.91449  23801557.1414   23801561.8644
  20347746.720   -12927569.22849 -10060609.67849  20347748.1144   20347753.1864
  24234901.766    -9037708.26259  -6545474.02659  24234903.8234   24234907.9554
  23496947.271    12496406.232 9   9744916.797 9  23496947.905    23496955.584
  20391305.926   -26451277.51849 -20598844.07449  20391307.1014   20391312.1744
 94  4 27  1 33 59.9990000  0  8 16  6 24  4  5 25 12 20
  22398583.968   -17677086.66449 -13750508.83249  22398585.8064   22398593.3314
  21881441.556   -18650633.30449 -14519990.64949  21881442.9964   21881447.9584
  21086286.044    -8150180.79749  -6341824.13349  21086288.1604   21086293.8064
  23817952.420    12732208.67349   9925510.71449  23817955.2044   23817960.6714
  20352715.002   -12901462.38749 -10040266.69749  20352716.0854   20352720.8114
  24223447.266    -9097903.64959  -6592379.50859  24223448.7174   24223456.5954
  23515522.442    12594022.860 9   9820981.648 9  23515523.110    23515531.307
  20382118.396   -26499558.75549 -20636465.80749  20382119.5074   20382124.6184
 94  4 27  1 34 29.9990000  0  8 16  6 24  4  5 25 12 20
  22382216.216   -17763094.52049 -13817527.87549  22382219.4654   22382226.2474
  21866994.507   -18726548.87749 -14579145.62149  21866996.2764   21867001.9144
  21095692.602    -8100751.65849  -6303307.92849  21095694.5584   21095699.6994
  23834366.628    12818456.40349   9992716.70349  23834367.1364   23834372.7394
  20357778.696   -12874849.32249 -10019529.26049  20357780.1624   20357785.1104
  24212088.228    -9157603.47449  -6638898.87149  24212088.7974   24212095.1574
  23534123.866    12691786.120 9   9897160.763 9  23534126.330    23534134.575
  20373026.718   -26547337.35649 -20673695.88049  20373027.5824   20373032.8514
 94  4 27  1 34 59.9990000  0  8 16  6 24  4  5 25 12 20
  22365926.143   -17848719.25549 -13884248.39249  22365925.8294   22365932.9464
  21852569.034   -18802354.35049 -14638214.79549  21852570.3924   21852576.8354
  21105165.081    -8050972.28249  -6264518.81049  21105167.0684   21105172.6284
  23850789.936    12904772.58749  10059976.03249  23850792.1854   23850798.4494
  20362938.619   -12847735.32549  -9998401.48249  20362940.0234   20362944.5854
  24200821.872    -9216802.63649  -6685028.07749  24200823.8664   24200828.0764
  23552755.760    12789693.167 9   9973451.921 9  23552758.177    23552765.040
  20364031.023   -26594611.72049 -20710533.04149  20364031.7834   20364036.8214
 94  4 27  1 35 29.9990000  0  8 16  6 24  4  5 25 12 20
  22349701.971   -17933965.96949 -13950674.33649  22349704.0344   22349710.4224
  21838162.434   -18878062.18749 -14697207.87249  21838163.9044   21838170.0304
  21114701.852    -8000861.04449  -6225471.10049  21114702.8964   21114708.2814
  23867232.764    12991167.43049  10127296.66149  23867232.4604   23867238.2134
  20368189.859   -12820139.85849  -9976898.52749  20368191.2494   20368196.1804
  24189650.797    -9275499.28759  -6730765.68759  24189653.9204   24189657.6464
  23571415.238    12887738.165 9  10049850.571 9  23571416.510    23571423.044
  20355129.943   -26641382.77749 -20746978.01249  20355131.0514   20355136.4504
 94  4 27  1 35 59.9990000  0  8 16  6 24  4  5 25 12 20
  22333551.288   -18018838.73449 -14016808.90649  22333553.5954   22333558.9124
  21823776.843   -18953662.75049 -14756117.37149  21823778.2664   21823783.3494
  21124296.862    -7950433.01349  -6186176.53949  21124299.2474   21124304.2554
  23883685.064    13077646.37249  10194682.81349  23883689.0364   23883695.2624
  20373534.058   -12792056.07349  -9955015.06949  20373535.2794   20373540.3574
  24178580.629    -9333689.71559  -6776108.87059  24178581.2354   24178586.6104
  23590099.695    12985921.477 9  10126356.989 9  23590100.643    23590107.877
  20346326.149   -26687645.60249 -20783026.95749  20346327.7084   20346332.6404
 94  4 27  1 36 29.9990000  0  8 16  6 24  4  5 25 12 20
  22317473.685   -18103335.18149 -14082650.24349  22317473.8544   22317480.6114
  21809415.027   -19029135.75749 -14814927.49049  21809416.5664   21809421.4784
  21133953.740    -7899689.40849  -6146636.07749  21133955.4284   21133960.7174
  23900156.316    13164215.30349  10262139.08349  23900162.3904   23900168.7194
  20378972.152   -12763479.31549  -9932747.48549  20378973.3014   20378978.4504
  24167606.118    -9391361.33249  -6821047.78149  24167606.7274   24167613.1554
  23608809.602    13084241.287 9  10202969.776 9  23608810.103    23608818.010
  20337620.541   -26733397.16649 -20818677.52549  20337621.5864   20337626.7144
 94  4 27  1 36 59.9990000  0  8 16  6 24  4  5 25 12 20
  22301462.228   -18187463.05349 -14148204.35249  22301464.5864   22301471.5204
  21795078.776   -19104474.09149 -14873632.66849  21795080.1874   21795084.5514
  21143667.548    -7848640.12849  -6106857.42549  21143669.7354   21143674.9984
  23916650.244    13250870.31449  10329662.43049  23916652.7534   23916658.4414
  20384502.110   -12734421.19249  -9910104.81649  20384503.2204   20384507.8384
  24156727.531    -9448516.63349  -6865584.37249  24156729.7404   24156735.4064
  23627542.766    13182691.362 9  10279684.077 9  23627543.934    23627552.700
  20329011.306   -26778639.17449 -20853931.03349  20329012.4084   20329017.3944
 94  4 27  1 37 29.9990000  0  8 16  6 24  4  5 25 12 20
  22285521.161   -18271237.91349 -14213483.39049  22285522.2174   22285529.7074
  21780772.697   -19179652.89649 -14932213.53849  21780773.9234   21780777.7914
  21153437.066    -7797302.62449  -6066854.18149  21153438.8594   21153443.9974
  23933158.701    13337615.68549  10397256.19049  23933160.1914   23933165.7594
  20390126.282   -12704865.61449  -9887074.49949  20390127.4874   20390131.8584
  24145950.014    -9505147.17759  -6909712.03559  24145953.6194   24145955.9514
  23646300.152    13281272.480 9  10356500.483 9  23646303.107    23646311.764
  20320498.997   -26823365.84849 -20888782.97549  20320500.7554   20320506.1124
 94  4 27  1 37 59.9990000  0  8 16  6 24  4  5 25 12 20
  22269645.356   -18354662.50149 -14278489.49949  22269647.1734   22269654.4144
  21766496.640   -19254669.95749 -14990668.37249  21766498.3764   21766502.6254
  21163260.558    -7745676.41649  -6026625.97349  21163262.8714   21163268.2994
  23949675.253    13424421.51549  10464897.05949  23949678.2464   23949684.2394
  20395846.813   -12674800.51449  -9863647.15849  20395848.2644   20395853.1004
  24135277.389    -9561249.11059  -6953427.81659  24135278.0584   24135281.5094
  23665083.577    13379976.418 9  10433412.578 9  23665086.060    23665093.677
  20312086.168   -26867580.97049 -20923236.31049  20312087.2154   20312092.5824
 94  4 27  1 38 29.9990000  0  8 16  6 24  4  5 25 12 20
  22253834.792   -18437733.17449 -14343219.84049  22253839.0564   22253846.6884
  21752250.309   -19329533.10249 -15049003.26249  21752252.3114   21752257.1324
  21173140.822    -7693757.79149  -5986169.91049  21173142.6344   21173148.0364
  23966203.828    13511277.02649  10532576.64349  23966205.9194   23966212.2594
  20401664.716   -12644227.57249  -9839824.09649  20401666.2494   20401670.8424
  24124703.028    -9616812.96149  -6996724.33049  24124704.0444   24124710.3914
  23683888.854    13478802.322 9  10510419.721 9  23683892.354    23683899.190
  20303770.110   -26911281.02749 -20957288.29749  20303771.4324   20303776.6634
 94  4 27  1 38 59.9990000  0  8 16  6 24  4  5 25 12 20
  22238098.069   -18520450.90049 -14407675.15549  22238098.6244   22238105.4134
  21738032.931   -19404247.94349 -15107222.59949  21738034.5554   21738039.6884
  21183073.551    -7641558.71449  -5945495.30949  21183075.7374   21183080.8874
  23982737.134    13598172.35849  10600287.26449  23982740.9804   23982747.5764
  20407576.309   -12613160.95749  -9815616.36549  20407577.7874   20407582.9064
  24114225.605    -9671853.36349  -7039612.95349  24114230.0464   24114235.0524
  23702718.800    13577746.053 9  10587518.682 9  23702720.663    23702727.903
  20295553.379   -26954465.34849 -20990938.41349  20295554.1564   20295559.0054
 94  4 27  1 39 29.9990000  0  8 16  6 24  4  5 25 12 20
  22222429.201   -18602788.58249 -14471834.34549  22222430.8674   22222437.1054
  21723842.221   -19478819.60049 -15165330.36049  21723843.7364   21723849.1754
  21193062.593    -7589071.85449  -5904596.46249  21193063.9754   21193068.9084
  23999277.728    13685102.85049  10668025.27449  23999283.8054   23999290.2394
  20413583.330   -12581593.95049  -9791018.72249  20413584.8714   20413590.2274
  24103854.324    -9726373.52859  -7082096.17959  24103855.4244   24103859.4394
  23721570.425    13676807.531 9  10664709.389 9  23721571.226    23721579.614
  20287433.562   -26997129.48849 -21024183.19049  20287435.0074   20287440.0174
 94  4 27  1 39 59.9990000  0  8 16  6 24  4  5 25 12 20
  22206832.776   -18684738.09349 -14535691.05449  22206836.0814   22206842.8194
  21709678.580   -19553250.78749 -15223328.66349  21709679.9004   21709685.4514
  21203104.749    -7536298.93349  -5863474.71449  21203106.5454   21203111.6524
  24015831.827    13772069.20249  10735791.23149  24015834.0024   24015839.3304
  20419684.293   -12549536.93549  -9766039.24649  20419685.4644   20419690.3964
  24093577.167    -9780387.809 9
  23740443.289    13775983.007 9  10741988.920 9  23740443.584    23740452.614
  20279414.182   -27039272.76749 -21057022.11249  20279415.1794   20279420.7414
 94  4 27  1 40 29.9990000  0  8 16  6 24  4  5 25 12 20
  22191315.833   -18766285.34449 -14599234.31349  22191317.3184   22191323.4614
  21695540.463   -19627550.55749 -15281224.56049  21695541.5724   21695547.1324
  21213198.278    -7483249.21349  -5822137.28149  21213201.0954   21213206.6974
  24032396.785    13859101.66249  10803608.70249  24032396.1944   24032401.4544
  20425875.983   -12516996.46049  -9740683.04249  20425877.7194   20425882.4124
  24083392.070    -9833897.64059  -7165881.16459  24083394.5294   24083400.1684
  23759336.049    13875270.757 9  10819355.934 9  23759336.960    23759345.917
  20271494.267   -27080892.28249 -21089452.90349  20271495.2854   20271500.8344
 94  4 27  1 40 59.9990000  0  8 16  6 24  4  5 25 12 20
  22175876.233   -18847414.82749 -14662452.05749  22175879.2074   22175884.9304
  21681425.893   -19701720.74149 -15339019.48749  21681427.4564   21681432.6284
  21223348.630    -7429918.74849  -5780581.08049  21223349.7134   21223354.7974
  24048969.318    13946207.42449  10871483.28249  24048971.1984   24048977.0354
  20432162.417   -12483964.86549  -9714944.14849  20432163.4924   20432167.8084
  24073304.758    -9886903.00849  -7207184.05249  24073307.9644   24073313.5924
  23778250.048    13974669.079 9  10896809.113 9  23778250.980    23778260.214
  20263674.265   -27121985.49049 -21121473.57849  20263675.4074   20263680.6914
 94  4 27  1 41 29.9990000  0  8 16  6 24  4  5 25 12 20
  22160522.152   -18928113.21849 -14725333.88949  22160523.2834   22160529.8444
  21667336.383   -19775761.03149 -15396713.19349  21667337.8324   21667342.8214
  21233549.778    -7376307.51349  -5738806.10049  21233551.5904   21233556.6794
  24065559.582    14033394.59149  10939421.30049  24065562.4594   24065567.9394
  20438543.597   -12450429.61349  -9688812.80149  20438544.9354   20438549.5594
  24063316.210    -9939398.26049  -7248089.42549  24063317.9284   24063322.4274
  23797184.674    14074171.625 9  10974343.497 9  23797185.912    23797194.874
  20255953.751   -27162553.91649 -21153085.33049  20255955.3584   20255961.0264
 94  4 27  1 41 59.9990000  0  8 16  6 24  4  5 25 12 20
  22145243.978   -19008403.80249 -14787897.93149  22145244.2054   22145251.0934
  21653272.867   -19849663.64049 -15454299.62049  21653274.7114   21653279.4784
  21243803.616    -7322416.97349  -5696813.48149  21243806.2724   21243812.2394
  24082168.650    14120662.20149  11007422.00449  24082169.0734   24082174.0744
  20445021.416   -12416385.80249  -9662285.17049  20445022.9604   20445028.0934
  24053428.499    -9991360.98149  -7288579.82649  24053429.5514   24053432.7604
  23816137.466    14173776.760 9  11051957.810 9  23816141.186    23816149.445
  20248335.063   -27202594.61549 -21184285.87449  20248336.1144   20248341.5124
 94  4 27  1 42 29.9990000  0  8 16  6 24  4  5 25 12 20
  22130039.259   -19088288.44049 -14850145.63649  22130041.7314   22130048.9714
  21639237.746   -19923422.52449 -15511774.05249  21639239.0234   21639243.9384
  21254115.702    -7268228.99949  -5654589.09049  21254117.7794   21254123.3824
  24098784.121    14208000.46449  11075477.75449  24098789.2464   24098794.2324
  20451598.494   -12381828.06749  -9635357.07749  20451599.4334   20451604.4744
  24043645.133   -10042769.37049  -7328638.29949  24043647.5684   24043652.0314
  23835113.299    14273483.638 9  11129651.409 9  23835115.274    23835123.369
  20240816.489   -27242103.98549 -21215072.38949  20240817.7794   20240822.9474
 94  4 27  1 42 59.9990000  0  8 16  6 24  4  5 25 12 20
  22114914.911   -19167783.57649 -14912089.84249  22114915.1444   22114921.4684
  21625232.147   -19997018.15749 -15569121.27149  21625234.0464   21625239.2584
  21264485.280    -7213739.27449  -5612129.57749  21264487.4294   21264492.1954
  24115414.438    14295380.71749  11143566.23149  24115416.8474   24115421.4134
  20458271.454   -12346761.52149  -9608032.50849  20458272.2984   20458277.3224
  24033965.344   -10093636.10649  -7368274.71949  24033967.1544   24033974.3764
  23854104.755    14373287.484 9  11207420.556 9  23854107.381    23854115.290
  20233399.738   -27281082.09249 -21245444.93549  20233400.7054   20233405.4914
 94  4 27  1 43 29.9990000  0  8 16  6 24  4  5 25 12 20
  22099859.253   -19246897.75049 -14973737.21449  22099860.3804   22099865.2854
  21611262.502   -20070433.19349 -15626327.75449  21611263.6294   21611268.6664
  21274911.851    -7158948.10949  -5569435.17249  21274913.8944   21274918.8424
  24132053.341    14382796.90149  11211682.70249  24132051.3814   24132056.1624
  20465040.941   -12311184.46349  -9580310.13649  20465042.2964   20465047.1894
  24024388.554   -10143964.99049  -7407492.01549  24024390.4604   24024396.2654
  23873113.946    14473186.500 9  11285263.871 9  23873116.555    23873125.134
  20226083.999   -27319526.73149 -21275401.78849  20226085.0814   20226090.0474
 94  4 27  1 43 59.9990000  0  8 16  6 24  4  5 25 12 20
  22084873.784   -19325644.99049 -15035098.66849  22084875.1404   22084881.2854
  21597327.362   -20143661.80449 -15683388.98849  21597328.9394   21597333.6254
  21285396.163    -7103854.21349  -5526504.87849  21285397.9024   21285403.0574
  24148693.154    14470243.71649  11279823.02449  24148692.1794   24148696.2044
  20471906.881   -12275106.31349  -9552197.30849  20471907.9274   20471912.5824
  24014914.055   -10193761.89849  -7446294.77149  24014913.9964   24014917.8124
  23892141.870    14573178.491 9  11363179.625 9  23892144.115    23892152.519
  20218869.866   -27357435.55449 -21304941.12649  20218870.9924   20218876.4524
 94  4 27  1 44 29.9990000  0  8 16  6 24  4  5 25 12 20
  22069965.047   -19403996.27149 -15096151.55649  22069965.9984   22069971.2764
  21583426.189   -20216713.29749 -15740312.21749  21583427.4974   21583432.0404
  21295936.788    -7048459.19249  -5483339.93649  21295938.9174   21295943.8374
  24165337.526    14557732.62849  11347996.17049  24165341.7754   24165344.9654
  20478865.374   -12238538.58749  -9523702.99549  20478866.5174   20478871.2124
  24005532.535   -10243057.29149  -7484706.74949  24005533.9584   24005538.8074
  23911187.492    14673255.265 9  11441161.442 9  23911188.150    23911196.863
  20211756.882   -27394812.36649 -21334065.90949  20211758.2514   20211763.4424
 94  4 27  1 44 59.9990000  0  8 16  6 24  4  5 25 12 20
  22055133.579   -19481929.36949 -15156878.59249  22055134.8564   22055140.8334
  21569557.246   -20289589.51349 -15797098.85649  21569559.2554   21569564.6684
  21306534.109    -6992763.49649  -5439940.70249  21306536.9274   21306542.2344
  24181997.815    14645285.64049  11416219.26849  24182002.6674   24182005.9804
  20485919.004   -12201473.44849  -9494821.09149  20485919.7794   20485924.4904
  23996244.635   -10291853.31649  -7522729.60649  23996247.3634   23996254.5364
  23930248.028    14773421.655 9  11519213.089 9  23930249.924    23930258.613
  20204747.575   -27431647.92949 -21362768.94249  20204748.9284   20204754.0564
 94  4 27  1 45 29.9990000  0  8 16  6 24  4  5 25 12 20
  22040383.471   -19559445.75449 -15217280.93049  22040383.7964   22040389.4984
  21555717.964   -20362320.25949 -15853772.14349  21555719.4304   21555724.2734
  21317189.561    -6936777.00449  -5396314.87149  21317191.4494   21317197.0114
  24198672.008    14732901.30049  11484491.16349  24198675.2774   24198677.5714
  20493065.302   -12163919.00349  -9465557.90749  20493066.3304   20493070.6884
  23987057.517   -10340132.85549  -7560350.02949  23987060.1024   23987067.0954
  23949321.472    14873667.731 9  11597326.862 9  23949326.441    23949335.424
  20197839.672   -27467947.66649 -21391054.44949  20197841.0634   20197846.4224
 94  4 27  1 45 59.9990000  0  8 16  6 24  4  5 25 12 20
  22025712.468   -19636536.45449 -15277351.56449  22025713.9524   22025720.0694
  21541903.236   -20434914.66049 -15910339.18549  21541905.0954   21541909.5814
  21327898.665    -6880506.12449  -5352467.43949  21327899.7344   21327905.4894
  24215361.213    14820588.13549  11552818.53549  24215362.2444   24215365.7824
  20500303.157   -12125882.13049  -9435918.79649  20500304.2454   20500309.0914
  23977973.026   -10387882.43649  -7597557.49249  23977973.3174   23977980.0884
  23968415.283    14973995.536 9  11675504.325 9  23968418.779    23968427.678
  20191035.664   -27503705.19149 -21418917.45549  20191036.7114   20191041.9614
 94  4 27  1 46 29.9990000  0  8 16  6 24  4  5 25 12 20
  22011126.076   -19713183.82149 -15337076.73949  22011128.3974   22011134.7984
  21528112.475   -20507388.93549 -15966812.62649  21528113.4564   21528118.1364
  21338657.579    -6823959.80349  -5308405.37949  21338659.8424   21338665.2884
  24232060.728    14908336.36649  11621193.74549  24232059.6624   24232065.4554
  20507633.617   -12087358.74249  -9405900.58849  20507634.9944   20507639.7894
  23968988.754   -10435093.74549  -7634345.50349  23968989.6704   23968994.4344
  23987522.781    15074401.262 9  11753742.508 9  23987525.529    23987534.305
  20184335.328   -27538920.12049 -21446357.65049  20184336.1734   20184340.7464
 94  4 27  1 46 59.9990000  0  8 16  6 24  4  5 25 12 20
  21996623.872   -19789401.69449 -15396467.23449  21996624.7514   21996631.7454
  21514344.006   -20579742.11449 -16023191.70549  21514345.4214   21514350.0034
  21349468.836    -6767152.73849  -5264140.14649  21349470.2044   21349475.0384
  24248764.185    14996115.78149  11689593.25449  24248764.1654   24248770.0804
  20515056.361   -12048350.79849  -9375504.81049  20515057.8194   20515063.0204
  23960109.863   -10481742.69149  -7670695.28949  23960112.3524   23960117.6804
  24006644.378    15174881.834 9  11832038.994 9  24006646.391    24006654.753
  20177736.167   -27573591.35049 -21473374.19049  20177737.5654   20177743.2114
 94  4 27  1 47 29.9990000  0  8 16  6 24  4  5 25 12 20
  21982202.909   -19865177.14949 -15455512.97849  21982205.1464   21982212.0944
  21500602.195   -20651956.83749 -16079462.89649  21500603.4734   21500607.8734
  21360326.156    -6710094.78349  -5219679.41349  21360327.8434   21360333.0534
  24265468.191    15083913.15149  11758006.77349  24265471.3354   24265478.1064
  20522571.483   -12008862.60449  -9344734.81149  20522572.6854   20522577.6124
  23951339.299   -10527829.87549  -7706607.37249  23951342.2754   23951348.9224
  24025779.699    15275435.684 9  11910392.582 9  24025780.844    24025789.539
  20171243.096   -27607716.09849 -21499964.90849  20171244.2244   20171249.3694
 94  4 27  1 47 59.9990000  0  8 16  6 24  4  5 25 12 20
  21967870.943   -19940501.58349 -15514207.30049  21967871.5794   21967877.4944
  21486888.465   -20724019.95149 -16135615.95449  21486889.9784   21486894.5934
  21371229.593    -6652794.02349  -5175029.48049  21371231.7874   21371237.1514
  24282180.492    15171726.74049  11826432.92249  24282181.6564   24282188.3054
  20530177.042   -11968895.88449  -9313591.93249  20530177.9554   20530182.6824
  23942675.863   -10573373.39149  -7742095.81649  23942676.4914   23942683.6834
  24044926.683    15376056.249 9  11988798.173 9  24044928.155    24044937.476
  20164853.120   -27641296.72749 -21526131.62249  20164854.2784   20164859.0484
 94  4 27  1 48 29.9990000  0  8 16  6 24  4  5 25 12 20
  21953625.371   -20015358.94149 -15572537.67149  21953626.9364   21953632.9554
  21473205.111   -20795928.56949 -16191648.61449  21473206.2734   21473210.6624
  21382184.137    -6595235.67149  -5130178.82849  21382184.9094   21382189.9414
  24298889.778    15259543.98949  11894861.91749  24298891.9244   24298898.7684
  20537874.326   -11928444.72949  -9282071.56449  20537875.4824   20537880.1464
  23934112.443   -10618369.31649  -7777157.56049  23934113.8614   23934118.7814
  24064087.160    15476742.048 9  12067254.599 9  24064088.843    24064098.054
  20158566.436   -27674329.92949 -21551871.76749  20158567.8634   20158573.4874
 94  4 27  1 48 59.9990000  0  9 16  6 24  4  5 25 17 12 20
  21939468.980   -20089755.40949 -15630508.90649  21939469.1264   21939475.8894
  21459551.567   -20867673.84049 -16247554.00349  21459553.5384   21459558.1524
  21393182.176    -6537422.52049  -5085129.63049  21393185.7324   21393191.4914
  24315598.809    15347364.29049  11963293.28349  24315602.9824   24315610.3844
  20545661.986   -11887522.79949  -9250184.35949  20545662.6384   20545667.5144
  23925652.763   -10662820.40649  -7811794.74649  23925654.7004   23925659.8884
  24347721.504     -364028.34159   -267198.07459  24347720.4204   24347729.8234
  24083260.440    15577489.467 9  12145759.031 9  24083260.906    24083269.819
  20152385.057   -27706815.67749 -21577185.33449  20152386.2294   20152391.5354
 94  4 27  1 49 29.9990000  0  9 16  6 24  4  5 25 17 12 20
  21925399.081   -20163686.76549 -15688117.71449  21925400.7144   21925407.2074
  21445930.474   -20939255.11249 -16303331.59549  21445932.1614   21445936.7684
  21404233.894    -6479355.98149  -5039882.98549  21404235.5524   21404241.2944
  24332315.143    15435201.89949  12031738.16149  24332317.6844   24332323.7714
  20553538.000   -11846129.29449  -9217929.70149  20553539.6534   20553544.2854
  23917295.881   -10706739.48149  -7846017.36949  23917297.8814   23917303.9454
  24325076.762     -483024.39549   -359922.15449  24325078.3394   24325083.7194
  24102442.358    15678296.430 9  12224309.849 9  24102444.045    24102451.625
  20146308.495   -27738751.68549 -21602070.51949  20146309.2214   20146313.9504
 94  4 27  1 49 59.9990000  0  9 16  6 24  4  5 25 17 12 20
  21911417.919   -20237165.23749 -15745373.62449  21911418.4024   21911424.9934
  21432336.920   -21010691.50849 -16358996.30849  21432338.5314   21432342.9694
  21415332.452    -6421030.59449  -4994434.64049  21415334.6564   21415340.1234
  24349037.276    15523061.13749  12100199.86749  24349036.8984   24349043.8884
  20561507.208   -11804255.58549  -9185300.86549  20561508.0324   20561512.6314
  23909041.991   -10750117.07249  -7879818.10349  23909043.1364   23909050.1604
  24302454.972     -601899.28549   -452551.79049  24302457.0324   24302462.8604
  24121633.080    15779159.929 9  12302904.717 9  24121636.771    24121645.080
  20140334.773   -27770136.66149 -21626526.34449  20140336.3514   20140341.4384
 94  4 27  1 50 29.9990000  0  9 16  6 24  4  5 25 17 12 20
  21897519.883   -20310197.62249 -15802281.93849  21897520.5044   21897527.2154
  21418767.906   -21081997.40649 -16414559.34249  21418769.1534   21418773.6234
  21426479.572    -6362453.62849  -4948790.25949  21426481.5944   21426486.3214
  24365760.108    15610937.53149  12168674.94649  24365759.8674   24365765.9704
  20569565.428   -11761907.64549  -9152302.47149  20569566.9114   20569571.1024
  23900891.734   -10792944.61249  -7913190.18449  23900893.3104   23900898.0634
  24279852.795     -720671.11749   -545101.12449  24279855.0204   24279862.2884
  24140836.830    15880076.600 9  12381541.032 9  24140839.810    24140848.350
  20134468.406   -27800969.89849 -21650552.24749  20134469.3224   20134474.2004
 94  4 27  1 50 59.9990000  0  9 16  6 24  4  5 25 17 12 20
  21883704.115   -20382794.28749 -15858850.73049  21883706.3054   21883712.5754
  21405225.427   -21153159.86049 -16470010.59549  21405227.1234   21405231.8014
  21437672.202    -6303643.76249  -4902964.40549  21437673.1464   21437677.8354
  24382488.167    15698852.25749  12237179.89749  24382489.6364   24382495.2564
  20577716.258   -11719074.89149  -9118926.30449  20577717.2054   20577722.1804
  23892844.810   -10835222.49649  -7946133.95249  23892847.5374   23892851.6314
  24257269.310     -839345.42449   -637574.48649  24257271.5164   24257280.1064
  24160050.900    15981043.867 9  12460216.778 9  24160054.152    24160061.712
  20128706.421   -27831249.61149 -21674146.82349  20128707.2964   20128712.0574
 94  4 27  1 51 29.9990000  0  9 16  6 24  4  5 25 17 12 20
  21869973.576   -20454960.08349 -15915083.77749  21869973.4844   21869980.6384
  21391710.001   -21224187.84149 -16525357.05649  21391711.4944   21391715.5714
  21448905.884    -6244602.77149  -4856958.45649  21448908.2004   21448913.5224
  24399224.180    15786807.77949  12305716.63749  24399227.2554   24399232.7904
  20585959.931   -11675750.54349  -9085167.08149  20585961.2894   20585967.1414
  23884903.698   -10876958.83649  -7978655.75749  23884905.7564   23884911.7894
  24234708.338     -957907.16949   -729960.17449  24234709.1384   24234719.1814
  24179275.005    16082055.483 9  12538927.052 9  24179277.184    24179283.850
  20123048.434   -27860977.90249 -21697311.72549  20123049.6244   20123055.0774
 94  4 27  1 51 59.9990000  0  9 16  6 24  4  5 25 17 12 20
  21856329.541   -20526648.56749 -15970944.89249  21856330.7314   21856337.6204
  21378228.238   -21295032.40249 -16580560.59749  21378230.1404   21378235.1584
  21460196.383    -6185273.85849  -4810728.14449  21460197.8374   21460203.4104
  24415978.395    15874850.86649  12374321.60349  24415981.2974   24415987.0334
  20594306.929   -11631892.26449  -9050991.82749  20594307.6244   20594312.4254
  23877076.778   -10918102.79449  -8010715.97549  23877076.4534   23877082.8204
  24212180.089    -1076297.20449   -822212.03749  24212180.1824   24212190.3914
  24198515.545    16183152.939 9  12617704.199 9  24198516.137    24198522.335
  20117505.464   -27890109.50749 -21720011.68249  20117506.4824   20117511.7934
